<?xml version="1.0" ?>
<gpx xmlns="http://www.topografix.com/GPX/1/1" xmlns:xsi="http://www.w3.org/2001/XMLSchema-instance" creator="GPXFIX" version="1.1" xsi:schemaLocation="http://www.topografix.com/GPX/1/1 http://www.topografix.com/GPX/1/1/gpx.xsd">
	<trk>
		<trkseg>
			<trkpt lat="16.427153333333337" lon="-86.29774666666665">
				<ele>6.4</ele>
				<time>2025-07-03T15:23:24.000000Z</time>
			</trkpt>
			<trkpt lat="16.42715333169631" lon="-86.29774666011855">
				<ele>6.4</ele>
				<time>2025-07-03T15:23:25.000000Z</time>
			</trkpt>
			<trkpt lat="16.427153320237124" lon="-86.2977466142818">
				<ele>6.4</ele>
				<time>2025-07-03T15:23:26.000000Z</time>
			</trkpt>
			<trkpt lat="16.42715330386686" lon="-86.29774654880075">
				<ele>6.4</ele>
				<time>2025-07-03T15:23:27.000000Z</time>
			</trkpt>
			<trkpt lat="16.42715328913362" lon="-86.29774648986779">
				<ele>6.4</ele>
				<time>2025-07-03T15:23:28.000000Z</time>
			</trkpt>
			<trkpt lat="16.427153274400382" lon="-86.29774643093484">
				<ele>6.4</ele>
				<time>2025-07-03T15:23:29.000000Z</time>
			</trkpt>
			<trkpt lat="16.427153258030117" lon="-86.29774636545378">
				<ele>6.4</ele>
				<time>2025-07-03T15:23:30.000000Z</time>
			</trkpt>
			<trkpt lat="16.427153241659852" lon="-86.29774629997272">
				<ele>6.4</ele>
				<time>2025-07-03T15:23:31.000000Z</time>
			</trkpt>
			<trkpt lat="16.427153225289587" lon="-86.29774623449165">
				<ele>6.4</ele>
				<time>2025-07-03T15:23:32.000000Z</time>
			</trkpt>
			<trkpt lat="16.42715320891932" lon="-86.2977461690106">
				<ele>6.4</ele>
				<time>2025-07-03T15:23:33.000000Z</time>
			</trkpt>
			<trkpt lat="16.427153192549056" lon="-86.29774610352953">
				<ele>6.4</ele>
				<time>2025-07-03T15:23:34.000000Z</time>
			</trkpt>
			<trkpt lat="16.42715317617879" lon="-86.29774603804847">
				<ele>6.4</ele>
				<time>2025-07-03T15:23:35.000000Z</time>
			</trkpt>
			<trkpt lat="16.427153159808526" lon="-86.29774597256741">
				<ele>6.4</ele>
				<time>2025-07-03T15:23:36.000000Z</time>
			</trkpt>
			<trkpt lat="16.427153145075287" lon="-86.29774591363446">
				<ele>6.4</ele>
				<time>2025-07-03T15:23:37.000000Z</time>
			</trkpt>
			<trkpt lat="16.427153128705022" lon="-86.2977458481534">
				<ele>6.4</ele>
				<time>2025-07-03T15:23:38.000000Z</time>
			</trkpt>
			<trkpt lat="16.427153113971784" lon="-86.29774578922044">
				<ele>6.4</ele>
				<time>2025-07-03T15:23:39.000000Z</time>
			</trkpt>
			<trkpt lat="16.42715309760152" lon="-86.29774572373938">
				<ele>6.4</ele>
				<time>2025-07-03T15:23:40.000000Z</time>
			</trkpt>
			<trkpt lat="16.427153081231253" lon="-86.29774565825832">
				<ele>6.4</ele>
				<time>2025-07-03T15:23:41.000000Z</time>
			</trkpt>
			<trkpt lat="16.42715306486099" lon="-86.29774559277726">
				<ele>6.4</ele>
				<time>2025-07-03T15:23:42.000000Z</time>
			</trkpt>
			<trkpt lat="16.427153048490723" lon="-86.2977455272962">
				<ele>6.4</ele>
				<time>2025-07-03T15:23:43.000000Z</time>
			</trkpt>
			<trkpt lat="16.427153032120458" lon="-86.29774546181514">
				<ele>6.4</ele>
				<time>2025-07-03T15:23:44.000000Z</time>
			</trkpt>
			<trkpt lat="16.427153019024246" lon="-86.29774540943029">
				<ele>6.4</ele>
				<time>2025-07-03T15:23:45.000000Z</time>
			</trkpt>
			<trkpt lat="16.42715300265398" lon="-86.29774534394923">
				<ele>6.4</ele>
				<time>2025-07-03T15:23:46.000000Z</time>
			</trkpt>
			<trkpt lat="16.427152991194795" lon="-86.29774529811249">
				<ele>6.4</ele>
				<time>2025-07-03T15:23:47.000000Z</time>
			</trkpt>
			<trkpt lat="16.427152978098583" lon="-86.29774524572764">
				<ele>6.4</ele>
				<time>2025-07-03T15:23:48.000000Z</time>
			</trkpt>
			<trkpt lat="16.427152966639397" lon="-86.2977451998909">
				<ele>6.4</ele>
				<time>2025-07-03T15:23:49.000000Z</time>
			</trkpt>
			<trkpt lat="16.42715295190616" lon="-86.29774514095794">
				<ele>6.4</ele>
				<time>2025-07-03T15:23:50.000000Z</time>
			</trkpt>
			<trkpt lat="16.427152938809947" lon="-86.2977450885731">
				<ele>6.4</ele>
				<time>2025-07-03T15:23:51.000000Z</time>
			</trkpt>
			<trkpt lat="16.427152924076708" lon="-86.29774502964014">
				<ele>6.4</ele>
				<time>2025-07-03T15:23:52.000000Z</time>
			</trkpt>
			<trkpt lat="16.42715290934347" lon="-86.29774497070719">
				<ele>6.4</ele>
				<time>2025-07-03T15:23:53.000000Z</time>
			</trkpt>
			<trkpt lat="16.427152892973204" lon="-86.29774490522612">
				<ele>6.4</ele>
				<time>2025-07-03T15:23:54.000000Z</time>
			</trkpt>
			<trkpt lat="16.427152878239966" lon="-86.29774484629317">
				<ele>6.4</ele>
				<time>2025-07-03T15:23:55.000000Z</time>
			</trkpt>
			<trkpt lat="16.427152002405002" lon="-86.29774321570964">
				<ele>6.96941</ele>
				<time>2025-07-03T15:23:56.000000Z</time>
			</trkpt>
			<trkpt lat="16.427142086341853" lon="-86.29773840402328">
				<ele>7.76334</ele>
				<time>2025-07-03T15:23:57.000000Z</time>
			</trkpt>
			<trkpt lat="16.42713482503603" lon="-86.29773948543696">
				<ele>7.5849</ele>
				<time>2025-07-03T15:23:58.000000Z</time>
			</trkpt>
			<trkpt lat="16.427128335758418" lon="-86.2977418507689">
				<ele>7.49323</ele>
				<time>2025-07-03T15:23:59.000000Z</time>
			</trkpt>
			<trkpt lat="16.427122459167425" lon="-86.29774197183191">
				<ele>7.46224</ele>
				<time>2025-07-03T15:24:00.000000Z</time>
			</trkpt>
			<trkpt lat="16.427118817668063" lon="-86.29774348850547">
				<ele>7.50828</ele>
				<time>2025-07-03T15:24:01.000000Z</time>
			</trkpt>
			<trkpt lat="16.427113254673454" lon="-86.29774589301745">
				<ele>7.50352</ele>
				<time>2025-07-03T15:24:02.000000Z</time>
			</trkpt>
			<trkpt lat="16.42710221938756" lon="-86.29775763516682">
				<ele>7.48381</ele>
				<time>2025-07-03T15:24:03.000000Z</time>
			</trkpt>
			<trkpt lat="16.427092666305875" lon="-86.29777386189106">
				<ele>7.50412</ele>
				<time>2025-07-03T15:24:04.000000Z</time>
			</trkpt>
			<trkpt lat="16.427088225767047" lon="-86.29779593191203">
				<ele>7.50127</ele>
				<time>2025-07-03T15:24:05.000000Z</time>
			</trkpt>
			<trkpt lat="16.42708902755102" lon="-86.29782632220676">
				<ele>7.65175</ele>
				<time>2025-07-03T15:24:06.000000Z</time>
			</trkpt>
			<trkpt lat="16.427091293005258" lon="-86.29786247209208">
				<ele>7.80455</ele>
				<time>2025-07-03T15:24:07.000000Z</time>
			</trkpt>
			<trkpt lat="16.427096276413614" lon="-86.29790421439724">
				<ele>7.92824</ele>
				<time>2025-07-03T15:24:08.000000Z</time>
			</trkpt>
			<trkpt lat="16.42710335118684" lon="-86.29795389640523">
				<ele>8.10651</ele>
				<time>2025-07-03T15:24:09.000000Z</time>
			</trkpt>
			<trkpt lat="16.427111857372246" lon="-86.29801222644791">
				<ele>8.30241</ele>
				<time>2025-07-03T15:24:10.000000Z</time>
			</trkpt>
			<trkpt lat="16.42712209031801" lon="-86.29807376882314">
				<ele>8.47584</ele>
				<time>2025-07-03T15:24:11.000000Z</time>
			</trkpt>
			<trkpt lat="16.42713281391316" lon="-86.29813863976547">
				<ele>8.65119</ele>
				<time>2025-07-03T15:24:12.000000Z</time>
			</trkpt>
			<trkpt lat="16.427141315016303" lon="-86.29820769420702">
				<ele>8.79481</ele>
				<time>2025-07-03T15:24:13.000000Z</time>
			</trkpt>
			<trkpt lat="16.427150049734042" lon="-86.29828094096926">
				<ele>9.01785</ele>
				<time>2025-07-03T15:24:14.000000Z</time>
			</trkpt>
			<trkpt lat="16.42716201801608" lon="-86.29835822044399">
				<ele>9.16557</ele>
				<time>2025-07-03T15:24:15.000000Z</time>
			</trkpt>
			<trkpt lat="16.42717736747284" lon="-86.2984352737451">
				<ele>9.34308</ele>
				<time>2025-07-03T15:24:16.000000Z</time>
			</trkpt>
			<trkpt lat="16.427192732910882" lon="-86.29851520702694">
				<ele>9.54646</ele>
				<time>2025-07-03T15:24:17.000000Z</time>
			</trkpt>
			<trkpt lat="16.42721328472235" lon="-86.2985996202592">
				<ele>9.71878</ele>
				<time>2025-07-03T15:24:18.000000Z</time>
			</trkpt>
			<trkpt lat="16.42723312308112" lon="-86.29868538815056">
				<ele>10.0041</ele>
				<time>2025-07-03T15:24:19.000000Z</time>
			</trkpt>
			<trkpt lat="16.42725202501721" lon="-86.29877054976289">
				<ele>10.154</ele>
				<time>2025-07-03T15:24:20.000000Z</time>
			</trkpt>
			<trkpt lat="16.427267503469107" lon="-86.29885689113611">
				<ele>10.2608</ele>
				<time>2025-07-03T15:24:21.000000Z</time>
			</trkpt>
			<trkpt lat="16.427276919244278" lon="-86.29894063907075">
				<ele>10.4257</ele>
				<time>2025-07-03T15:24:22.000000Z</time>
			</trkpt>
			<trkpt lat="16.427278937371284" lon="-86.29902561214469">
				<ele>10.5799</ele>
				<time>2025-07-03T15:24:23.000000Z</time>
			</trkpt>
			<trkpt lat="16.427275344208425" lon="-86.29910705841735">
				<ele>10.8052</ele>
				<time>2025-07-03T15:24:24.000000Z</time>
			</trkpt>
			<trkpt lat="16.42727184102998" lon="-86.29917691761955">
				<ele>11.2463</ele>
				<time>2025-07-03T15:24:25.000000Z</time>
			</trkpt>
			<trkpt lat="16.427266036226865" lon="-86.29923151431457">
				<ele>11.4769</ele>
				<time>2025-07-03T15:24:26.000000Z</time>
			</trkpt>
			<trkpt lat="16.427261621549512" lon="-86.29926478273403">
				<ele>12.0351</ele>
				<time>2025-07-03T15:24:27.000000Z</time>
			</trkpt>
			<trkpt lat="16.427255128108083" lon="-86.29930367002818">
				<ele>12.2263</ele>
				<time>2025-07-03T15:24:28.000000Z</time>
			</trkpt>
			<trkpt lat="16.42725015626869" lon="-86.29933776142907">
				<ele>12.2328</ele>
				<time>2025-07-03T15:24:29.000000Z</time>
			</trkpt>
			<trkpt lat="16.427245308432568" lon="-86.29938212950486">
				<ele>12.6465</ele>
				<time>2025-07-03T15:24:30.000000Z</time>
			</trkpt>
			<trkpt lat="16.427242362467776" lon="-86.29943015752521">
				<ele>13.089</ele>
				<time>2025-07-03T15:24:31.000000Z</time>
			</trkpt>
			<trkpt lat="16.42723868934643" lon="-86.29949317940176">
				<ele>13.6976</ele>
				<time>2025-07-03T15:24:32.000000Z</time>
			</trkpt>
			<trkpt lat="16.42723355794296" lon="-86.29955151591157">
				<ele>14.4548</ele>
				<time>2025-07-03T15:24:33.000000Z</time>
			</trkpt>
			<trkpt lat="16.427222517431755" lon="-86.29962722673326">
				<ele>15.5723</ele>
				<time>2025-07-03T15:24:34.000000Z</time>
			</trkpt>
			<trkpt lat="16.427212399829013" lon="-86.29970224420867">
				<ele>16.1817</ele>
				<time>2025-07-03T15:24:35.000000Z</time>
			</trkpt>
			<trkpt lat="16.427201090937878" lon="-86.29979084073452">
				<ele>16.9191</ele>
				<time>2025-07-03T15:24:36.000000Z</time>
			</trkpt>
			<trkpt lat="16.42718990698152" lon="-86.29988543866169">
				<ele>17.8601</ele>
				<time>2025-07-03T15:24:37.000000Z</time>
			</trkpt>
			<trkpt lat="16.42718067394456" lon="-86.29996844897107">
				<ele>18.2174</ele>
				<time>2025-07-03T15:24:38.000000Z</time>
			</trkpt>
			<trkpt lat="16.427170162607457" lon="-86.30005108094947">
				<ele>18.506</ele>
				<time>2025-07-03T15:24:39.000000Z</time>
			</trkpt>
			<trkpt lat="16.427158695615056" lon="-86.30013334143378">
				<ele>18.6279</ele>
				<time>2025-07-03T15:24:40.000000Z</time>
			</trkpt>
			<trkpt lat="16.427146520985424" lon="-86.30021574049698">
				<ele>18.5383</ele>
				<time>2025-07-03T15:24:41.000000Z</time>
			</trkpt>
			<trkpt lat="16.42713259324956" lon="-86.30029412680828">
				<ele>18.5312</ele>
				<time>2025-07-03T15:24:42.000000Z</time>
			</trkpt>
			<trkpt lat="16.42711682152837" lon="-86.30037124075876">
				<ele>18.7052</ele>
				<time>2025-07-03T15:24:43.000000Z</time>
			</trkpt>
			<trkpt lat="16.427102930552348" lon="-86.30044039455689">
				<ele>19.1742</ele>
				<time>2025-07-03T15:24:44.000000Z</time>
			</trkpt>
			<trkpt lat="16.4270918425939" lon="-86.30050118111119">
				<ele>19.2679</ele>
				<time>2025-07-03T15:24:45.000000Z</time>
			</trkpt>
			<trkpt lat="16.427082541061196" lon="-86.30055520898343">
				<ele>19.1328</ele>
				<time>2025-07-03T15:24:46.000000Z</time>
			</trkpt>
			<trkpt lat="16.42707558021239" lon="-86.30060196760512">
				<ele>19.3043</ele>
				<time>2025-07-03T15:24:47.000000Z</time>
			</trkpt>
			<trkpt lat="16.42706753313968" lon="-86.30063831601046">
				<ele>19.2824</ele>
				<time>2025-07-03T15:24:48.000000Z</time>
			</trkpt>
			<trkpt lat="16.427063417650626" lon="-86.30066247125619">
				<ele>19.5034</ele>
				<time>2025-07-03T15:24:49.000000Z</time>
			</trkpt>
			<trkpt lat="16.427060068275292" lon="-86.30068395100417">
				<ele>19.1642</ele>
				<time>2025-07-03T15:24:50.000000Z</time>
			</trkpt>
			<trkpt lat="16.427056979367602" lon="-86.30070662441594">
				<ele>18.4483</ele>
				<time>2025-07-03T15:24:51.000000Z</time>
			</trkpt>
			<trkpt lat="16.427051709122786" lon="-86.30073488909188">
				<ele>18.069</ele>
				<time>2025-07-03T15:24:52.000000Z</time>
			</trkpt>
			<trkpt lat="16.427046129942596" lon="-86.30077070957422">
				<ele>17.7435</ele>
				<time>2025-07-03T15:24:53.000000Z</time>
			</trkpt>
			<trkpt lat="16.427040867447488" lon="-86.30081154870632">
				<ele>17.452</ele>
				<time>2025-07-03T15:24:54.000000Z</time>
			</trkpt>
			<trkpt lat="16.427034471326476" lon="-86.30085969136499">
				<ele>17.3511</ele>
				<time>2025-07-03T15:24:55.000000Z</time>
			</trkpt>
			<trkpt lat="16.42702924015479" lon="-86.30090967525541">
				<ele>17.4763</ele>
				<time>2025-07-03T15:24:56.000000Z</time>
			</trkpt>
			<trkpt lat="16.427025086101256" lon="-86.30097196902717">
				<ele>17.7965</ele>
				<time>2025-07-03T15:24:57.000000Z</time>
			</trkpt>
			<trkpt lat="16.427024599009346" lon="-86.30104284433726">
				<ele>18.2298</ele>
				<time>2025-07-03T15:24:58.000000Z</time>
			</trkpt>
			<trkpt lat="16.42702121675415" lon="-86.30110852737009">
				<ele>18.741</ele>
				<time>2025-07-03T15:24:59.000000Z</time>
			</trkpt>
			<trkpt lat="16.427016570547075" lon="-86.30117039519816">
				<ele>18.7932</ele>
				<time>2025-07-03T15:25:00.000000Z</time>
			</trkpt>
			<trkpt lat="16.427010772206298" lon="-86.30123404593775">
				<ele>18.775</ele>
				<time>2025-07-03T15:25:01.000000Z</time>
			</trkpt>
			<trkpt lat="16.42700247624178" lon="-86.3013012900714">
				<ele>18.7578</ele>
				<time>2025-07-03T15:25:02.000000Z</time>
			</trkpt>
			<trkpt lat="16.42699365496063" lon="-86.30138002916411">
				<ele>18.707</ele>
				<time>2025-07-03T15:25:03.000000Z</time>
			</trkpt>
			<trkpt lat="16.426988381160758" lon="-86.30147047666516">
				<ele>18.7745</ele>
				<time>2025-07-03T15:25:04.000000Z</time>
			</trkpt>
			<trkpt lat="16.42699028721112" lon="-86.30157336136585">
				<ele>18.5705</ele>
				<time>2025-07-03T15:25:05.000000Z</time>
			</trkpt>
			<trkpt lat="16.42700188384284" lon="-86.30168244871436">
				<ele>18.4773</ele>
				<time>2025-07-03T15:25:06.000000Z</time>
			</trkpt>
			<trkpt lat="16.42702137802526" lon="-86.30178823623781">
				<ele>18.5265</ele>
				<time>2025-07-03T15:25:07.000000Z</time>
			</trkpt>
			<trkpt lat="16.427044828689993" lon="-86.30188248568211">
				<ele>18.5431</ele>
				<time>2025-07-03T15:25:08.000000Z</time>
			</trkpt>
			<trkpt lat="16.427073830824764" lon="-86.30198908848567">
				<ele>18.6857</ele>
				<time>2025-07-03T15:25:09.000000Z</time>
			</trkpt>
			<trkpt lat="16.42709715212469" lon="-86.30207808319057">
				<ele>18.9519</ele>
				<time>2025-07-03T15:25:10.000000Z</time>
			</trkpt>
			<trkpt lat="16.427123758650396" lon="-86.30218218195768">
				<ele>19.2206</ele>
				<time>2025-07-03T15:25:11.000000Z</time>
			</trkpt>
			<trkpt lat="16.427144980456898" lon="-86.30227092033064">
				<ele>19.4205</ele>
				<time>2025-07-03T15:25:12.000000Z</time>
			</trkpt>
			<trkpt lat="16.42717006617304" lon="-86.30237252789797">
				<ele>19.6822</ele>
				<time>2025-07-03T15:25:13.000000Z</time>
			</trkpt>
			<trkpt lat="16.42719138482539" lon="-86.30246525018813">
				<ele>19.9165</ele>
				<time>2025-07-03T15:25:14.000000Z</time>
			</trkpt>
			<trkpt lat="16.427214515130007" lon="-86.30256322360005">
				<ele>20.1513</ele>
				<time>2025-07-03T15:25:15.000000Z</time>
			</trkpt>
			<trkpt lat="16.427239795456146" lon="-86.30267117619373">
				<ele>20.5844</ele>
				<time>2025-07-03T15:25:16.000000Z</time>
			</trkpt>
			<trkpt lat="16.42726226785326" lon="-86.30275838183337">
				<ele>21.1007</ele>
				<time>2025-07-03T15:25:17.000000Z</time>
			</trkpt>
			<trkpt lat="16.427287285498508" lon="-86.30286452985528">
				<ele>21.4646</ele>
				<time>2025-07-03T15:25:18.000000Z</time>
			</trkpt>
			<trkpt lat="16.42730909108012" lon="-86.30295353972336">
				<ele>21.6604</ele>
				<time>2025-07-03T15:25:19.000000Z</time>
			</trkpt>
			<trkpt lat="16.427329536247132" lon="-86.30304421339588">
				<ele>21.1289</ele>
				<time>2025-07-03T15:25:20.000000Z</time>
			</trkpt>
			<trkpt lat="16.427342795037468" lon="-86.30313135400604">
				<ele>20.3823</ele>
				<time>2025-07-03T15:25:21.000000Z</time>
			</trkpt>
			<trkpt lat="16.42735071524412" lon="-86.30324049761062">
				<ele>19.716</ele>
				<time>2025-07-03T15:25:22.000000Z</time>
			</trkpt>
			<trkpt lat="16.42733977023389" lon="-86.30333449948249">
				<ele>19.6026</ele>
				<time>2025-07-03T15:25:23.000000Z</time>
			</trkpt>
			<trkpt lat="16.427310956178495" lon="-86.3034316334504">
				<ele>18.9968</ele>
				<time>2025-07-03T15:25:24.000000Z</time>
			</trkpt>
			<trkpt lat="16.427271473446975" lon="-86.30353114772969">
				<ele>18.5327</ele>
				<time>2025-07-03T15:25:25.000000Z</time>
			</trkpt>
			<trkpt lat="16.42722401660172" lon="-86.30363343928747">
				<ele>18.3813</ele>
				<time>2025-07-03T15:25:26.000000Z</time>
			</trkpt>
			<trkpt lat="16.427174048248748" lon="-86.303735547144">
				<ele>18.391</ele>
				<time>2025-07-03T15:25:27.000000Z</time>
			</trkpt>
			<trkpt lat="16.427123456727564" lon="-86.30383524369775">
				<ele>18.2732</ele>
				<time>2025-07-03T15:25:28.000000Z</time>
			</trkpt>
			<trkpt lat="16.427074955142974" lon="-86.30393231345413">
				<ele>18.1563</ele>
				<time>2025-07-03T15:25:29.000000Z</time>
			</trkpt>
			<trkpt lat="16.427032981310575" lon="-86.30402472352009">
				<ele>17.9975</ele>
				<time>2025-07-03T15:25:30.000000Z</time>
			</trkpt>
			<trkpt lat="16.427000413941943" lon="-86.30411551196555">
				<ele>17.7258</ele>
				<time>2025-07-03T15:25:31.000000Z</time>
			</trkpt>
			<trkpt lat="16.426984689207995" lon="-86.30419305429638">
				<ele>17.4363</ele>
				<time>2025-07-03T15:25:32.000000Z</time>
			</trkpt>
			<trkpt lat="16.426987006344877" lon="-86.30428412445423">
				<ele>17.2368</ele>
				<time>2025-07-03T15:25:33.000000Z</time>
			</trkpt>
			<trkpt lat="16.427016316572615" lon="-86.30436012498942">
				<ele>17.365</ele>
				<time>2025-07-03T15:25:34.000000Z</time>
			</trkpt>
			<trkpt lat="16.4270700146826" lon="-86.30442442710918">
				<ele>17.5303</ele>
				<time>2025-07-03T15:25:35.000000Z</time>
			</trkpt>
			<trkpt lat="16.427136033868337" lon="-86.30448021161054">
				<ele>17.6404</ele>
				<time>2025-07-03T15:25:36.000000Z</time>
			</trkpt>
			<trkpt lat="16.42720652516245" lon="-86.30454204459046">
				<ele>17.6252</ele>
				<time>2025-07-03T15:25:37.000000Z</time>
			</trkpt>
			<trkpt lat="16.42727685789414" lon="-86.30460921766742">
				<ele>17.8894</ele>
				<time>2025-07-03T15:25:38.000000Z</time>
			</trkpt>
			<trkpt lat="16.427346342501234" lon="-86.30467900788109">
				<ele>18.1366</ele>
				<time>2025-07-03T15:25:39.000000Z</time>
			</trkpt>
			<trkpt lat="16.427409220009054" lon="-86.30474889589895">
				<ele>17.9712</ele>
				<time>2025-07-03T15:25:40.000000Z</time>
			</trkpt>
			<trkpt lat="16.427462521846895" lon="-86.304820226983">
				<ele>17.7789</ele>
				<time>2025-07-03T15:25:41.000000Z</time>
			</trkpt>
			<trkpt lat="16.42751770641823" lon="-86.30490728712333">
				<ele>17.6471</ele>
				<time>2025-07-03T15:25:42.000000Z</time>
			</trkpt>
			<trkpt lat="16.427560033718102" lon="-86.30498899738323">
				<ele>17.4511</ele>
				<time>2025-07-03T15:25:43.000000Z</time>
			</trkpt>
			<trkpt lat="16.427593258263908" lon="-86.30507399024465">
				<ele>17.3588</ele>
				<time>2025-07-03T15:25:44.000000Z</time>
			</trkpt>
			<trkpt lat="16.42760627475935" lon="-86.30515926359297">
				<ele>16.9599</ele>
				<time>2025-07-03T15:25:45.000000Z</time>
			</trkpt>
			<trkpt lat="16.427600371266152" lon="-86.30523984200347">
				<ele>17.0282</ele>
				<time>2025-07-03T15:25:46.000000Z</time>
			</trkpt>
			<trkpt lat="16.427578757719676" lon="-86.30531743764793">
				<ele>17.2164</ele>
				<time>2025-07-03T15:25:47.000000Z</time>
			</trkpt>
			<trkpt lat="16.427541326491298" lon="-86.30539105991922">
				<ele>17.4763</ele>
				<time>2025-07-03T15:25:48.000000Z</time>
			</trkpt>
			<trkpt lat="16.427491841375623" lon="-86.30546219109505">
				<ele>17.7706</ele>
				<time>2025-07-03T15:25:49.000000Z</time>
			</trkpt>
			<trkpt lat="16.427439040929286" lon="-86.30553319921381">
				<ele>18.5603</ele>
				<time>2025-07-03T15:25:50.000000Z</time>
			</trkpt>
			<trkpt lat="16.427386663654293" lon="-86.30559959810708">
				<ele>19.8234</ele>
				<time>2025-07-03T15:25:51.000000Z</time>
			</trkpt>
			<trkpt lat="16.42733081056957" lon="-86.30567271661917">
				<ele>21.0327</ele>
				<time>2025-07-03T15:25:52.000000Z</time>
			</trkpt>
			<trkpt lat="16.427284876548423" lon="-86.30573234140084">
				<ele>22.3706</ele>
				<time>2025-07-03T15:25:53.000000Z</time>
			</trkpt>
			<trkpt lat="16.427234434887126" lon="-86.30580083429346">
				<ele>24.1068</ele>
				<time>2025-07-03T15:25:54.000000Z</time>
			</trkpt>
			<trkpt lat="16.427189381472797" lon="-86.30586062041196">
				<ele>25.3721</ele>
				<time>2025-07-03T15:25:55.000000Z</time>
			</trkpt>
			<trkpt lat="16.42713931794938" lon="-86.30592296369223">
				<ele>26.7197</ele>
				<time>2025-07-03T15:25:56.000000Z</time>
			</trkpt>
			<trkpt lat="16.42709010362411" lon="-86.30598451102013">
				<ele>28.2832</ele>
				<time>2025-07-03T15:25:57.000000Z</time>
			</trkpt>
			<trkpt lat="16.427045106322716" lon="-86.30604803079046">
				<ele>29.6914</ele>
				<time>2025-07-03T15:25:58.000000Z</time>
			</trkpt>
			<trkpt lat="16.427008254801134" lon="-86.30610775546278">
				<ele>30.7331</ele>
				<time>2025-07-03T15:25:59.000000Z</time>
			</trkpt>
			<trkpt lat="16.42697100756119" lon="-86.30617610201563">
				<ele>32.014</ele>
				<time>2025-07-03T15:26:00.000000Z</time>
			</trkpt>
			<trkpt lat="16.426935877672847" lon="-86.3062497334983">
				<ele>33.781</ele>
				<time>2025-07-03T15:26:01.000000Z</time>
			</trkpt>
			<trkpt lat="16.426909336116466" lon="-86.30632314513994">
				<ele>34.8974</ele>
				<time>2025-07-03T15:26:02.000000Z</time>
			</trkpt>
			<trkpt lat="16.42688183724105" lon="-86.3063999988644">
				<ele>36.1022</ele>
				<time>2025-07-03T15:26:03.000000Z</time>
			</trkpt>
			<trkpt lat="16.426853773905275" lon="-86.30647819760392">
				<ele>37.2541</ele>
				<time>2025-07-03T15:26:04.000000Z</time>
			</trkpt>
			<trkpt lat="16.426823498644914" lon="-86.30655784448061">
				<ele>38.5766</ele>
				<time>2025-07-03T15:26:05.000000Z</time>
			</trkpt>
			<trkpt lat="16.426792715305993" lon="-86.30663249814326">
				<ele>39.7079</ele>
				<time>2025-07-03T15:26:06.000000Z</time>
			</trkpt>
			<trkpt lat="16.426759471094126" lon="-86.30670567867055">
				<ele>40.7411</ele>
				<time>2025-07-03T15:26:07.000000Z</time>
			</trkpt>
			<trkpt lat="16.42672248469062" lon="-86.30677368429758">
				<ele>41.8954</ele>
				<time>2025-07-03T15:26:08.000000Z</time>
			</trkpt>
			<trkpt lat="16.42669083902123" lon="-86.30682758337366">
				<ele>43.2262</ele>
				<time>2025-07-03T15:26:09.000000Z</time>
			</trkpt>
			<trkpt lat="16.426649040891842" lon="-86.30691076034707">
				<ele>44.9412</ele>
				<time>2025-07-03T15:26:10.000000Z</time>
			</trkpt>
			<trkpt lat="16.42663338572787" lon="-86.30698089639563">
				<ele>46.0481</ele>
				<time>2025-07-03T15:26:11.000000Z</time>
			</trkpt>
			<trkpt lat="16.42663693233388" lon="-86.307051819866">
				<ele>47.1603</ele>
				<time>2025-07-03T15:26:12.000000Z</time>
			</trkpt>
			<trkpt lat="16.426653525330188" lon="-86.3071238528275">
				<ele>48.4029</ele>
				<time>2025-07-03T15:26:13.000000Z</time>
			</trkpt>
			<trkpt lat="16.426681139289457" lon="-86.30719120297269">
				<ele>49.3378</ele>
				<time>2025-07-03T15:26:14.000000Z</time>
			</trkpt>
			<trkpt lat="16.426708431539474" lon="-86.30725702797534">
				<ele>49.733</ele>
				<time>2025-07-03T15:26:15.000000Z</time>
			</trkpt>
			<trkpt lat="16.426728426797116" lon="-86.30731855016076">
				<ele>50.1525</ele>
				<time>2025-07-03T15:26:16.000000Z</time>
			</trkpt>
			<trkpt lat="16.4267423453391" lon="-86.30739008338308">
				<ele>50.5572</ele>
				<time>2025-07-03T15:26:17.000000Z</time>
			</trkpt>
			<trkpt lat="16.42674601208738" lon="-86.3074550644966">
				<ele>50.5954</ele>
				<time>2025-07-03T15:26:18.000000Z</time>
			</trkpt>
			<trkpt lat="16.426744933512147" lon="-86.30752573423125">
				<ele>50.5523</ele>
				<time>2025-07-03T15:26:19.000000Z</time>
			</trkpt>
			<trkpt lat="16.42673574763115" lon="-86.3076034015235">
				<ele>49.2979</ele>
				<time>2025-07-03T15:26:20.000000Z</time>
			</trkpt>
			<trkpt lat="16.42671941824505" lon="-86.30768188421172">
				<ele>48.4541</ele>
				<time>2025-07-03T15:26:21.000000Z</time>
			</trkpt>
			<trkpt lat="16.426695058338293" lon="-86.3077529681284">
				<ele>48.5421</ele>
				<time>2025-07-03T15:26:22.000000Z</time>
			</trkpt>
			<trkpt lat="16.42667196211866" lon="-86.30781267174848">
				<ele>48.7488</ele>
				<time>2025-07-03T15:26:23.000000Z</time>
			</trkpt>
			<trkpt lat="16.426653294878946" lon="-86.3078545450494">
				<ele>48.7845</ele>
				<time>2025-07-03T15:26:24.000000Z</time>
			</trkpt>
			<trkpt lat="16.426637338631313" lon="-86.30788441682638">
				<ele>48.5478</ele>
				<time>2025-07-03T15:26:25.000000Z</time>
			</trkpt>
			<trkpt lat="16.42662080933673" lon="-86.30791065024644">
				<ele>47.8994</ele>
				<time>2025-07-03T15:26:26.000000Z</time>
			</trkpt>
			<trkpt lat="16.42660169744619" lon="-86.30794141334356">
				<ele>47.4161</ele>
				<time>2025-07-03T15:26:27.000000Z</time>
			</trkpt>
			<trkpt lat="16.42657898403166" lon="-86.30797617473922">
				<ele>47.0759</ele>
				<time>2025-07-03T15:26:28.000000Z</time>
			</trkpt>
			<trkpt lat="16.42654409836546" lon="-86.30802752504262">
				<ele>46.7613</ele>
				<time>2025-07-03T15:26:29.000000Z</time>
			</trkpt>
			<trkpt lat="16.426510802467973" lon="-86.30808253656">
				<ele>46.6125</ele>
				<time>2025-07-03T15:26:30.000000Z</time>
			</trkpt>
			<trkpt lat="16.42647947655286" lon="-86.30814491240406">
				<ele>46.6387</ele>
				<time>2025-07-03T15:26:31.000000Z</time>
			</trkpt>
			<trkpt lat="16.426454707026043" lon="-86.30822185300747">
				<ele>46.5131</ele>
				<time>2025-07-03T15:26:32.000000Z</time>
			</trkpt>
			<trkpt lat="16.426442626594476" lon="-86.30829820152411">
				<ele>46.0582</ele>
				<time>2025-07-03T15:26:33.000000Z</time>
			</trkpt>
			<trkpt lat="16.426434022309248" lon="-86.30837325263258">
				<ele>45.6978</ele>
				<time>2025-07-03T15:26:34.000000Z</time>
			</trkpt>
			<trkpt lat="16.426423081415493" lon="-86.30845054579669">
				<ele>45.2703</ele>
				<time>2025-07-03T15:26:35.000000Z</time>
			</trkpt>
			<trkpt lat="16.42640290252799" lon="-86.30853256125573">
				<ele>44.6099</ele>
				<time>2025-07-03T15:26:36.000000Z</time>
			</trkpt>
			<trkpt lat="16.426367506173694" lon="-86.30861275480848">
				<ele>43.9308</ele>
				<time>2025-07-03T15:26:37.000000Z</time>
			</trkpt>
			<trkpt lat="16.426317992911994" lon="-86.30869202844615">
				<ele>43.1741</ele>
				<time>2025-07-03T15:26:38.000000Z</time>
			</trkpt>
			<trkpt lat="16.4262657332101" lon="-86.308769106641">
				<ele>42.7911</ele>
				<time>2025-07-03T15:26:39.000000Z</time>
			</trkpt>
			<trkpt lat="16.426211101235126" lon="-86.30884848321638">
				<ele>42.6092</ele>
				<time>2025-07-03T15:26:40.000000Z</time>
			</trkpt>
			<trkpt lat="16.426155567273717" lon="-86.3089274296126">
				<ele>42.4692</ele>
				<time>2025-07-03T15:26:41.000000Z</time>
			</trkpt>
			<trkpt lat="16.426093015968306" lon="-86.30900636380981">
				<ele>42.1632</ele>
				<time>2025-07-03T15:26:42.000000Z</time>
			</trkpt>
			<trkpt lat="16.426024850195887" lon="-86.30907179990496">
				<ele>41.9644</ele>
				<time>2025-07-03T15:26:43.000000Z</time>
			</trkpt>
			<trkpt lat="16.425949126607804" lon="-86.30912157986866">
				<ele>41.6499</ele>
				<time>2025-07-03T15:26:44.000000Z</time>
			</trkpt>
			<trkpt lat="16.425860615288915" lon="-86.30916201696044">
				<ele>41.3397</ele>
				<time>2025-07-03T15:26:45.000000Z</time>
			</trkpt>
			<trkpt lat="16.42576748399418" lon="-86.30918455009392">
				<ele>41.3449</ele>
				<time>2025-07-03T15:26:46.000000Z</time>
			</trkpt>
			<trkpt lat="16.42568049127994" lon="-86.30918933759291">
				<ele>41.302</ele>
				<time>2025-07-03T15:26:47.000000Z</time>
			</trkpt>
			<trkpt lat="16.42558015112561" lon="-86.30918402814268">
				<ele>41.1922</ele>
				<time>2025-07-03T15:26:48.000000Z</time>
			</trkpt>
			<trkpt lat="16.42548693181622" lon="-86.30917849885051">
				<ele>41.0803</ele>
				<time>2025-07-03T15:26:49.000000Z</time>
			</trkpt>
			<trkpt lat="16.425403942177624" lon="-86.30917593582812">
				<ele>40.7998</ele>
				<time>2025-07-03T15:26:50.000000Z</time>
			</trkpt>
			<trkpt lat="16.42531923616431" lon="-86.30917460109997">
				<ele>40.5619</ele>
				<time>2025-07-03T15:26:51.000000Z</time>
			</trkpt>
			<trkpt lat="16.42525076900129" lon="-86.30917307069122">
				<ele>40.514</ele>
				<time>2025-07-03T15:26:52.000000Z</time>
			</trkpt>
			<trkpt lat="16.425182743889053" lon="-86.30917115126383">
				<ele>40.362</ele>
				<time>2025-07-03T15:26:53.000000Z</time>
			</trkpt>
			<trkpt lat="16.425122694550293" lon="-86.30916983313595">
				<ele>40.1824</ele>
				<time>2025-07-03T15:26:54.000000Z</time>
			</trkpt>
			<trkpt lat="16.42506378101471" lon="-86.3091740763513">
				<ele>39.8415</ele>
				<time>2025-07-03T15:26:55.000000Z</time>
			</trkpt>
			<trkpt lat="16.425010022528795" lon="-86.30918787610767">
				<ele>39.5402</ele>
				<time>2025-07-03T15:26:56.000000Z</time>
			</trkpt>
			<trkpt lat="16.424963411613568" lon="-86.30920621609485">
				<ele>38.9841</ele>
				<time>2025-07-03T15:26:57.000000Z</time>
			</trkpt>
			<trkpt lat="16.424913996278686" lon="-86.30922697842041">
				<ele>38.2404</ele>
				<time>2025-07-03T15:26:58.000000Z</time>
			</trkpt>
			<trkpt lat="16.424867470465355" lon="-86.30924999369007">
				<ele>37.6354</ele>
				<time>2025-07-03T15:26:59.000000Z</time>
			</trkpt>
			<trkpt lat="16.424824057737503" lon="-86.30927371706973">
				<ele>37.0722</ele>
				<time>2025-07-03T15:27:00.000000Z</time>
			</trkpt>
			<trkpt lat="16.424781684152176" lon="-86.30929667056203">
				<ele>36.3437</ele>
				<time>2025-07-03T15:27:01.000000Z</time>
			</trkpt>
			<trkpt lat="16.424741065662968" lon="-86.30931789056042">
				<ele>35.4943</ele>
				<time>2025-07-03T15:27:02.000000Z</time>
			</trkpt>
			<trkpt lat="16.42469897726365" lon="-86.30933819361543">
				<ele>34.7737</ele>
				<time>2025-07-03T15:27:03.000000Z</time>
			</trkpt>
			<trkpt lat="16.42465766251037" lon="-86.30935612475237">
				<ele>34.034</ele>
				<time>2025-07-03T15:27:04.000000Z</time>
			</trkpt>
			<trkpt lat="16.42461190773812" lon="-86.30937686160397">
				<ele>33.2841</ele>
				<time>2025-07-03T15:27:05.000000Z</time>
			</trkpt>
			<trkpt lat="16.424567450078833" lon="-86.3093973212448">
				<ele>32.5308</ele>
				<time>2025-07-03T15:27:06.000000Z</time>
			</trkpt>
			<trkpt lat="16.42451559947112" lon="-86.30941769889849">
				<ele>31.7628</ele>
				<time>2025-07-03T15:27:07.000000Z</time>
			</trkpt>
			<trkpt lat="16.4244627241611" lon="-86.30943406085586">
				<ele>31.185</ele>
				<time>2025-07-03T15:27:08.000000Z</time>
			</trkpt>
			<trkpt lat="16.424412555964324" lon="-86.30945218881934">
				<ele>30.5185</ele>
				<time>2025-07-03T15:27:09.000000Z</time>
			</trkpt>
			<trkpt lat="16.42437183711601" lon="-86.30946406164807">
				<ele>30.0035</ele>
				<time>2025-07-03T15:27:10.000000Z</time>
			</trkpt>
			<trkpt lat="16.424320113402246" lon="-86.30947561498448">
				<ele>29.3938</ele>
				<time>2025-07-03T15:27:11.000000Z</time>
			</trkpt>
			<trkpt lat="16.424262600317462" lon="-86.3094842173867">
				<ele>28.5691</ele>
				<time>2025-07-03T15:27:12.000000Z</time>
			</trkpt>
			<trkpt lat="16.42421082698689" lon="-86.309487840129">
				<ele>27.873</ele>
				<time>2025-07-03T15:27:13.000000Z</time>
			</trkpt>
			<trkpt lat="16.42416176962428" lon="-86.30949014865196">
				<ele>27.3897</ele>
				<time>2025-07-03T15:27:14.000000Z</time>
			</trkpt>
			<trkpt lat="16.424121253416207" lon="-86.3094918480106">
				<ele>27.0349</ele>
				<time>2025-07-03T15:27:15.000000Z</time>
			</trkpt>
			<trkpt lat="16.424078686719376" lon="-86.3094945464578">
				<ele>26.5141</ele>
				<time>2025-07-03T15:27:16.000000Z</time>
			</trkpt>
			<trkpt lat="16.42404068566078" lon="-86.30950127299676">
				<ele>25.9783</ele>
				<time>2025-07-03T15:27:17.000000Z</time>
			</trkpt>
			<trkpt lat="16.424004137861317" lon="-86.30951521351832">
				<ele>25.5437</ele>
				<time>2025-07-03T15:27:18.000000Z</time>
			</trkpt>
			<trkpt lat="16.423966216729077" lon="-86.30953973448588">
				<ele>25.2566</ele>
				<time>2025-07-03T15:27:19.000000Z</time>
			</trkpt>
			<trkpt lat="16.423936525344796" lon="-86.30957460814473">
				<ele>25.2293</ele>
				<time>2025-07-03T15:27:20.000000Z</time>
			</trkpt>
			<trkpt lat="16.423923072779942" lon="-86.30962211681609">
				<ele>25.9021</ele>
				<time>2025-07-03T15:27:21.000000Z</time>
			</trkpt>
			<trkpt lat="16.42392994700511" lon="-86.30968463787217">
				<ele>26.7437</ele>
				<time>2025-07-03T15:27:22.000000Z</time>
			</trkpt>
			<trkpt lat="16.423945739724314" lon="-86.30972854538409">
				<ele>26.7238</ele>
				<time>2025-07-03T15:27:23.000000Z</time>
			</trkpt>
			<trkpt lat="16.423968204868988" lon="-86.30976286193307">
				<ele>26.3288</ele>
				<time>2025-07-03T15:27:24.000000Z</time>
			</trkpt>
			<trkpt lat="16.42399795786907" lon="-86.3097926059266">
				<ele>25.9094</ele>
				<time>2025-07-03T15:27:25.000000Z</time>
			</trkpt>
			<trkpt lat="16.424031357040906" lon="-86.30981589326012">
				<ele>25.8413</ele>
				<time>2025-07-03T15:27:26.000000Z</time>
			</trkpt>
			<trkpt lat="16.424073452552044" lon="-86.30984815731327">
				<ele>25.7062</ele>
				<time>2025-07-03T15:27:27.000000Z</time>
			</trkpt>
			<trkpt lat="16.424116117578404" lon="-86.30988192420253">
				<ele>25.6838</ele>
				<time>2025-07-03T15:27:28.000000Z</time>
			</trkpt>
			<trkpt lat="16.42415723590941" lon="-86.30991347191612">
				<ele>25.8394</ele>
				<time>2025-07-03T15:27:29.000000Z</time>
			</trkpt>
			<trkpt lat="16.424205684321333" lon="-86.3099514267376">
				<ele>25.8654</ele>
				<time>2025-07-03T15:27:30.000000Z</time>
			</trkpt>
			<trkpt lat="16.424260662274104" lon="-86.30999485435684">
				<ele>25.883</ele>
				<time>2025-07-03T15:27:31.000000Z</time>
			</trkpt>
			<trkpt lat="16.424311487889643" lon="-86.31003295842467">
				<ele>25.9904</ele>
				<time>2025-07-03T15:27:32.000000Z</time>
			</trkpt>
			<trkpt lat="16.424357541673828" lon="-86.31006697555954">
				<ele>26.0104</ele>
				<time>2025-07-03T15:27:33.000000Z</time>
			</trkpt>
			<trkpt lat="16.424415186262095" lon="-86.31010762276892">
				<ele>26.1572</ele>
				<time>2025-07-03T15:27:34.000000Z</time>
			</trkpt>
			<trkpt lat="16.424476378211452" lon="-86.31014336685897">
				<ele>26.3501</ele>
				<time>2025-07-03T15:27:35.000000Z</time>
			</trkpt>
			<trkpt lat="16.424539233568446" lon="-86.31017439235808">
				<ele>26.5354</ele>
				<time>2025-07-03T15:27:36.000000Z</time>
			</trkpt>
			<trkpt lat="16.42460262053987" lon="-86.31020181699698">
				<ele>26.55</ele>
				<time>2025-07-03T15:27:37.000000Z</time>
			</trkpt>
			<trkpt lat="16.424681328601846" lon="-86.31023385030363">
				<ele>26.5368</ele>
				<time>2025-07-03T15:27:38.000000Z</time>
			</trkpt>
			<trkpt lat="16.424750740880565" lon="-86.31026151213668">
				<ele>26.7195</ele>
				<time>2025-07-03T15:27:39.000000Z</time>
			</trkpt>
			<trkpt lat="16.424822023008115" lon="-86.31029137836325">
				<ele>26.6142</ele>
				<time>2025-07-03T15:27:40.000000Z</time>
			</trkpt>
			<trkpt lat="16.424888356752362" lon="-86.31031992126049">
				<ele>26.4921</ele>
				<time>2025-07-03T15:27:41.000000Z</time>
			</trkpt>
			<trkpt lat="16.424951501321686" lon="-86.31034718616789">
				<ele>26.2737</ele>
				<time>2025-07-03T15:27:42.000000Z</time>
			</trkpt>
			<trkpt lat="16.42500839933805" lon="-86.31037256462592">
				<ele>26.0122</ele>
				<time>2025-07-03T15:27:43.000000Z</time>
			</trkpt>
			<trkpt lat="16.425060992929183" lon="-86.31039704418716">
				<ele>25.5316</ele>
				<time>2025-07-03T15:27:44.000000Z</time>
			</trkpt>
			<trkpt lat="16.425108271907916" lon="-86.31042044699636">
				<ele>25.3247</ele>
				<time>2025-07-03T15:27:45.000000Z</time>
			</trkpt>
			<trkpt lat="16.425159304502294" lon="-86.31044857856665">
				<ele>25.1918</ele>
				<time>2025-07-03T15:27:46.000000Z</time>
			</trkpt>
			<trkpt lat="16.425195066518725" lon="-86.31048060201132">
				<ele>25.0128</ele>
				<time>2025-07-03T15:27:47.000000Z</time>
			</trkpt>
			<trkpt lat="16.425219606030673" lon="-86.31052079945026">
				<ele>24.4825</ele>
				<time>2025-07-03T15:27:48.000000Z</time>
			</trkpt>
			<trkpt lat="16.425235129289064" lon="-86.31058169802934">
				<ele>23.9117</ele>
				<time>2025-07-03T15:27:49.000000Z</time>
			</trkpt>
			<trkpt lat="16.425233360453568" lon="-86.31063980893705">
				<ele>23.5514</ele>
				<time>2025-07-03T15:27:50.000000Z</time>
			</trkpt>
			<trkpt lat="16.425213897767726" lon="-86.31070034861041">
				<ele>23.3971</ele>
				<time>2025-07-03T15:27:51.000000Z</time>
			</trkpt>
			<trkpt lat="16.425179062360318" lon="-86.31075880172494">
				<ele>23.2258</ele>
				<time>2025-07-03T15:27:52.000000Z</time>
			</trkpt>
			<trkpt lat="16.425136387950115" lon="-86.31081121858747">
				<ele>22.8148</ele>
				<time>2025-07-03T15:27:53.000000Z</time>
			</trkpt>
			<trkpt lat="16.425094009834332" lon="-86.31085119582298">
				<ele>22.4803</ele>
				<time>2025-07-03T15:27:54.000000Z</time>
			</trkpt>
			<trkpt lat="16.425050359858666" lon="-86.31089335208988">
				<ele>22.2384</ele>
				<time>2025-07-03T15:27:55.000000Z</time>
			</trkpt>
			<trkpt lat="16.42502261396422" lon="-86.3109308318106">
				<ele>22.0721</ele>
				<time>2025-07-03T15:27:56.000000Z</time>
			</trkpt>
			<trkpt lat="16.425003723481677" lon="-86.31097692806063">
				<ele>21.7302</ele>
				<time>2025-07-03T15:27:57.000000Z</time>
			</trkpt>
			<trkpt lat="16.42499750592803" lon="-86.31101757078814">
				<ele>21.3753</ele>
				<time>2025-07-03T15:27:58.000000Z</time>
			</trkpt>
			<trkpt lat="16.42499893794198" lon="-86.31107352672602">
				<ele>21.0829</ele>
				<time>2025-07-03T15:27:59.000000Z</time>
			</trkpt>
			<trkpt lat="16.42501508773846" lon="-86.31112702475613">
				<ele>20.558</ele>
				<time>2025-07-03T15:28:00.000000Z</time>
			</trkpt>
			<trkpt lat="16.425038387411185" lon="-86.3111738766862">
				<ele>20.4507</ele>
				<time>2025-07-03T15:28:01.000000Z</time>
			</trkpt>
			<trkpt lat="16.425059951533598" lon="-86.31121934097952">
				<ele>20.2261</ele>
				<time>2025-07-03T15:28:02.000000Z</time>
			</trkpt>
			<trkpt lat="16.42508392439569" lon="-86.31127574913656">
				<ele>20.137</ele>
				<time>2025-07-03T15:28:03.000000Z</time>
			</trkpt>
			<trkpt lat="16.425097300993382" lon="-86.31132537322472">
				<ele>19.9798</ele>
				<time>2025-07-03T15:28:04.000000Z</time>
			</trkpt>
			<trkpt lat="16.42509803524282" lon="-86.3113885206745">
				<ele>19.9349</ele>
				<time>2025-07-03T15:28:05.000000Z</time>
			</trkpt>
			<trkpt lat="16.42508209015097" lon="-86.31144600282992">
				<ele>19.8246</ele>
				<time>2025-07-03T15:28:06.000000Z</time>
			</trkpt>
			<trkpt lat="16.425055281868154" lon="-86.31150084540326">
				<ele>19.7673</ele>
				<time>2025-07-03T15:28:07.000000Z</time>
			</trkpt>
			<trkpt lat="16.425015678485316" lon="-86.31156667187558">
				<ele>19.7877</ele>
				<time>2025-07-03T15:28:08.000000Z</time>
			</trkpt>
			<trkpt lat="16.424973824663947" lon="-86.31162461155452">
				<ele>19.8009</ele>
				<time>2025-07-03T15:28:09.000000Z</time>
			</trkpt>
			<trkpt lat="16.424932588123234" lon="-86.31168279715114">
				<ele>19.5777</ele>
				<time>2025-07-03T15:28:10.000000Z</time>
			</trkpt>
			<trkpt lat="16.424895684776715" lon="-86.31175003651906">
				<ele>19.5488</ele>
				<time>2025-07-03T15:28:11.000000Z</time>
			</trkpt>
			<trkpt lat="16.42487372175755" lon="-86.31182265649629">
				<ele>19.803</ele>
				<time>2025-07-03T15:28:12.000000Z</time>
			</trkpt>
			<trkpt lat="16.42486613537315" lon="-86.3118972326098">
				<ele>20.0482</ele>
				<time>2025-07-03T15:28:13.000000Z</time>
			</trkpt>
			<trkpt lat="16.424860638721352" lon="-86.3119747087416">
				<ele>20.2737</ele>
				<time>2025-07-03T15:28:14.000000Z</time>
			</trkpt>
			<trkpt lat="16.424851628331485" lon="-86.31204517321554">
				<ele>20.3464</ele>
				<time>2025-07-03T15:28:15.000000Z</time>
			</trkpt>
			<trkpt lat="16.42483300778288" lon="-86.31211245731383">
				<ele>20.5007</ele>
				<time>2025-07-03T15:28:16.000000Z</time>
			</trkpt>
			<trkpt lat="16.42480445546453" lon="-86.31217272040215">
				<ele>20.7028</ele>
				<time>2025-07-03T15:28:17.000000Z</time>
			</trkpt>
			<trkpt lat="16.424766206752963" lon="-86.312230338708">
				<ele>20.9737</ele>
				<time>2025-07-03T15:28:18.000000Z</time>
			</trkpt>
			<trkpt lat="16.42471924623809" lon="-86.31228291626724">
				<ele>21.1152</ele>
				<time>2025-07-03T15:28:19.000000Z</time>
			</trkpt>
			<trkpt lat="16.424666009435587" lon="-86.31232358261809">
				<ele>21.1404</ele>
				<time>2025-07-03T15:28:20.000000Z</time>
			</trkpt>
			<trkpt lat="16.42460873141793" lon="-86.31235432528159">
				<ele>20.9895</ele>
				<time>2025-07-03T15:28:21.000000Z</time>
			</trkpt>
			<trkpt lat="16.424551050891807" lon="-86.31237418436804">
				<ele>20.8646</ele>
				<time>2025-07-03T15:28:22.000000Z</time>
			</trkpt>
			<trkpt lat="16.42447893693132" lon="-86.31238922307081">
				<ele>20.9896</ele>
				<time>2025-07-03T15:28:23.000000Z</time>
			</trkpt>
			<trkpt lat="16.42442489554967" lon="-86.31239170002705">
				<ele>21.1544</ele>
				<time>2025-07-03T15:28:24.000000Z</time>
			</trkpt>
			<trkpt lat="16.424388180241152" lon="-86.31238891147416">
				<ele>21.3418</ele>
				<time>2025-07-03T15:28:25.000000Z</time>
			</trkpt>
			<trkpt lat="16.424364010270768" lon="-86.31238819657925">
				<ele>21.2438</ele>
				<time>2025-07-03T15:28:26.000000Z</time>
			</trkpt>
			<trkpt lat="16.424344822784317" lon="-86.31238943772858">
				<ele>21.2122</ele>
				<time>2025-07-03T15:28:27.000000Z</time>
			</trkpt>
			<trkpt lat="16.424312483264018" lon="-86.31239125449694">
				<ele>21.1481</ele>
				<time>2025-07-03T15:28:28.000000Z</time>
			</trkpt>
			<trkpt lat="16.424273112404364" lon="-86.31239611588329">
				<ele>21.1235</ele>
				<time>2025-07-03T15:28:29.000000Z</time>
			</trkpt>
			<trkpt lat="16.424219645488964" lon="-86.31240295245541">
				<ele>21.325</ele>
				<time>2025-07-03T15:28:30.000000Z</time>
			</trkpt>
			<trkpt lat="16.42416098591801" lon="-86.31241806173118">
				<ele>21.4497</ele>
				<time>2025-07-03T15:28:31.000000Z</time>
			</trkpt>
			<trkpt lat="16.424100982314346" lon="-86.3124447813452">
				<ele>21.7244</ele>
				<time>2025-07-03T15:28:32.000000Z</time>
			</trkpt>
			<trkpt lat="16.4240516187245" lon="-86.31247724884089">
				<ele>21.9942</ele>
				<time>2025-07-03T15:28:33.000000Z</time>
			</trkpt>
			<trkpt lat="16.424014286745713" lon="-86.31250918361584">
				<ele>21.7646</ele>
				<time>2025-07-03T15:28:34.000000Z</time>
			</trkpt>
			<trkpt lat="16.423979010954085" lon="-86.31254816485828">
				<ele>21.5039</ele>
				<time>2025-07-03T15:28:35.000000Z</time>
			</trkpt>
			<trkpt lat="16.423949007056894" lon="-86.31258754954253">
				<ele>21.4444</ele>
				<time>2025-07-03T15:28:36.000000Z</time>
			</trkpt>
			<trkpt lat="16.423924583220437" lon="-86.31262318847546">
				<ele>21.5629</ele>
				<time>2025-07-03T15:28:37.000000Z</time>
			</trkpt>
			<trkpt lat="16.423899735252057" lon="-86.31266453144626">
				<ele>21.8829</ele>
				<time>2025-07-03T15:28:38.000000Z</time>
			</trkpt>
			<trkpt lat="16.42387946056627" lon="-86.31269900778527">
				<ele>22.1671</ele>
				<time>2025-07-03T15:28:39.000000Z</time>
			</trkpt>
			<trkpt lat="16.423861420134873" lon="-86.3127333661541">
				<ele>22.3595</ele>
				<time>2025-07-03T15:28:40.000000Z</time>
			</trkpt>
			<trkpt lat="16.42384169679349" lon="-86.31276515708376">
				<ele>22.2428</ele>
				<time>2025-07-03T15:28:41.000000Z</time>
			</trkpt>
			<trkpt lat="16.42382286604292" lon="-86.31280024143605">
				<ele>22.3044</ele>
				<time>2025-07-03T15:28:42.000000Z</time>
			</trkpt>
			<trkpt lat="16.423801372495863" lon="-86.3128370022249">
				<ele>22.3037</ele>
				<time>2025-07-03T15:28:43.000000Z</time>
			</trkpt>
			<trkpt lat="16.42377877033057" lon="-86.31287555403091">
				<ele>22.1775</ele>
				<time>2025-07-03T15:28:44.000000Z</time>
			</trkpt>
			<trkpt lat="16.423760068197172" lon="-86.31291663413458">
				<ele>22.3577</ele>
				<time>2025-07-03T15:28:45.000000Z</time>
			</trkpt>
			<trkpt lat="16.423741960547655" lon="-86.3129599287208">
				<ele>22.2368</ele>
				<time>2025-07-03T15:28:46.000000Z</time>
			</trkpt>
			<trkpt lat="16.42372497938046" lon="-86.31300416580119">
				<ele>22.2289</ele>
				<time>2025-07-03T15:28:47.000000Z</time>
			</trkpt>
			<trkpt lat="16.423708111822975" lon="-86.31304645752309">
				<ele>22.4305</ele>
				<time>2025-07-03T15:28:48.000000Z</time>
			</trkpt>
			<trkpt lat="16.42368655006787" lon="-86.31309530448678">
				<ele>22.4101</ele>
				<time>2025-07-03T15:28:49.000000Z</time>
			</trkpt>
			<trkpt lat="16.42366084016435" lon="-86.31315620185413">
				<ele>22.2952</ele>
				<time>2025-07-03T15:28:50.000000Z</time>
			</trkpt>
			<trkpt lat="16.423630429801715" lon="-86.31322828598519">
				<ele>22.162</ele>
				<time>2025-07-03T15:28:51.000000Z</time>
			</trkpt>
			<trkpt lat="16.42359892016825" lon="-86.3133058819979">
				<ele>22.0669</ele>
				<time>2025-07-03T15:28:52.000000Z</time>
			</trkpt>
			<trkpt lat="16.42356443909396" lon="-86.31339161949946">
				<ele>22.0872</ele>
				<time>2025-07-03T15:28:53.000000Z</time>
			</trkpt>
			<trkpt lat="16.42352702294503" lon="-86.31348358105375">
				<ele>22.065</ele>
				<time>2025-07-03T15:28:54.000000Z</time>
			</trkpt>
			<trkpt lat="16.423489587929147" lon="-86.31357547985078">
				<ele>22.1114</ele>
				<time>2025-07-03T15:28:55.000000Z</time>
			</trkpt>
			<trkpt lat="16.423455453297233" lon="-86.31365815188765">
				<ele>22.1046</ele>
				<time>2025-07-03T15:28:56.000000Z</time>
			</trkpt>
			<trkpt lat="16.423412218238273" lon="-86.31376091650553">
				<ele>21.9915</ele>
				<time>2025-07-03T15:28:57.000000Z</time>
			</trkpt>
			<trkpt lat="16.42337108525836" lon="-86.31385057293937">
				<ele>21.8319</ele>
				<time>2025-07-03T15:28:58.000000Z</time>
			</trkpt>
			<trkpt lat="16.423328465663865" lon="-86.31394048810878">
				<ele>21.6923</ele>
				<time>2025-07-03T15:28:59.000000Z</time>
			</trkpt>
			<trkpt lat="16.423282138721014" lon="-86.31402825561197">
				<ele>21.4748</ele>
				<time>2025-07-03T15:29:00.000000Z</time>
			</trkpt>
			<trkpt lat="16.423225540799503" lon="-86.31410985420212">
				<ele>21.3883</ele>
				<time>2025-07-03T15:29:01.000000Z</time>
			</trkpt>
			<trkpt lat="16.423161801105444" lon="-86.31417419501071">
				<ele>21.3708</ele>
				<time>2025-07-03T15:29:02.000000Z</time>
			</trkpt>
			<trkpt lat="16.42308048241201" lon="-86.31423152385024">
				<ele>21.3923</ele>
				<time>2025-07-03T15:29:03.000000Z</time>
			</trkpt>
			<trkpt lat="16.422984665293278" lon="-86.31427743857427">
				<ele>21.4885</ele>
				<time>2025-07-03T15:29:04.000000Z</time>
			</trkpt>
			<trkpt lat="16.42288755428307" lon="-86.3143146774039">
				<ele>21.3289</ele>
				<time>2025-07-03T15:29:05.000000Z</time>
			</trkpt>
			<trkpt lat="16.42279807492936" lon="-86.314347813256">
				<ele>21.1815</ele>
				<time>2025-07-03T15:29:06.000000Z</time>
			</trkpt>
			<trkpt lat="16.422700460391145" lon="-86.31438492131528">
				<ele>20.9948</ele>
				<time>2025-07-03T15:29:07.000000Z</time>
			</trkpt>
			<trkpt lat="16.422600865834596" lon="-86.31442348047634">
				<ele>20.948</ele>
				<time>2025-07-03T15:29:08.000000Z</time>
			</trkpt>
			<trkpt lat="16.42250891908923" lon="-86.31445862777836">
				<ele>21.091</ele>
				<time>2025-07-03T15:29:09.000000Z</time>
			</trkpt>
			<trkpt lat="16.42241986855189" lon="-86.31449290997949">
				<ele>21.1219</ele>
				<time>2025-07-03T15:29:10.000000Z</time>
			</trkpt>
			<trkpt lat="16.422326021537792" lon="-86.31453174919596">
				<ele>21.067</ele>
				<time>2025-07-03T15:29:11.000000Z</time>
			</trkpt>
			<trkpt lat="16.422235773336492" lon="-86.31457205850457">
				<ele>20.9512</ele>
				<time>2025-07-03T15:29:12.000000Z</time>
			</trkpt>
			<trkpt lat="16.422155477914824" lon="-86.3146111800829">
				<ele>20.9648</ele>
				<time>2025-07-03T15:29:13.000000Z</time>
			</trkpt>
			<trkpt lat="16.422087936756327" lon="-86.31464444280999">
				<ele>20.8929</ele>
				<time>2025-07-03T15:29:14.000000Z</time>
			</trkpt>
			<trkpt lat="16.42199974367889" lon="-86.3146896905836">
				<ele>20.8905</ele>
				<time>2025-07-03T15:29:15.000000Z</time>
			</trkpt>
			<trkpt lat="16.421934915665744" lon="-86.31472211193034">
				<ele>20.8265</ele>
				<time>2025-07-03T15:29:16.000000Z</time>
			</trkpt>
			<trkpt lat="16.421857481743366" lon="-86.31476010309959">
				<ele>20.8964</ele>
				<time>2025-07-03T15:29:17.000000Z</time>
			</trkpt>
			<trkpt lat="16.421784513121754" lon="-86.31479807994717">
				<ele>20.7837</ele>
				<time>2025-07-03T15:29:18.000000Z</time>
			</trkpt>
			<trkpt lat="16.421724611816916" lon="-86.3148295830107">
				<ele>20.7881</ele>
				<time>2025-07-03T15:29:19.000000Z</time>
			</trkpt>
			<trkpt lat="16.42165984334619" lon="-86.31486497011802">
				<ele>20.7976</ele>
				<time>2025-07-03T15:29:20.000000Z</time>
			</trkpt>
			<trkpt lat="16.42159120984046" lon="-86.31490090295813">
				<ele>20.8008</ele>
				<time>2025-07-03T15:29:21.000000Z</time>
			</trkpt>
			<trkpt lat="16.42153731435971" lon="-86.31493048556337">
				<ele>20.9915</ele>
				<time>2025-07-03T15:29:22.000000Z</time>
			</trkpt>
			<trkpt lat="16.421489223426406" lon="-86.31495685541718">
				<ele>21.0369</ele>
				<time>2025-07-03T15:29:23.000000Z</time>
			</trkpt>
			<trkpt lat="16.42144939536857" lon="-86.31497756484413">
				<ele>21.076</ele>
				<time>2025-07-03T15:29:24.000000Z</time>
			</trkpt>
			<trkpt lat="16.42141845457995" lon="-86.31499394035193">
				<ele>21.2439</ele>
				<time>2025-07-03T15:29:25.000000Z</time>
			</trkpt>
			<trkpt lat="16.421398963802126" lon="-86.31500505463946">
				<ele>21.2136</ele>
				<time>2025-07-03T15:29:26.000000Z</time>
			</trkpt>
			<trkpt lat="16.421384845900366" lon="-86.31501363097806">
				<ele>21.0474</ele>
				<time>2025-07-03T15:29:27.000000Z</time>
			</trkpt>
			<trkpt lat="16.42137296543892" lon="-86.31502033909806">
				<ele>20.8396</ele>
				<time>2025-07-03T15:29:28.000000Z</time>
			</trkpt>
			<trkpt lat="16.421365999640205" lon="-86.3150215973098">
				<ele>20.873</ele>
				<time>2025-07-03T15:29:29.000000Z</time>
			</trkpt>
			<trkpt lat="16.421366889647494" lon="-86.31502035618986">
				<ele>20.9003</ele>
				<time>2025-07-03T15:29:30.000000Z</time>
			</trkpt>
			<trkpt lat="16.421368279900825" lon="-86.31501984137392">
				<ele>20.9022</ele>
				<time>2025-07-03T15:29:31.000000Z</time>
			</trkpt>
			<trkpt lat="16.421368444965747" lon="-86.31501993353541">
				<ele>20.9005</ele>
				<time>2025-07-03T15:29:32.000000Z</time>
			</trkpt>
			<trkpt lat="16.42136836163177" lon="-86.31502000135832">
				<ele>20.8999</ele>
				<time>2025-07-03T15:29:33.000000Z</time>
			</trkpt>
			<trkpt lat="16.42136833017625" lon="-86.31502000600436">
				<ele>20.8999</ele>
				<time>2025-07-03T15:29:34.000000Z</time>
			</trkpt>
			<trkpt lat="16.421368330431537" lon="-86.31502000078677">
				<ele>20.9</ele>
				<time>2025-07-03T15:29:35.000000Z</time>
			</trkpt>
			<trkpt lat="16.421368333030014" lon="-86.31501999971144">
				<ele>20.9</ele>
				<time>2025-07-03T15:29:36.000000Z</time>
			</trkpt>
			<trkpt lat="16.421368333547743" lon="-86.31501999986484">
				<ele>20.9</ele>
				<time>2025-07-03T15:29:37.000000Z</time>
			</trkpt>
			<trkpt lat="16.421368333407905" lon="-86.3150199999941">
				<ele>20.9</ele>
				<time>2025-07-03T15:29:38.000000Z</time>
			</trkpt>
			<trkpt lat="16.42136833333142" lon="-86.3150200000125">
				<ele>20.9</ele>
				<time>2025-07-03T15:29:39.000000Z</time>
			</trkpt>
			<trkpt lat="16.42136833332503" lon="-86.31502000000404">
				<ele>20.9</ele>
				<time>2025-07-03T15:29:40.000000Z</time>
			</trkpt>
			<trkpt lat="16.421368333331255" lon="-86.3150199999998">
				<ele>20.9</ele>
				<time>2025-07-03T15:29:41.000000Z</time>
			</trkpt>
			<trkpt lat="16.421368333333625" lon="-86.31501999999954">
				<ele>20.9</ele>
				<time>2025-07-03T15:29:42.000000Z</time>
			</trkpt>
			<trkpt lat="16.42136833333359" lon="-86.31501999999993">
				<ele>20.9</ele>
				<time>2025-07-03T15:29:43.000000Z</time>
			</trkpt>
			<trkpt lat="16.421368333333366" lon="-86.31502000000005">
				<ele>20.9</ele>
				<time>2025-07-03T15:29:44.000000Z</time>
			</trkpt>
			<trkpt lat="16.42136833333331" lon="-86.31502000000003">
				<ele>20.9</ele>
				<time>2025-07-03T15:29:45.000000Z</time>
			</trkpt>
			<trkpt lat="16.421368333333323" lon="-86.31501999999999">
				<ele>20.9</ele>
				<time>2025-07-03T15:29:46.000000Z</time>
			</trkpt>
			<trkpt lat="16.421368333333337" lon="-86.31501999999998">
				<ele>20.9</ele>
				<time>2025-07-03T15:29:47.000000Z</time>
			</trkpt>
			<trkpt lat="16.421368333333337" lon="-86.31501999999998">
				<ele>20.9</ele>
				<time>2025-07-03T15:29:48.000000Z</time>
			</trkpt>
			<trkpt lat="16.421368333333334" lon="-86.31502000000003">
				<ele>20.9</ele>
				<time>2025-07-03T15:29:49.000000Z</time>
			</trkpt>
			<trkpt lat="16.421368333333323" lon="-86.31502000000003">
				<ele>20.9</ele>
				<time>2025-07-03T15:29:50.000000Z</time>
			</trkpt>
			<trkpt lat="16.421368333333323" lon="-86.31502">
				<ele>20.9</ele>
				<time>2025-07-03T15:29:51.000000Z</time>
			</trkpt>
			<trkpt lat="16.421368333333337" lon="-86.31501999999998">
				<ele>20.9</ele>
				<time>2025-07-03T15:29:52.000000Z</time>
			</trkpt>
			<trkpt lat="16.421368333333337" lon="-86.31501999999998">
				<ele>20.9</ele>
				<time>2025-07-03T15:29:53.000000Z</time>
			</trkpt>
			<trkpt lat="16.421368333333323" lon="-86.31502000000003">
				<ele>20.9</ele>
				<time>2025-07-03T15:29:54.000000Z</time>
			</trkpt>
			<trkpt lat="16.421368333333323" lon="-86.31502000000003">
				<ele>20.9</ele>
				<time>2025-07-03T15:29:55.000000Z</time>
			</trkpt>
			<trkpt lat="16.421368333333337" lon="-86.31501999999998">
				<ele>20.9</ele>
				<time>2025-07-03T15:29:56.000000Z</time>
			</trkpt>
			<trkpt lat="16.421368333333337" lon="-86.31501999999998">
				<ele>20.9</ele>
				<time>2025-07-03T15:29:57.000000Z</time>
			</trkpt>
			<trkpt lat="16.421368333333323" lon="-86.31502000000003">
				<ele>20.9</ele>
				<time>2025-07-03T15:29:58.000000Z</time>
			</trkpt>
			<trkpt lat="16.421368333333323" lon="-86.31502000000003">
				<ele>20.9</ele>
				<time>2025-07-03T15:29:59.000000Z</time>
			</trkpt>
			<trkpt lat="16.421368333333337" lon="-86.31501999999998">
				<ele>20.9</ele>
				<time>2025-07-03T15:30:00.000000Z</time>
			</trkpt>
			<trkpt lat="16.421368333333337" lon="-86.31501999999998">
				<ele>20.9</ele>
				<time>2025-07-03T15:30:01.000000Z</time>
			</trkpt>
			<trkpt lat="16.421368333333323" lon="-86.31502000000003">
				<ele>20.9</ele>
				<time>2025-07-03T15:30:02.000000Z</time>
			</trkpt>
			<trkpt lat="16.421368333333323" lon="-86.31502000000003">
				<ele>20.9</ele>
				<time>2025-07-03T15:30:03.000000Z</time>
			</trkpt>
			<trkpt lat="16.421368333333337" lon="-86.31501999999999">
				<ele>20.9</ele>
				<time>2025-07-03T15:30:04.000000Z</time>
			</trkpt>
			<trkpt lat="16.421368333333337" lon="-86.31501999999998">
				<ele>20.9</ele>
				<time>2025-07-03T15:30:05.000000Z</time>
			</trkpt>
			<trkpt lat="16.421368333333323" lon="-86.31502">
				<ele>20.9</ele>
				<time>2025-07-03T15:30:06.000000Z</time>
			</trkpt>
			<trkpt lat="16.421368333333323" lon="-86.31502000000003">
				<ele>20.9</ele>
				<time>2025-07-03T15:30:07.000000Z</time>
			</trkpt>
			<trkpt lat="16.421368333333334" lon="-86.31502000000003">
				<ele>20.9</ele>
				<time>2025-07-03T15:30:08.000000Z</time>
			</trkpt>
			<trkpt lat="16.421368333333337" lon="-86.31501999999998">
				<ele>20.9</ele>
				<time>2025-07-03T15:30:09.000000Z</time>
			</trkpt>
			<trkpt lat="16.42136833333333" lon="-86.31501999999998">
				<ele>20.9</ele>
				<time>2025-07-03T15:30:10.000000Z</time>
			</trkpt>
			<trkpt lat="16.421368333333323" lon="-86.31502000000003">
				<ele>20.9</ele>
				<time>2025-07-03T15:30:11.000000Z</time>
			</trkpt>
			<trkpt lat="16.421368333333326" lon="-86.31502000000003">
				<ele>20.9</ele>
				<time>2025-07-03T15:30:12.000000Z</time>
			</trkpt>
			<trkpt lat="16.421368333333337" lon="-86.31501999999998">
				<ele>20.9</ele>
				<time>2025-07-03T15:30:13.000000Z</time>
			</trkpt>
			<trkpt lat="16.421368333333337" lon="-86.31501999999998">
				<ele>20.9</ele>
				<time>2025-07-03T15:30:14.000000Z</time>
			</trkpt>
			<trkpt lat="16.421368333333323" lon="-86.31502000000003">
				<ele>20.9</ele>
				<time>2025-07-03T15:30:15.000000Z</time>
			</trkpt>
			<trkpt lat="16.42136833333333" lon="-86.31502000000003">
				<ele>20.9</ele>
				<time>2025-07-03T15:30:16.000000Z</time>
			</trkpt>
			<trkpt lat="16.421368333333337" lon="-86.31501999999999">
				<ele>20.9</ele>
				<time>2025-07-03T15:30:17.000000Z</time>
			</trkpt>
			<trkpt lat="16.421368333333334" lon="-86.31501999999998">
				<ele>20.9</ele>
				<time>2025-07-03T15:30:18.000000Z</time>
			</trkpt>
			<trkpt lat="16.421368333333323" lon="-86.31501999999999">
				<ele>20.9</ele>
				<time>2025-07-03T15:30:19.000000Z</time>
			</trkpt>
			<trkpt lat="16.421368333333323" lon="-86.31502000000003">
				<ele>20.9</ele>
				<time>2025-07-03T15:30:20.000000Z</time>
			</trkpt>
			<trkpt lat="16.421368333333337" lon="-86.31502000000003">
				<ele>20.9</ele>
				<time>2025-07-03T15:30:21.000000Z</time>
			</trkpt>
			<trkpt lat="16.421368333333337" lon="-86.31501999999999">
				<ele>20.9</ele>
				<time>2025-07-03T15:30:22.000000Z</time>
			</trkpt>
			<trkpt lat="16.421368333333334" lon="-86.31501999999998">
				<ele>20.9</ele>
				<time>2025-07-03T15:30:23.000000Z</time>
			</trkpt>
			<trkpt lat="16.421368333333323" lon="-86.31501999999998">
				<ele>20.9</ele>
				<time>2025-07-03T15:30:24.000000Z</time>
			</trkpt>
			<trkpt lat="16.421368333333323" lon="-86.31502000000003">
				<ele>20.9</ele>
				<time>2025-07-03T15:30:25.000000Z</time>
			</trkpt>
			<trkpt lat="16.421368333333337" lon="-86.31502000000003">
				<ele>20.9</ele>
				<time>2025-07-03T15:30:26.000000Z</time>
			</trkpt>
			<trkpt lat="16.421368333333337" lon="-86.31501999999998">
				<ele>20.9</ele>
				<time>2025-07-03T15:30:27.000000Z</time>
			</trkpt>
			<trkpt lat="16.421368333333323" lon="-86.31501999999998">
				<ele>20.9</ele>
				<time>2025-07-03T15:30:28.000000Z</time>
			</trkpt>
			<trkpt lat="16.421368333333323" lon="-86.31502000000002">
				<ele>20.9</ele>
				<time>2025-07-03T15:30:29.000000Z</time>
			</trkpt>
			<trkpt lat="16.421368333333337" lon="-86.31502000000003">
				<ele>20.9</ele>
				<time>2025-07-03T15:30:30.000000Z</time>
			</trkpt>
			<trkpt lat="16.421368333333337" lon="-86.31502">
				<ele>20.9</ele>
				<time>2025-07-03T15:30:31.000000Z</time>
			</trkpt>
			<trkpt lat="16.421368333333323" lon="-86.31501999999998">
				<ele>20.9</ele>
				<time>2025-07-03T15:30:32.000000Z</time>
			</trkpt>
			<trkpt lat="16.421368333333323" lon="-86.31502">
				<ele>20.9</ele>
				<time>2025-07-03T15:30:33.000000Z</time>
			</trkpt>
			<trkpt lat="16.421368333333337" lon="-86.31502000000003">
				<ele>20.9</ele>
				<time>2025-07-03T15:30:34.000000Z</time>
			</trkpt>
			<trkpt lat="16.421368333333337" lon="-86.31502">
				<ele>20.9</ele>
				<time>2025-07-03T15:30:35.000000Z</time>
			</trkpt>
			<trkpt lat="16.421368333333323" lon="-86.31501999999998">
				<ele>20.9</ele>
				<time>2025-07-03T15:30:36.000000Z</time>
			</trkpt>
			<trkpt lat="16.421368333333323" lon="-86.31501999999999">
				<ele>20.9</ele>
				<time>2025-07-03T15:30:37.000000Z</time>
			</trkpt>
			<trkpt lat="16.421368333333337" lon="-86.31502000000003">
				<ele>20.9</ele>
				<time>2025-07-03T15:30:38.000000Z</time>
			</trkpt>
			<trkpt lat="16.421368333333337" lon="-86.31502000000003">
				<ele>20.9</ele>
				<time>2025-07-03T15:30:39.000000Z</time>
			</trkpt>
			<trkpt lat="16.421368333333323" lon="-86.31501999999998">
				<ele>20.9</ele>
				<time>2025-07-03T15:30:40.000000Z</time>
			</trkpt>
			<trkpt lat="16.421368333333323" lon="-86.31501999999998">
				<ele>20.9</ele>
				<time>2025-07-03T15:30:41.000000Z</time>
			</trkpt>
			<trkpt lat="16.421368333333337" lon="-86.31502000000003">
				<ele>20.9</ele>
				<time>2025-07-03T15:30:42.000000Z</time>
			</trkpt>
			<trkpt lat="16.421368333333337" lon="-86.31502000000003">
				<ele>20.9</ele>
				<time>2025-07-03T15:30:43.000000Z</time>
			</trkpt>
			<trkpt lat="16.42136833333333" lon="-86.31502000000002">
				<ele>20.9</ele>
				<time>2025-07-03T15:30:44.000000Z</time>
			</trkpt>
			<trkpt lat="16.421368333333323" lon="-86.31501999999998">
				<ele>20.9</ele>
				<time>2025-07-03T15:30:45.000000Z</time>
			</trkpt>
			<trkpt lat="16.421368333333334" lon="-86.31501999999999">
				<ele>20.9</ele>
				<time>2025-07-03T15:30:46.000000Z</time>
			</trkpt>
			<trkpt lat="16.421368333333337" lon="-86.31502000000003">
				<ele>20.9</ele>
				<time>2025-07-03T15:30:47.000000Z</time>
			</trkpt>
			<trkpt lat="16.421368333333323" lon="-86.31502000000002">
				<ele>20.9</ele>
				<time>2025-07-03T15:30:48.000000Z</time>
			</trkpt>
			<trkpt lat="16.421368333333323" lon="-86.31501999999998">
				<ele>20.9</ele>
				<time>2025-07-03T15:30:49.000000Z</time>
			</trkpt>
			<trkpt lat="16.421368333333337" lon="-86.31501999999999">
				<ele>20.9</ele>
				<time>2025-07-03T15:30:50.000000Z</time>
			</trkpt>
			<trkpt lat="16.421368333333337" lon="-86.31502000000003">
				<ele>20.9</ele>
				<time>2025-07-03T15:30:51.000000Z</time>
			</trkpt>
			<trkpt lat="16.421368333333323" lon="-86.31502000000002">
				<ele>20.9</ele>
				<time>2025-07-03T15:30:52.000000Z</time>
			</trkpt>
			<trkpt lat="16.421368333333323" lon="-86.31501999999998">
				<ele>20.9</ele>
				<time>2025-07-03T15:30:53.000000Z</time>
			</trkpt>
			<trkpt lat="16.421368333333337" lon="-86.31501999999998">
				<ele>20.9</ele>
				<time>2025-07-03T15:30:54.000000Z</time>
			</trkpt>
			<trkpt lat="16.421368333333337" lon="-86.31502000000003">
				<ele>20.9</ele>
				<time>2025-07-03T15:30:55.000000Z</time>
			</trkpt>
			<trkpt lat="16.421368333333323" lon="-86.31502000000003">
				<ele>20.9</ele>
				<time>2025-07-03T15:30:56.000000Z</time>
			</trkpt>
			<trkpt lat="16.421368333333323" lon="-86.31501999999998">
				<ele>20.9</ele>
				<time>2025-07-03T15:30:57.000000Z</time>
			</trkpt>
			<trkpt lat="16.421368333333337" lon="-86.31501999999998">
				<ele>20.9</ele>
				<time>2025-07-03T15:30:58.000000Z</time>
			</trkpt>
			<trkpt lat="16.421368333333337" lon="-86.31502000000003">
				<ele>20.9</ele>
				<time>2025-07-03T15:30:59.000000Z</time>
			</trkpt>
			<trkpt lat="16.421368333333323" lon="-86.31502000000003">
				<ele>20.9</ele>
				<time>2025-07-03T15:31:00.000000Z</time>
			</trkpt>
			<trkpt lat="16.421368333333323" lon="-86.31501999999998">
				<ele>20.9</ele>
				<time>2025-07-03T15:31:01.000000Z</time>
			</trkpt>
			<trkpt lat="16.421368333333337" lon="-86.31501999999998">
				<ele>20.9</ele>
				<time>2025-07-03T15:31:02.000000Z</time>
			</trkpt>
			<trkpt lat="16.421368333333337" lon="-86.31502000000003">
				<ele>20.9</ele>
				<time>2025-07-03T15:31:03.000000Z</time>
			</trkpt>
			<trkpt lat="16.421368333333323" lon="-86.31502000000003">
				<ele>20.9</ele>
				<time>2025-07-03T15:31:04.000000Z</time>
			</trkpt>
			<trkpt lat="16.421368333333323" lon="-86.31501999999998">
				<ele>20.9</ele>
				<time>2025-07-03T15:31:05.000000Z</time>
			</trkpt>
			<trkpt lat="16.421368333333337" lon="-86.31501999999998">
				<ele>20.9</ele>
				<time>2025-07-03T15:31:06.000000Z</time>
			</trkpt>
			<trkpt lat="16.421368333333334" lon="-86.31502000000003">
				<ele>20.9</ele>
				<time>2025-07-03T15:31:07.000000Z</time>
			</trkpt>
			<trkpt lat="16.421368333333323" lon="-86.31502000000003">
				<ele>20.9</ele>
				<time>2025-07-03T15:31:08.000000Z</time>
			</trkpt>
			<trkpt lat="16.421368333333326" lon="-86.31501999999998">
				<ele>20.9</ele>
				<time>2025-07-03T15:31:09.000000Z</time>
			</trkpt>
			<trkpt lat="16.421368333333337" lon="-86.31501999999998">
				<ele>20.9</ele>
				<time>2025-07-03T15:31:10.000000Z</time>
			</trkpt>
			<trkpt lat="16.42136833333333" lon="-86.31502000000003">
				<ele>20.9</ele>
				<time>2025-07-03T15:31:11.000000Z</time>
			</trkpt>
			<trkpt lat="16.421368333333323" lon="-86.31502000000003">
				<ele>20.9</ele>
				<time>2025-07-03T15:31:12.000000Z</time>
			</trkpt>
			<trkpt lat="16.42136833333333" lon="-86.31501999999998">
				<ele>20.9</ele>
				<time>2025-07-03T15:31:13.000000Z</time>
			</trkpt>
			<trkpt lat="16.421368333333337" lon="-86.31501999999998">
				<ele>20.9</ele>
				<time>2025-07-03T15:31:14.000000Z</time>
			</trkpt>
			<trkpt lat="16.421368333333326" lon="-86.31502000000003">
				<ele>20.9</ele>
				<time>2025-07-03T15:31:15.000000Z</time>
			</trkpt>
			<trkpt lat="16.421368333333323" lon="-86.31502000000003">
				<ele>20.9</ele>
				<time>2025-07-03T15:31:16.000000Z</time>
			</trkpt>
			<trkpt lat="16.421368333333337" lon="-86.31501999999998">
				<ele>20.9</ele>
				<time>2025-07-03T15:31:17.000000Z</time>
			</trkpt>
			<trkpt lat="16.421368333333337" lon="-86.31501999999998">
				<ele>20.9</ele>
				<time>2025-07-03T15:31:18.000000Z</time>
			</trkpt>
			<trkpt lat="16.421364882376313" lon="-86.31501011531806">
				<ele>21.4176</ele>
				<time>2025-07-03T15:31:19.000000Z</time>
			</trkpt>
			<trkpt lat="16.421344193503664" lon="-86.315006149331">
				<ele>22.1602</ele>
				<time>2025-07-03T15:31:20.000000Z</time>
			</trkpt>
			<trkpt lat="16.421317824260036" lon="-86.31502643468198">
				<ele>22.1413</ele>
				<time>2025-07-03T15:31:21.000000Z</time>
			</trkpt>
			<trkpt lat="16.421289068687578" lon="-86.31504498127202">
				<ele>22.2169</ele>
				<time>2025-07-03T15:31:22.000000Z</time>
			</trkpt>
			<trkpt lat="16.421260615483348" lon="-86.31506012307625">
				<ele>22.4106</ele>
				<time>2025-07-03T15:31:23.000000Z</time>
			</trkpt>
			<trkpt lat="16.42123340287983" lon="-86.31507468472667">
				<ele>22.5337</ele>
				<time>2025-07-03T15:31:24.000000Z</time>
			</trkpt>
			<trkpt lat="16.42120663914192" lon="-86.31508867046242">
				<ele>22.7304</ele>
				<time>2025-07-03T15:31:25.000000Z</time>
			</trkpt>
			<trkpt lat="16.42117863824784" lon="-86.31510385168818">
				<ele>22.923</ele>
				<time>2025-07-03T15:31:26.000000Z</time>
			</trkpt>
			<trkpt lat="16.421151162587545" lon="-86.3151182364649">
				<ele>23.1887</ele>
				<time>2025-07-03T15:31:27.000000Z</time>
			</trkpt>
			<trkpt lat="16.421126431653263" lon="-86.31513067717427">
				<ele>23.3535</ele>
				<time>2025-07-03T15:31:28.000000Z</time>
			</trkpt>
			<trkpt lat="16.42110449869237" lon="-86.31514261307295">
				<ele>23.584</ele>
				<time>2025-07-03T15:31:29.000000Z</time>
			</trkpt>
			<trkpt lat="16.421081346268164" lon="-86.31515477762042">
				<ele>23.8372</ele>
				<time>2025-07-03T15:31:30.000000Z</time>
			</trkpt>
			<trkpt lat="16.421057064734217" lon="-86.31516609841384">
				<ele>24.1029</ele>
				<time>2025-07-03T15:31:31.000000Z</time>
			</trkpt>
			<trkpt lat="16.421034682535325" lon="-86.31517447636088">
				<ele>24.2625</ele>
				<time>2025-07-03T15:31:32.000000Z</time>
			</trkpt>
			<trkpt lat="16.421015468543043" lon="-86.31518122815481">
				<ele>24.3331</ele>
				<time>2025-07-03T15:31:33.000000Z</time>
			</trkpt>
			<trkpt lat="16.42100014489426" lon="-86.31518633523119">
				<ele>24.3142</ele>
				<time>2025-07-03T15:31:34.000000Z</time>
			</trkpt>
			<trkpt lat="16.420985246008208" lon="-86.3151904738573">
				<ele>24.2996</ele>
				<time>2025-07-03T15:31:35.000000Z</time>
			</trkpt>
			<trkpt lat="16.420967356841626" lon="-86.31519480746682">
				<ele>24.0678</ele>
				<time>2025-07-03T15:31:36.000000Z</time>
			</trkpt>
			<trkpt lat="16.42094642973364" lon="-86.31519990795846">
				<ele>24.1154</ele>
				<time>2025-07-03T15:31:37.000000Z</time>
			</trkpt>
			<trkpt lat="16.420922902710412" lon="-86.31520655675659">
				<ele>24.2647</ele>
				<time>2025-07-03T15:31:38.000000Z</time>
			</trkpt>
			<trkpt lat="16.42089914229818" lon="-86.31521288483576">
				<ele>24.2221</ele>
				<time>2025-07-03T15:31:39.000000Z</time>
			</trkpt>
			<trkpt lat="16.420872599515732" lon="-86.31521955659768">
				<ele>24.206</ele>
				<time>2025-07-03T15:31:40.000000Z</time>
			</trkpt>
			<trkpt lat="16.420847464184895" lon="-86.31522761569694">
				<ele>24.1527</ele>
				<time>2025-07-03T15:31:41.000000Z</time>
			</trkpt>
			<trkpt lat="16.42082195043602" lon="-86.31523626912987">
				<ele>24.1994</ele>
				<time>2025-07-03T15:31:42.000000Z</time>
			</trkpt>
			<trkpt lat="16.420800812731475" lon="-86.31524399404191">
				<ele>24.4008</ele>
				<time>2025-07-03T15:31:43.000000Z</time>
			</trkpt>
			<trkpt lat="16.42078206557809" lon="-86.31524934713278">
				<ele>24.5451</ele>
				<time>2025-07-03T15:31:44.000000Z</time>
			</trkpt>
			<trkpt lat="16.420766086869328" lon="-86.31525410644579">
				<ele>24.6659</ele>
				<time>2025-07-03T15:31:45.000000Z</time>
			</trkpt>
			<trkpt lat="16.42075328989908" lon="-86.31525878830301">
				<ele>24.6929</ele>
				<time>2025-07-03T15:31:46.000000Z</time>
			</trkpt>
			<trkpt lat="16.420737618823456" lon="-86.31526408670821">
				<ele>24.6336</ele>
				<time>2025-07-03T15:31:47.000000Z</time>
			</trkpt>
			<trkpt lat="16.420720999986937" lon="-86.31527077365806">
				<ele>24.7613</ele>
				<time>2025-07-03T15:31:48.000000Z</time>
			</trkpt>
			<trkpt lat="16.420705154911957" lon="-86.31527729722816">
				<ele>24.7348</ele>
				<time>2025-07-03T15:31:49.000000Z</time>
			</trkpt>
			<trkpt lat="16.420685039546612" lon="-86.31528472810702">
				<ele>24.7598</ele>
				<time>2025-07-03T15:31:50.000000Z</time>
			</trkpt>
			<trkpt lat="16.420664271301913" lon="-86.3152922306096">
				<ele>24.9182</ele>
				<time>2025-07-03T15:31:51.000000Z</time>
			</trkpt>
			<trkpt lat="16.420641254974292" lon="-86.31530065613346">
				<ele>24.9218</ele>
				<time>2025-07-03T15:31:52.000000Z</time>
			</trkpt>
			<trkpt lat="16.42061477469711" lon="-86.31531192230763">
				<ele>24.8208</ele>
				<time>2025-07-03T15:31:53.000000Z</time>
			</trkpt>
			<trkpt lat="16.420584823897247" lon="-86.31532399572515">
				<ele>24.9019</ele>
				<time>2025-07-03T15:31:54.000000Z</time>
			</trkpt>
			<trkpt lat="16.420552538266435" lon="-86.31533726971657">
				<ele>24.6691</ele>
				<time>2025-07-03T15:31:55.000000Z</time>
			</trkpt>
			<trkpt lat="16.420517253608796" lon="-86.31535208194023">
				<ele>24.5468</ele>
				<time>2025-07-03T15:31:56.000000Z</time>
			</trkpt>
			<trkpt lat="16.420478411171526" lon="-86.3153665825315">
				<ele>24.5834</ele>
				<time>2025-07-03T15:31:57.000000Z</time>
			</trkpt>
			<trkpt lat="16.420435078319493" lon="-86.31538022971104">
				<ele>24.5092</ele>
				<time>2025-07-03T15:31:58.000000Z</time>
			</trkpt>
			<trkpt lat="16.420390331831594" lon="-86.31539142813105">
				<ele>24.4724</ele>
				<time>2025-07-03T15:31:59.000000Z</time>
			</trkpt>
			<trkpt lat="16.42034428642604" lon="-86.31539877106121">
				<ele>24.5025</ele>
				<time>2025-07-03T15:32:00.000000Z</time>
			</trkpt>
			<trkpt lat="16.42029646392733" lon="-86.31540530829268">
				<ele>24.417</ele>
				<time>2025-07-03T15:32:01.000000Z</time>
			</trkpt>
			<trkpt lat="16.42024684080873" lon="-86.31541211998784">
				<ele>24.4022</ele>
				<time>2025-07-03T15:32:02.000000Z</time>
			</trkpt>
			<trkpt lat="16.420193565386423" lon="-86.31541919898913">
				<ele>24.501</ele>
				<time>2025-07-03T15:32:03.000000Z</time>
			</trkpt>
			<trkpt lat="16.420139145342453" lon="-86.31542700414859">
				<ele>24.6162</ele>
				<time>2025-07-03T15:32:04.000000Z</time>
			</trkpt>
			<trkpt lat="16.420082686181345" lon="-86.31543305159292">
				<ele>24.6198</ele>
				<time>2025-07-03T15:32:05.000000Z</time>
			</trkpt>
			<trkpt lat="16.42002522674166" lon="-86.31543926661617">
				<ele>24.7167</ele>
				<time>2025-07-03T15:32:06.000000Z</time>
			</trkpt>
			<trkpt lat="16.41996772128135" lon="-86.31544473657564">
				<ele>24.835</ele>
				<time>2025-07-03T15:32:07.000000Z</time>
			</trkpt>
			<trkpt lat="16.419912533934387" lon="-86.3154500356338">
				<ele>24.7439</ele>
				<time>2025-07-03T15:32:08.000000Z</time>
			</trkpt>
			<trkpt lat="16.419858293451732" lon="-86.31545615657836">
				<ele>24.8623</ele>
				<time>2025-07-03T15:32:09.000000Z</time>
			</trkpt>
			<trkpt lat="16.419806811498503" lon="-86.31546253834051">
				<ele>25.0442</ele>
				<time>2025-07-03T15:32:10.000000Z</time>
			</trkpt>
			<trkpt lat="16.419757339517194" lon="-86.31546781728765">
				<ele>25.3286</ele>
				<time>2025-07-03T15:32:11.000000Z</time>
			</trkpt>
			<trkpt lat="16.4197124412651" lon="-86.31547229605714">
				<ele>25.4143</ele>
				<time>2025-07-03T15:32:12.000000Z</time>
			</trkpt>
			<trkpt lat="16.41966849451615" lon="-86.31547830627855">
				<ele>25.6207</ele>
				<time>2025-07-03T15:32:13.000000Z</time>
			</trkpt>
			<trkpt lat="16.419623572615915" lon="-86.31548537839971">
				<ele>25.9553</ele>
				<time>2025-07-03T15:32:14.000000Z</time>
			</trkpt>
			<trkpt lat="16.41957344549077" lon="-86.31549222114015">
				<ele>26.0915</ele>
				<time>2025-07-03T15:32:15.000000Z</time>
			</trkpt>
			<trkpt lat="16.41952062423957" lon="-86.31549569815218">
				<ele>26.3657</ele>
				<time>2025-07-03T15:32:16.000000Z</time>
			</trkpt>
			<trkpt lat="16.419466614047757" lon="-86.31549757295423">
				<ele>26.6255</ele>
				<time>2025-07-03T15:32:17.000000Z</time>
			</trkpt>
			<trkpt lat="16.41941392462158" lon="-86.31549901256446">
				<ele>26.9109</ele>
				<time>2025-07-03T15:32:18.000000Z</time>
			</trkpt>
			<trkpt lat="16.419359593778424" lon="-86.31550042241926">
				<ele>27.3477</ele>
				<time>2025-07-03T15:32:19.000000Z</time>
			</trkpt>
			<trkpt lat="16.419305927472006" lon="-86.31550169018742">
				<ele>27.7647</ele>
				<time>2025-07-03T15:32:20.000000Z</time>
			</trkpt>
			<trkpt lat="16.41925195819783" lon="-86.31550199802669">
				<ele>28.1064</ele>
				<time>2025-07-03T15:32:21.000000Z</time>
			</trkpt>
			<trkpt lat="16.419198540206743" lon="-86.31550368719299">
				<ele>28.4608</ele>
				<time>2025-07-03T15:32:22.000000Z</time>
			</trkpt>
			<trkpt lat="16.419144137337884" lon="-86.31550675966524">
				<ele>28.8212</ele>
				<time>2025-07-03T15:32:23.000000Z</time>
			</trkpt>
			<trkpt lat="16.419086335260506" lon="-86.31550880650646">
				<ele>29.0589</ele>
				<time>2025-07-03T15:32:24.000000Z</time>
			</trkpt>
			<trkpt lat="16.419023520893678" lon="-86.31551322470055">
				<ele>29.162</ele>
				<time>2025-07-03T15:32:25.000000Z</time>
			</trkpt>
			<trkpt lat="16.41895757195315" lon="-86.31552045328878">
				<ele>29.2316</ele>
				<time>2025-07-03T15:32:26.000000Z</time>
			</trkpt>
			<trkpt lat="16.4188896211563" lon="-86.31552845341896">
				<ele>29.4284</ele>
				<time>2025-07-03T15:32:27.000000Z</time>
			</trkpt>
			<trkpt lat="16.418820752581627" lon="-86.31553596542301">
				<ele>29.4543</ele>
				<time>2025-07-03T15:32:28.000000Z</time>
			</trkpt>
			<trkpt lat="16.418752356256526" lon="-86.31554526139732">
				<ele>29.8772</ele>
				<time>2025-07-03T15:32:29.000000Z</time>
			</trkpt>
			<trkpt lat="16.418684518076404" lon="-86.3155578391916">
				<ele>30.2903</ele>
				<time>2025-07-03T15:32:30.000000Z</time>
			</trkpt>
			<trkpt lat="16.418616259214478" lon="-86.31557239468958">
				<ele>30.8109</ele>
				<time>2025-07-03T15:32:31.000000Z</time>
			</trkpt>
			<trkpt lat="16.418551280060896" lon="-86.31558770805465">
				<ele>31.397</ele>
				<time>2025-07-03T15:32:32.000000Z</time>
			</trkpt>
			<trkpt lat="16.41848773547959" lon="-86.31560484076434">
				<ele>31.8063</ele>
				<time>2025-07-03T15:32:33.000000Z</time>
			</trkpt>
			<trkpt lat="16.41842379251225" lon="-86.31562287979038">
				<ele>32.2392</ele>
				<time>2025-07-03T15:32:34.000000Z</time>
			</trkpt>
			<trkpt lat="16.418359871703444" lon="-86.31564315972713">
				<ele>32.636</ele>
				<time>2025-07-03T15:32:35.000000Z</time>
			</trkpt>
			<trkpt lat="16.41829560742571" lon="-86.31566617823506">
				<ele>33.0771</ele>
				<time>2025-07-03T15:32:36.000000Z</time>
			</trkpt>
			<trkpt lat="16.41823057040223" lon="-86.31569324491319">
				<ele>33.3922</ele>
				<time>2025-07-03T15:32:37.000000Z</time>
			</trkpt>
			<trkpt lat="16.41816622838157" lon="-86.31572405343998">
				<ele>33.5182</ele>
				<time>2025-07-03T15:32:38.000000Z</time>
			</trkpt>
			<trkpt lat="16.418104451021673" lon="-86.31575632636928">
				<ele>33.4097</ele>
				<time>2025-07-03T15:32:39.000000Z</time>
			</trkpt>
			<trkpt lat="16.418043230183965" lon="-86.31578908920253">
				<ele>33.2448</ele>
				<time>2025-07-03T15:32:40.000000Z</time>
			</trkpt>
			<trkpt lat="16.417981662041115" lon="-86.31581895043927">
				<ele>33.161</ele>
				<time>2025-07-03T15:32:41.000000Z</time>
			</trkpt>
			<trkpt lat="16.417919013633696" lon="-86.31584761455676">
				<ele>33.2638</ele>
				<time>2025-07-03T15:32:42.000000Z</time>
			</trkpt>
			<trkpt lat="16.41785670512086" lon="-86.31587314981526">
				<ele>33.3156</ele>
				<time>2025-07-03T15:32:43.000000Z</time>
			</trkpt>
			<trkpt lat="16.417795180942782" lon="-86.31589842191757">
				<ele>33.3075</ele>
				<time>2025-07-03T15:32:44.000000Z</time>
			</trkpt>
			<trkpt lat="16.417733229513185" lon="-86.31592496384906">
				<ele>33.4366</ele>
				<time>2025-07-03T15:32:45.000000Z</time>
			</trkpt>
			<trkpt lat="16.41767199920291" lon="-86.3159542371423">
				<ele>33.6263</ele>
				<time>2025-07-03T15:32:46.000000Z</time>
			</trkpt>
			<trkpt lat="16.41761870804796" lon="-86.31599056665137">
				<ele>33.6578</ele>
				<time>2025-07-03T15:32:47.000000Z</time>
			</trkpt>
			<trkpt lat="16.417575670610766" lon="-86.31603838170562">
				<ele>33.2864</ele>
				<time>2025-07-03T15:32:48.000000Z</time>
			</trkpt>
			<trkpt lat="16.417545054219126" lon="-86.31609745023466">
				<ele>33.0651</ele>
				<time>2025-07-03T15:32:49.000000Z</time>
			</trkpt>
			<trkpt lat="16.41752894938476" lon="-86.31616419194113">
				<ele>32.9205</ele>
				<time>2025-07-03T15:32:50.000000Z</time>
			</trkpt>
			<trkpt lat="16.41752613646875" lon="-86.31623207447906">
				<ele>32.7466</ele>
				<time>2025-07-03T15:32:51.000000Z</time>
			</trkpt>
			<trkpt lat="16.417533945790137" lon="-86.31630142625124">
				<ele>32.7064</ele>
				<time>2025-07-03T15:32:52.000000Z</time>
			</trkpt>
			<trkpt lat="16.417542265377442" lon="-86.3163694974971">
				<ele>32.5783</ele>
				<time>2025-07-03T15:32:53.000000Z</time>
			</trkpt>
			<trkpt lat="16.417549344325472" lon="-86.3164404087391">
				<ele>32.3644</ele>
				<time>2025-07-03T15:32:54.000000Z</time>
			</trkpt>
			<trkpt lat="16.417553645003643" lon="-86.31651235771406">
				<ele>32.125</ele>
				<time>2025-07-03T15:32:55.000000Z</time>
			</trkpt>
			<trkpt lat="16.417557328107183" lon="-86.31658699652195">
				<ele>32.0024</ele>
				<time>2025-07-03T15:32:56.000000Z</time>
			</trkpt>
			<trkpt lat="16.41756075387221" lon="-86.31666289426028">
				<ele>31.9006</ele>
				<time>2025-07-03T15:32:57.000000Z</time>
			</trkpt>
			<trkpt lat="16.417565709196122" lon="-86.31673840770773">
				<ele>31.8478</ele>
				<time>2025-07-03T15:32:58.000000Z</time>
			</trkpt>
			<trkpt lat="16.417570431274697" lon="-86.31681401527992">
				<ele>31.6749</ele>
				<time>2025-07-03T15:32:59.000000Z</time>
			</trkpt>
			<trkpt lat="16.417574987745517" lon="-86.31688976036382">
				<ele>31.6772</ele>
				<time>2025-07-03T15:33:00.000000Z</time>
			</trkpt>
			<trkpt lat="16.417578173039008" lon="-86.31696210053792">
				<ele>31.4609</ele>
				<time>2025-07-03T15:33:01.000000Z</time>
			</trkpt>
			<trkpt lat="16.41757906482115" lon="-86.31702751307692">
				<ele>31.0637</ele>
				<time>2025-07-03T15:33:02.000000Z</time>
			</trkpt>
			<trkpt lat="16.4175713067064" lon="-86.31709177326411">
				<ele>30.6444</ele>
				<time>2025-07-03T15:33:03.000000Z</time>
			</trkpt>
			<trkpt lat="16.417553858396495" lon="-86.31715287915677">
				<ele>30.1855</ele>
				<time>2025-07-03T15:33:04.000000Z</time>
			</trkpt>
			<trkpt lat="16.417528591760732" lon="-86.3172127043535">
				<ele>29.8347</ele>
				<time>2025-07-03T15:33:05.000000Z</time>
			</trkpt>
			<trkpt lat="16.417501002712562" lon="-86.31727081592744">
				<ele>29.5752</ele>
				<time>2025-07-03T15:33:06.000000Z</time>
			</trkpt>
			<trkpt lat="16.41746956823908" lon="-86.31732876449503">
				<ele>29.1235</ele>
				<time>2025-07-03T15:33:07.000000Z</time>
			</trkpt>
			<trkpt lat="16.417439126854507" lon="-86.31738712299243">
				<ele>28.8224</ele>
				<time>2025-07-03T15:33:08.000000Z</time>
			</trkpt>
			<trkpt lat="16.417416531748415" lon="-86.31744736618444">
				<ele>28.2943</ele>
				<time>2025-07-03T15:33:09.000000Z</time>
			</trkpt>
			<trkpt lat="16.417402075213023" lon="-86.31751040098314">
				<ele>27.904</ele>
				<time>2025-07-03T15:33:10.000000Z</time>
			</trkpt>
			<trkpt lat="16.417403271148338" lon="-86.31757962328967">
				<ele>27.7241</ele>
				<time>2025-07-03T15:33:11.000000Z</time>
			</trkpt>
			<trkpt lat="16.41742610525454" lon="-86.31764359533156">
				<ele>27.7778</ele>
				<time>2025-07-03T15:33:12.000000Z</time>
			</trkpt>
			<trkpt lat="16.417465071108264" lon="-86.31770331780166">
				<ele>27.0329</ele>
				<time>2025-07-03T15:33:13.000000Z</time>
			</trkpt>
			<trkpt lat="16.417519398651528" lon="-86.31775573253238">
				<ele>26.2751</ele>
				<time>2025-07-03T15:33:14.000000Z</time>
			</trkpt>
			<trkpt lat="16.417579484143488" lon="-86.31780865324669">
				<ele>25.6171</ele>
				<time>2025-07-03T15:33:15.000000Z</time>
			</trkpt>
			<trkpt lat="16.41764189969759" lon="-86.31786526548298">
				<ele>25.0331</ele>
				<time>2025-07-03T15:33:16.000000Z</time>
			</trkpt>
			<trkpt lat="16.417705094809723" lon="-86.31792568250953">
				<ele>24.4266</ele>
				<time>2025-07-03T15:33:17.000000Z</time>
			</trkpt>
			<trkpt lat="16.41776702975184" lon="-86.31799335049537">
				<ele>23.7072</ele>
				<time>2025-07-03T15:33:18.000000Z</time>
			</trkpt>
			<trkpt lat="16.41782463673371" lon="-86.31806967043043">
				<ele>23.1153</ele>
				<time>2025-07-03T15:33:19.000000Z</time>
			</trkpt>
			<trkpt lat="16.417877227921515" lon="-86.318155620616">
				<ele>22.7659</ele>
				<time>2025-07-03T15:33:20.000000Z</time>
			</trkpt>
			<trkpt lat="16.417917941890266" lon="-86.31824980779248">
				<ele>22.6159</ele>
				<time>2025-07-03T15:33:21.000000Z</time>
			</trkpt>
			<trkpt lat="16.41794819314697" lon="-86.31834663513645">
				<ele>22.3825</ele>
				<time>2025-07-03T15:33:22.000000Z</time>
			</trkpt>
			<trkpt lat="16.417969419007488" lon="-86.31844744252909">
				<ele>22.051</ele>
				<time>2025-07-03T15:33:23.000000Z</time>
			</trkpt>
			<trkpt lat="16.41798623009655" lon="-86.31854809168246">
				<ele>21.828</ele>
				<time>2025-07-03T15:33:24.000000Z</time>
			</trkpt>
			<trkpt lat="16.41800360954013" lon="-86.31865074270831">
				<ele>21.6715</ele>
				<time>2025-07-03T15:33:25.000000Z</time>
			</trkpt>
			<trkpt lat="16.41802798938943" lon="-86.31875055957182">
				<ele>21.4987</ele>
				<time>2025-07-03T15:33:26.000000Z</time>
			</trkpt>
			<trkpt lat="16.418060062163043" lon="-86.31884999815996">
				<ele>21.2298</ele>
				<time>2025-07-03T15:33:27.000000Z</time>
			</trkpt>
			<trkpt lat="16.418097854296274" lon="-86.31894685709402">
				<ele>20.9508</ele>
				<time>2025-07-03T15:33:28.000000Z</time>
			</trkpt>
			<trkpt lat="16.41814036256305" lon="-86.31903788930691">
				<ele>20.9605</ele>
				<time>2025-07-03T15:33:29.000000Z</time>
			</trkpt>
			<trkpt lat="16.41818393621177" lon="-86.31912622743023">
				<ele>20.9999</ele>
				<time>2025-07-03T15:33:30.000000Z</time>
			</trkpt>
			<trkpt lat="16.418229504269977" lon="-86.31921099501245">
				<ele>21.0023</ele>
				<time>2025-07-03T15:33:31.000000Z</time>
			</trkpt>
			<trkpt lat="16.41827518151151" lon="-86.31929565262047">
				<ele>21.0002</ele>
				<time>2025-07-03T15:33:32.000000Z</time>
			</trkpt>
			<trkpt lat="16.418318572304003" lon="-86.31937755955867">
				<ele>20.8913</ele>
				<time>2025-07-03T15:33:33.000000Z</time>
			</trkpt>
			<trkpt lat="16.418360223010545" lon="-86.31945730332382">
				<ele>20.8841</ele>
				<time>2025-07-03T15:33:34.000000Z</time>
			</trkpt>
			<trkpt lat="16.418402319641785" lon="-86.31953657973894">
				<ele>20.6257</ele>
				<time>2025-07-03T15:33:35.000000Z</time>
			</trkpt>
			<trkpt lat="16.418441718442686" lon="-86.31960967896053">
				<ele>20.359</ele>
				<time>2025-07-03T15:33:36.000000Z</time>
			</trkpt>
			<trkpt lat="16.41847620638394" lon="-86.31967618757183">
				<ele>20.1977</ele>
				<time>2025-07-03T15:33:37.000000Z</time>
			</trkpt>
			<trkpt lat="16.418510108277246" lon="-86.31974167642416">
				<ele>20.1671</ele>
				<time>2025-07-03T15:33:38.000000Z</time>
			</trkpt>
			<trkpt lat="16.41854336638187" lon="-86.31980991857839">
				<ele>20.0354</ele>
				<time>2025-07-03T15:33:39.000000Z</time>
			</trkpt>
			<trkpt lat="16.418574745279592" lon="-86.31988045351464">
				<ele>19.704</ele>
				<time>2025-07-03T15:33:40.000000Z</time>
			</trkpt>
			<trkpt lat="16.41860994993043" lon="-86.31995415821748">
				<ele>19.4604</ele>
				<time>2025-07-03T15:33:41.000000Z</time>
			</trkpt>
			<trkpt lat="16.41864587613802" lon="-86.32003306928775">
				<ele>19.287</ele>
				<time>2025-07-03T15:33:42.000000Z</time>
			</trkpt>
			<trkpt lat="16.418680686242393" lon="-86.32011479302739">
				<ele>18.9662</ele>
				<time>2025-07-03T15:33:43.000000Z</time>
			</trkpt>
			<trkpt lat="16.41871162212107" lon="-86.32020111644424">
				<ele>18.6459</ele>
				<time>2025-07-03T15:33:44.000000Z</time>
			</trkpt>
			<trkpt lat="16.41874012134488" lon="-86.32028941706656">
				<ele>18.3405</ele>
				<time>2025-07-03T15:33:45.000000Z</time>
			</trkpt>
			<trkpt lat="16.418767457579758" lon="-86.32037916967657">
				<ele>17.881</ele>
				<time>2025-07-03T15:33:46.000000Z</time>
			</trkpt>
			<trkpt lat="16.418798024493494" lon="-86.32046814177632">
				<ele>17.4206</ele>
				<time>2025-07-03T15:33:47.000000Z</time>
			</trkpt>
			<trkpt lat="16.418826524625352" lon="-86.32055833967284">
				<ele>17.2251</ele>
				<time>2025-07-03T15:33:48.000000Z</time>
			</trkpt>
			<trkpt lat="16.418852609752193" lon="-86.32064802941454">
				<ele>17.1709</ele>
				<time>2025-07-03T15:33:49.000000Z</time>
			</trkpt>
			<trkpt lat="16.41887816061311" lon="-86.32073522845704">
				<ele>17.0475</ele>
				<time>2025-07-03T15:33:50.000000Z</time>
			</trkpt>
			<trkpt lat="16.418902569722988" lon="-86.32082092114459">
				<ele>16.8802</ele>
				<time>2025-07-03T15:33:51.000000Z</time>
			</trkpt>
			<trkpt lat="16.418925837687897" lon="-86.32090570623892">
				<ele>16.8745</ele>
				<time>2025-07-03T15:33:52.000000Z</time>
			</trkpt>
			<trkpt lat="16.41895013409231" lon="-86.32098918559528">
				<ele>16.8112</ele>
				<time>2025-07-03T15:33:53.000000Z</time>
			</trkpt>
			<trkpt lat="16.418972275729875" lon="-86.32107248553797">
				<ele>16.6822</ele>
				<time>2025-07-03T15:33:54.000000Z</time>
			</trkpt>
			<trkpt lat="16.418994552189705" lon="-86.3211537552799">
				<ele>16.5832</ele>
				<time>2025-07-03T15:33:55.000000Z</time>
			</trkpt>
			<trkpt lat="16.41901638913448" lon="-86.32123896848942">
				<ele>16.6678</ele>
				<time>2025-07-03T15:33:56.000000Z</time>
			</trkpt>
			<trkpt lat="16.419037685246025" lon="-86.32132432907851">
				<ele>16.7487</ele>
				<time>2025-07-03T15:33:57.000000Z</time>
			</trkpt>
			<trkpt lat="16.419060058677367" lon="-86.32141025476385">
				<ele>16.7199</ele>
				<time>2025-07-03T15:33:58.000000Z</time>
			</trkpt>
			<trkpt lat="16.419077741922393" lon="-86.32149395814918">
				<ele>16.8167</ele>
				<time>2025-07-03T15:33:59.000000Z</time>
			</trkpt>
			<trkpt lat="16.419086114710094" lon="-86.32158046484085">
				<ele>16.94</ele>
				<time>2025-07-03T15:34:00.000000Z</time>
			</trkpt>
			<trkpt lat="16.41908988275537" lon="-86.3216674819752">
				<ele>17.0165</ele>
				<time>2025-07-03T15:34:01.000000Z</time>
			</trkpt>
			<trkpt lat="16.41908616552854" lon="-86.32175368548803">
				<ele>17.2249</ele>
				<time>2025-07-03T15:34:02.000000Z</time>
			</trkpt>
			<trkpt lat="16.41908054127363" lon="-86.32183714382693">
				<ele>17.3432</ele>
				<time>2025-07-03T15:34:03.000000Z</time>
			</trkpt>
			<trkpt lat="16.41906871358407" lon="-86.32192001508888">
				<ele>17.3424</ele>
				<time>2025-07-03T15:34:04.000000Z</time>
			</trkpt>
			<trkpt lat="16.419049240138552" lon="-86.3220011831444">
				<ele>17.5895</ele>
				<time>2025-07-03T15:34:05.000000Z</time>
			</trkpt>
			<trkpt lat="16.41902334196653" lon="-86.32207716803072">
				<ele>17.9444</ele>
				<time>2025-07-03T15:34:06.000000Z</time>
			</trkpt>
			<trkpt lat="16.41899669154714" lon="-86.32214930712435">
				<ele>18.1742</ele>
				<time>2025-07-03T15:34:07.000000Z</time>
			</trkpt>
			<trkpt lat="16.41896856597694" lon="-86.3222178527531">
				<ele>18.2355</ele>
				<time>2025-07-03T15:34:08.000000Z</time>
			</trkpt>
			<trkpt lat="16.418942341392626" lon="-86.32228566088381">
				<ele>18.2135</ele>
				<time>2025-07-03T15:34:09.000000Z</time>
			</trkpt>
			<trkpt lat="16.41891908409551" lon="-86.32235369871978">
				<ele>18.3215</ele>
				<time>2025-07-03T15:34:10.000000Z</time>
			</trkpt>
			<trkpt lat="16.418900693372965" lon="-86.32242185199367">
				<ele>18.5195</ele>
				<time>2025-07-03T15:34:11.000000Z</time>
			</trkpt>
			<trkpt lat="16.418883104830062" lon="-86.32249054847568">
				<ele>18.6638</ele>
				<time>2025-07-03T15:34:12.000000Z</time>
			</trkpt>
			<trkpt lat="16.41886295049188" lon="-86.32255896925358">
				<ele>18.7925</ele>
				<time>2025-07-03T15:34:13.000000Z</time>
			</trkpt>
			<trkpt lat="16.4188422596397" lon="-86.32262630223828">
				<ele>18.9277</ele>
				<time>2025-07-03T15:34:14.000000Z</time>
			</trkpt>
			<trkpt lat="16.418824192672073" lon="-86.32269366838808">
				<ele>18.899</ele>
				<time>2025-07-03T15:34:15.000000Z</time>
			</trkpt>
			<trkpt lat="16.418810158912205" lon="-86.32276004683564">
				<ele>18.9041</ele>
				<time>2025-07-03T15:34:16.000000Z</time>
			</trkpt>
			<trkpt lat="16.418794464625833" lon="-86.32282295314674">
				<ele>18.8138</ele>
				<time>2025-07-03T15:34:17.000000Z</time>
			</trkpt>
			<trkpt lat="16.41877991900296" lon="-86.32288447498226">
				<ele>18.9113</ele>
				<time>2025-07-03T15:34:18.000000Z</time>
			</trkpt>
			<trkpt lat="16.418766276743508" lon="-86.32294459944698">
				<ele>19.0145</ele>
				<time>2025-07-03T15:34:19.000000Z</time>
			</trkpt>
			<trkpt lat="16.418752721005646" lon="-86.32300439724665">
				<ele>19.1242</ele>
				<time>2025-07-03T15:34:20.000000Z</time>
			</trkpt>
			<trkpt lat="16.41873878370834" lon="-86.32306318735807">
				<ele>19.1162</ele>
				<time>2025-07-03T15:34:21.000000Z</time>
			</trkpt>
			<trkpt lat="16.418725272649702" lon="-86.32312082464897">
				<ele>19.0998</ele>
				<time>2025-07-03T15:34:22.000000Z</time>
			</trkpt>
			<trkpt lat="16.41871117305719" lon="-86.32317760864814">
				<ele>19.012</ele>
				<time>2025-07-03T15:34:23.000000Z</time>
			</trkpt>
			<trkpt lat="16.41869847377254" lon="-86.32323370861272">
				<ele>18.9799</ele>
				<time>2025-07-03T15:34:24.000000Z</time>
			</trkpt>
			<trkpt lat="16.418684284126314" lon="-86.32328952573783">
				<ele>18.9265</ele>
				<time>2025-07-03T15:34:25.000000Z</time>
			</trkpt>
			<trkpt lat="16.41866900222605" lon="-86.32334736854352">
				<ele>18.989</ele>
				<time>2025-07-03T15:34:26.000000Z</time>
			</trkpt>
			<trkpt lat="16.418653756430132" lon="-86.32341064061738">
				<ele>18.9828</ele>
				<time>2025-07-03T15:34:27.000000Z</time>
			</trkpt>
			<trkpt lat="16.418640318923618" lon="-86.3234799350296">
				<ele>18.9645</ele>
				<time>2025-07-03T15:34:28.000000Z</time>
			</trkpt>
			<trkpt lat="16.418625735565985" lon="-86.3235551258762">
				<ele>19.1128</ele>
				<time>2025-07-03T15:34:29.000000Z</time>
			</trkpt>
			<trkpt lat="16.418611043752712" lon="-86.32363118098567">
				<ele>19.2437</ele>
				<time>2025-07-03T15:34:30.000000Z</time>
			</trkpt>
			<trkpt lat="16.418597016457817" lon="-86.3237027811218">
				<ele>19.2817</ele>
				<time>2025-07-03T15:34:31.000000Z</time>
			</trkpt>
			<trkpt lat="16.4185835990316" lon="-86.32377329922477">
				<ele>19.32</ele>
				<time>2025-07-03T15:34:32.000000Z</time>
			</trkpt>
			<trkpt lat="16.418570343499468" lon="-86.32384399933522">
				<ele>19.4264</ele>
				<time>2025-07-03T15:34:33.000000Z</time>
			</trkpt>
			<trkpt lat="16.418558667234464" lon="-86.3239141534129">
				<ele>19.1972</ele>
				<time>2025-07-03T15:34:34.000000Z</time>
			</trkpt>
			<trkpt lat="16.418548273569005" lon="-86.32398395095888">
				<ele>19.0591</ele>
				<time>2025-07-03T15:34:35.000000Z</time>
			</trkpt>
			<trkpt lat="16.418538637167245" lon="-86.32405255875612">
				<ele>19.0863</ele>
				<time>2025-07-03T15:34:36.000000Z</time>
			</trkpt>
			<trkpt lat="16.418529082435853" lon="-86.32412049189973">
				<ele>19.2007</ele>
				<time>2025-07-03T15:34:37.000000Z</time>
			</trkpt>
			<trkpt lat="16.418520162732225" lon="-86.32418826855331">
				<ele>19.2282</ele>
				<time>2025-07-03T15:34:38.000000Z</time>
			</trkpt>
			<trkpt lat="16.4185126200519" lon="-86.32425650479514">
				<ele>19.1992</ele>
				<time>2025-07-03T15:34:39.000000Z</time>
			</trkpt>
			<trkpt lat="16.41850269880011" lon="-86.32432876532376">
				<ele>19.3221</ele>
				<time>2025-07-03T15:34:40.000000Z</time>
			</trkpt>
			<trkpt lat="16.418493685573598" lon="-86.32440173002189">
				<ele>19.3357</ele>
				<time>2025-07-03T15:34:41.000000Z</time>
			</trkpt>
			<trkpt lat="16.418483766397575" lon="-86.32447283152273">
				<ele>19.4232</ele>
				<time>2025-07-03T15:34:42.000000Z</time>
			</trkpt>
			<trkpt lat="16.418474746556278" lon="-86.32454441181122">
				<ele>19.4056</ele>
				<time>2025-07-03T15:34:43.000000Z</time>
			</trkpt>
			<trkpt lat="16.418465315168138" lon="-86.32461573180147">
				<ele>19.5901</ele>
				<time>2025-07-03T15:34:44.000000Z</time>
			</trkpt>
			<trkpt lat="16.41845452275335" lon="-86.32468697032265">
				<ele>19.633</ele>
				<time>2025-07-03T15:34:45.000000Z</time>
			</trkpt>
			<trkpt lat="16.41844497839921" lon="-86.32475730209487">
				<ele>19.6744</ele>
				<time>2025-07-03T15:34:46.000000Z</time>
			</trkpt>
			<trkpt lat="16.41843583787137" lon="-86.32482720256623">
				<ele>19.7201</ele>
				<time>2025-07-03T15:34:47.000000Z</time>
			</trkpt>
			<trkpt lat="16.418431222906793" lon="-86.32489705227249">
				<ele>19.7187</ele>
				<time>2025-07-03T15:34:48.000000Z</time>
			</trkpt>
			<trkpt lat="16.418433559675755" lon="-86.3249658200978">
				<ele>19.8211</ele>
				<time>2025-07-03T15:34:49.000000Z</time>
			</trkpt>
			<trkpt lat="16.418445149743906" lon="-86.32503191436251">
				<ele>19.854</ele>
				<time>2025-07-03T15:34:50.000000Z</time>
			</trkpt>
			<trkpt lat="16.418462691526038" lon="-86.32509374347187">
				<ele>20.0304</ele>
				<time>2025-07-03T15:34:51.000000Z</time>
			</trkpt>
			<trkpt lat="16.418488659473464" lon="-86.32515073699756">
				<ele>20.0202</ele>
				<time>2025-07-03T15:34:52.000000Z</time>
			</trkpt>
			<trkpt lat="16.4185172909195" lon="-86.32519938702184">
				<ele>19.9997</ele>
				<time>2025-07-03T15:34:53.000000Z</time>
			</trkpt>
			<trkpt lat="16.418544453466108" lon="-86.32524349331993">
				<ele>19.9988</ele>
				<time>2025-07-03T15:34:54.000000Z</time>
			</trkpt>
			<trkpt lat="16.418571478117464" lon="-86.32528518716687">
				<ele>19.8913</ele>
				<time>2025-07-03T15:34:55.000000Z</time>
			</trkpt>
			<trkpt lat="16.418595393994853" lon="-86.32532310980127">
				<ele>19.7617</ele>
				<time>2025-07-03T15:34:56.000000Z</time>
			</trkpt>
			<trkpt lat="16.418619170778243" lon="-86.32535944857713">
				<ele>19.6812</ele>
				<time>2025-07-03T15:34:57.000000Z</time>
			</trkpt>
			<trkpt lat="16.418642162282733" lon="-86.32539581583274">
				<ele>19.5444</ele>
				<time>2025-07-03T15:34:58.000000Z</time>
			</trkpt>
			<trkpt lat="16.418663588599273" lon="-86.32543077109065">
				<ele>19.4624</ele>
				<time>2025-07-03T15:34:59.000000Z</time>
			</trkpt>
			<trkpt lat="16.4186823981285" lon="-86.32545873810375">
				<ele>19.4653</ele>
				<time>2025-07-03T15:35:00.000000Z</time>
			</trkpt>
			<trkpt lat="16.418701583757016" lon="-86.32548618240446">
				<ele>19.3837</ele>
				<time>2025-07-03T15:35:01.000000Z</time>
			</trkpt>
			<trkpt lat="16.418722008445567" lon="-86.32551741604122">
				<ele>19.3424</ele>
				<time>2025-07-03T15:35:02.000000Z</time>
			</trkpt>
			<trkpt lat="16.418745475571512" lon="-86.32555360289685">
				<ele>19.4147</ele>
				<time>2025-07-03T15:35:03.000000Z</time>
			</trkpt>
			<trkpt lat="16.418770921253888" lon="-86.32559169774323">
				<ele>19.5271</ele>
				<time>2025-07-03T15:35:04.000000Z</time>
			</trkpt>
			<trkpt lat="16.418794929399827" lon="-86.32562578600304">
				<ele>19.3865</ele>
				<time>2025-07-03T15:35:05.000000Z</time>
			</trkpt>
			<trkpt lat="16.418813097119347" lon="-86.32565315804248">
				<ele>19.1768</ele>
				<time>2025-07-03T15:35:06.000000Z</time>
			</trkpt>
			<trkpt lat="16.418826635542416" lon="-86.32567020535372">
				<ele>19.0715</ele>
				<time>2025-07-03T15:35:07.000000Z</time>
			</trkpt>
			<trkpt lat="16.41883976228877" lon="-86.32568763220502">
				<ele>19.0811</ele>
				<time>2025-07-03T15:35:08.000000Z</time>
			</trkpt>
			<trkpt lat="16.41885412246987" lon="-86.32570997110861">
				<ele>19.3071</ele>
				<time>2025-07-03T15:35:09.000000Z</time>
			</trkpt>
			<trkpt lat="16.41887144689813" lon="-86.3257369155108">
				<ele>19.3328</ele>
				<time>2025-07-03T15:35:10.000000Z</time>
			</trkpt>
			<trkpt lat="16.418888368763795" lon="-86.3257639750347">
				<ele>19.2076</ele>
				<time>2025-07-03T15:35:11.000000Z</time>
			</trkpt>
			<trkpt lat="16.418902550547596" lon="-86.32578863291238">
				<ele>19.4493</ele>
				<time>2025-07-03T15:35:12.000000Z</time>
			</trkpt>
			<trkpt lat="16.418917740803273" lon="-86.3258120111423">
				<ele>19.5462</ele>
				<time>2025-07-03T15:35:13.000000Z</time>
			</trkpt>
			<trkpt lat="16.41893283949836" lon="-86.32583692730351">
				<ele>19.6058</ele>
				<time>2025-07-03T15:35:14.000000Z</time>
			</trkpt>
			<trkpt lat="16.4189464068807" lon="-86.32585898308156">
				<ele>19.7788</ele>
				<time>2025-07-03T15:35:15.000000Z</time>
			</trkpt>
			<trkpt lat="16.41895768817914" lon="-86.32587791336873">
				<ele>19.7588</ele>
				<time>2025-07-03T15:35:16.000000Z</time>
			</trkpt>
			<trkpt lat="16.418970561903176" lon="-86.32589731588183">
				<ele>19.6765</ele>
				<time>2025-07-03T15:35:17.000000Z</time>
			</trkpt>
			<trkpt lat="16.41898699330013" lon="-86.32592189129626">
				<ele>19.6837</ele>
				<time>2025-07-03T15:35:18.000000Z</time>
			</trkpt>
			<trkpt lat="16.419002976049686" lon="-86.32594700148005">
				<ele>19.6794</ele>
				<time>2025-07-03T15:35:19.000000Z</time>
			</trkpt>
			<trkpt lat="16.41901995372865" lon="-86.3259723078001">
				<ele>19.7001</ele>
				<time>2025-07-03T15:35:20.000000Z</time>
			</trkpt>
			<trkpt lat="16.41903668434753" lon="-86.32599608010536">
				<ele>19.8465</ele>
				<time>2025-07-03T15:35:21.000000Z</time>
			</trkpt>
			<trkpt lat="16.419056009898963" lon="-86.3260182617031">
				<ele>20.1919</ele>
				<time>2025-07-03T15:35:22.000000Z</time>
			</trkpt>
			<trkpt lat="16.419078543628917" lon="-86.3260379320869">
				<ele>20.4698</ele>
				<time>2025-07-03T15:35:23.000000Z</time>
			</trkpt>
			<trkpt lat="16.419097855915904" lon="-86.32605650299146">
				<ele>20.5795</ele>
				<time>2025-07-03T15:35:24.000000Z</time>
			</trkpt>
			<trkpt lat="16.41911243115265" lon="-86.32607390212691">
				<ele>20.8236</ele>
				<time>2025-07-03T15:35:25.000000Z</time>
			</trkpt>
			<trkpt lat="16.419125136011527" lon="-86.3260958439291">
				<ele>21.072</ele>
				<time>2025-07-03T15:35:26.000000Z</time>
			</trkpt>
			<trkpt lat="16.41913858579941" lon="-86.32612650395488">
				<ele>21.2936</ele>
				<time>2025-07-03T15:35:27.000000Z</time>
			</trkpt>
			<trkpt lat="16.41915286297719" lon="-86.32617141452998">
				<ele>21.5323</ele>
				<time>2025-07-03T15:35:28.000000Z</time>
			</trkpt>
			<trkpt lat="16.419166106587838" lon="-86.32622538977307">
				<ele>21.7149</ele>
				<time>2025-07-03T15:35:29.000000Z</time>
			</trkpt>
			<trkpt lat="16.41917810128566" lon="-86.32628702221142">
				<ele>21.9388</ele>
				<time>2025-07-03T15:35:30.000000Z</time>
			</trkpt>
			<trkpt lat="16.41918694106293" lon="-86.32635556704261">
				<ele>21.9331</ele>
				<time>2025-07-03T15:35:31.000000Z</time>
			</trkpt>
			<trkpt lat="16.419188376317592" lon="-86.32642707634095">
				<ele>21.9002</ele>
				<time>2025-07-03T15:35:32.000000Z</time>
			</trkpt>
			<trkpt lat="16.419184930085887" lon="-86.3264981132103">
				<ele>21.7182</ele>
				<time>2025-07-03T15:35:33.000000Z</time>
			</trkpt>
			<trkpt lat="16.41917292463294" lon="-86.32657039527443">
				<ele>21.1948</ele>
				<time>2025-07-03T15:35:34.000000Z</time>
			</trkpt>
			<trkpt lat="16.419153138424697" lon="-86.32664313420652">
				<ele>20.747</ele>
				<time>2025-07-03T15:35:35.000000Z</time>
			</trkpt>
			<trkpt lat="16.4191254361095" lon="-86.32671851059814">
				<ele>20.1227</ele>
				<time>2025-07-03T15:35:36.000000Z</time>
			</trkpt>
			<trkpt lat="16.41909106087246" lon="-86.326793288599">
				<ele>19.4576</ele>
				<time>2025-07-03T15:35:37.000000Z</time>
			</trkpt>
			<trkpt lat="16.41905045725496" lon="-86.32686259743271">
				<ele>18.6684</ele>
				<time>2025-07-03T15:35:38.000000Z</time>
			</trkpt>
			<trkpt lat="16.419003804470666" lon="-86.32692887529305">
				<ele>18.096</ele>
				<time>2025-07-03T15:35:39.000000Z</time>
			</trkpt>
			<trkpt lat="16.418948812054694" lon="-86.3269953943153">
				<ele>17.7269</ele>
				<time>2025-07-03T15:35:40.000000Z</time>
			</trkpt>
			<trkpt lat="16.418885466819308" lon="-86.32705628861584">
				<ele>17.3519</ele>
				<time>2025-07-03T15:35:41.000000Z</time>
			</trkpt>
			<trkpt lat="16.418820989250882" lon="-86.32711527764472">
				<ele>17.0464</ele>
				<time>2025-07-03T15:35:42.000000Z</time>
			</trkpt>
			<trkpt lat="16.418755635286388" lon="-86.32717293671894">
				<ele>16.9268</ele>
				<time>2025-07-03T15:35:43.000000Z</time>
			</trkpt>
			<trkpt lat="16.418686609802798" lon="-86.32722681736034">
				<ele>16.7127</ele>
				<time>2025-07-03T15:35:44.000000Z</time>
			</trkpt>
			<trkpt lat="16.41861421981816" lon="-86.32727567879874">
				<ele>16.2656</ele>
				<time>2025-07-03T15:35:45.000000Z</time>
			</trkpt>
			<trkpt lat="16.418538220056693" lon="-86.32732482092013">
				<ele>15.8367</ele>
				<time>2025-07-03T15:35:46.000000Z</time>
			</trkpt>
			<trkpt lat="16.41845708236295" lon="-86.32737541448071">
				<ele>15.6499</ele>
				<time>2025-07-03T15:35:47.000000Z</time>
			</trkpt>
			<trkpt lat="16.41837392965212" lon="-86.32742852216617">
				<ele>15.776</ele>
				<time>2025-07-03T15:35:48.000000Z</time>
			</trkpt>
			<trkpt lat="16.418291941841115" lon="-86.32748348731168">
				<ele>15.8164</ele>
				<time>2025-07-03T15:35:49.000000Z</time>
			</trkpt>
			<trkpt lat="16.41821308742535" lon="-86.32754314203257">
				<ele>15.6753</ele>
				<time>2025-07-03T15:35:50.000000Z</time>
			</trkpt>
			<trkpt lat="16.418137009556883" lon="-86.3276076228527">
				<ele>15.6443</ele>
				<time>2025-07-03T15:35:51.000000Z</time>
			</trkpt>
			<trkpt lat="16.418064862294017" lon="-86.3276784598311">
				<ele>15.6972</ele>
				<time>2025-07-03T15:35:52.000000Z</time>
			</trkpt>
			<trkpt lat="16.41799920254753" lon="-86.32775369625693">
				<ele>15.6366</ele>
				<time>2025-07-03T15:35:53.000000Z</time>
			</trkpt>
			<trkpt lat="16.41794014604893" lon="-86.32783132412273">
				<ele>15.7025</ele>
				<time>2025-07-03T15:35:54.000000Z</time>
			</trkpt>
			<trkpt lat="16.417892044993273" lon="-86.32791712236431">
				<ele>15.5863</ele>
				<time>2025-07-03T15:35:55.000000Z</time>
			</trkpt>
			<trkpt lat="16.41785535521478" lon="-86.32801020211281">
				<ele>15.5888</ele>
				<time>2025-07-03T15:35:56.000000Z</time>
			</trkpt>
			<trkpt lat="16.41782664145933" lon="-86.32810705228087">
				<ele>15.3902</ele>
				<time>2025-07-03T15:35:57.000000Z</time>
			</trkpt>
			<trkpt lat="16.417805582114617" lon="-86.32820775565698">
				<ele>15.4144</ele>
				<time>2025-07-03T15:35:58.000000Z</time>
			</trkpt>
			<trkpt lat="16.417791090587162" lon="-86.32831017545628">
				<ele>15.2403</ele>
				<time>2025-07-03T15:35:59.000000Z</time>
			</trkpt>
			<trkpt lat="16.417776774457735" lon="-86.32841316068107">
				<ele>15.0662</ele>
				<time>2025-07-03T15:36:00.000000Z</time>
			</trkpt>
			<trkpt lat="16.417763248609077" lon="-86.32851557987621">
				<ele>15.077</ele>
				<time>2025-07-03T15:36:01.000000Z</time>
			</trkpt>
			<trkpt lat="16.417748887099215" lon="-86.32861727674619">
				<ele>15.1003</ele>
				<time>2025-07-03T15:36:02.000000Z</time>
			</trkpt>
			<trkpt lat="16.41773393623627" lon="-86.3287178735879">
				<ele>15.0301</ele>
				<time>2025-07-03T15:36:03.000000Z</time>
			</trkpt>
			<trkpt lat="16.41771641984598" lon="-86.32881677239332">
				<ele>14.6679</ele>
				<time>2025-07-03T15:36:04.000000Z</time>
			</trkpt>
			<trkpt lat="16.417688327614584" lon="-86.32891029464747">
				<ele>14.3031</ele>
				<time>2025-07-03T15:36:05.000000Z</time>
			</trkpt>
			<trkpt lat="16.417644228592174" lon="-86.32899340768124">
				<ele>14.1579</ele>
				<time>2025-07-03T15:36:06.000000Z</time>
			</trkpt>
			<trkpt lat="16.417585616016748" lon="-86.32906352096865">
				<ele>14.0733</ele>
				<time>2025-07-03T15:36:07.000000Z</time>
			</trkpt>
			<trkpt lat="16.417514479268608" lon="-86.3291192941557">
				<ele>13.939</ele>
				<time>2025-07-03T15:36:08.000000Z</time>
			</trkpt>
			<trkpt lat="16.417434395333114" lon="-86.32915899794604">
				<ele>13.8626</ele>
				<time>2025-07-03T15:36:09.000000Z</time>
			</trkpt>
			<trkpt lat="16.41734385856736" lon="-86.32918278783089">
				<ele>14.0692</ele>
				<time>2025-07-03T15:36:10.000000Z</time>
			</trkpt>
			<trkpt lat="16.417245458311765" lon="-86.32919425859838">
				<ele>14.2544</ele>
				<time>2025-07-03T15:36:11.000000Z</time>
			</trkpt>
			<trkpt lat="16.417141449276706" lon="-86.32920094320627">
				<ele>14.1167</ele>
				<time>2025-07-03T15:36:12.000000Z</time>
			</trkpt>
			<trkpt lat="16.41703302795544" lon="-86.32920924856391">
				<ele>13.9714</ele>
				<time>2025-07-03T15:36:13.000000Z</time>
			</trkpt>
			<trkpt lat="16.41692385896212" lon="-86.32921801785123">
				<ele>13.6908</ele>
				<time>2025-07-03T15:36:14.000000Z</time>
			</trkpt>
			<trkpt lat="16.416815780305757" lon="-86.3292270087629">
				<ele>13.3755</ele>
				<time>2025-07-03T15:36:15.000000Z</time>
			</trkpt>
			<trkpt lat="16.416711692351342" lon="-86.32924297626329">
				<ele>13.0624</ele>
				<time>2025-07-03T15:36:16.000000Z</time>
			</trkpt>
			<trkpt lat="16.41661159243141" lon="-86.3292752774099">
				<ele>12.7552</ele>
				<time>2025-07-03T15:36:17.000000Z</time>
			</trkpt>
			<trkpt lat="16.416518956073606" lon="-86.32932301807537">
				<ele>12.843</ele>
				<time>2025-07-03T15:36:18.000000Z</time>
			</trkpt>
			<trkpt lat="16.416432855839325" lon="-86.32938617095469">
				<ele>13.2669</ele>
				<time>2025-07-03T15:36:19.000000Z</time>
			</trkpt>
			<trkpt lat="16.416358316502244" lon="-86.32946064266217">
				<ele>13.5662</ele>
				<time>2025-07-03T15:36:20.000000Z</time>
			</trkpt>
			<trkpt lat="16.416296267098982" lon="-86.32954776487534">
				<ele>13.6614</ele>
				<time>2025-07-03T15:36:21.000000Z</time>
			</trkpt>
			<trkpt lat="16.416243952109433" lon="-86.3296439922517">
				<ele>13.6086</ele>
				<time>2025-07-03T15:36:22.000000Z</time>
			</trkpt>
			<trkpt lat="16.416207117676215" lon="-86.32974812889698">
				<ele>13.3752</ele>
				<time>2025-07-03T15:36:23.000000Z</time>
			</trkpt>
			<trkpt lat="16.41618409492875" lon="-86.32985936254056">
				<ele>13.369</ele>
				<time>2025-07-03T15:36:24.000000Z</time>
			</trkpt>
			<trkpt lat="16.416176833202787" lon="-86.32997559161804">
				<ele>13.6232</ele>
				<time>2025-07-03T15:36:25.000000Z</time>
			</trkpt>
			<trkpt lat="16.41617503509304" lon="-86.33009313529578">
				<ele>13.7493</ele>
				<time>2025-07-03T15:36:26.000000Z</time>
			</trkpt>
			<trkpt lat="16.416169406061442" lon="-86.33021004876977">
				<ele>13.7084</ele>
				<time>2025-07-03T15:36:27.000000Z</time>
			</trkpt>
			<trkpt lat="16.416158592976057" lon="-86.33032813201649">
				<ele>13.7536</ele>
				<time>2025-07-03T15:36:28.000000Z</time>
			</trkpt>
			<trkpt lat="16.416145602291355" lon="-86.33044439453022">
				<ele>13.9098</ele>
				<time>2025-07-03T15:36:29.000000Z</time>
			</trkpt>
			<trkpt lat="16.416126941164972" lon="-86.33055823561244">
				<ele>14.1313</ele>
				<time>2025-07-03T15:36:30.000000Z</time>
			</trkpt>
			<trkpt lat="16.416099515585415" lon="-86.33066807638826">
				<ele>14.2482</ele>
				<time>2025-07-03T15:36:31.000000Z</time>
			</trkpt>
			<trkpt lat="16.416069266324808" lon="-86.330773935395">
				<ele>14.4009</ele>
				<time>2025-07-03T15:36:32.000000Z</time>
			</trkpt>
			<trkpt lat="16.416042398728028" lon="-86.33087912049793">
				<ele>14.6406</ele>
				<time>2025-07-03T15:36:33.000000Z</time>
			</trkpt>
			<trkpt lat="16.4160215243369" lon="-86.33098272023597">
				<ele>14.869</ele>
				<time>2025-07-03T15:36:34.000000Z</time>
			</trkpt>
			<trkpt lat="16.416004104706136" lon="-86.33108221788848">
				<ele>15.1273</ele>
				<time>2025-07-03T15:36:35.000000Z</time>
			</trkpt>
			<trkpt lat="16.41598816430041" lon="-86.33117952272401">
				<ele>15.2494</ele>
				<time>2025-07-03T15:36:36.000000Z</time>
			</trkpt>
			<trkpt lat="16.4159706481729" lon="-86.33127336548971">
				<ele>15.4364</ele>
				<time>2025-07-03T15:36:37.000000Z</time>
			</trkpt>
			<trkpt lat="16.415956359947728" lon="-86.33136328204789">
				<ele>15.6375</ele>
				<time>2025-07-03T15:36:38.000000Z</time>
			</trkpt>
			<trkpt lat="16.415943667826557" lon="-86.33144610943816">
				<ele>15.7966</ele>
				<time>2025-07-03T15:36:39.000000Z</time>
			</trkpt>
			<trkpt lat="16.41593093841659" lon="-86.33152832122222">
				<ele>16.0437</ele>
				<time>2025-07-03T15:36:40.000000Z</time>
			</trkpt>
			<trkpt lat="16.41591581345179" lon="-86.33160932208364">
				<ele>16.1825</ele>
				<time>2025-07-03T15:36:41.000000Z</time>
			</trkpt>
			<trkpt lat="16.415900570251868" lon="-86.33168715937322">
				<ele>16.3068</ele>
				<time>2025-07-03T15:36:42.000000Z</time>
			</trkpt>
			<trkpt lat="16.41588461492524" lon="-86.33176281037113">
				<ele>16.5167</ele>
				<time>2025-07-03T15:36:43.000000Z</time>
			</trkpt>
			<trkpt lat="16.415869533462228" lon="-86.33183640230227">
				<ele>16.6435</ele>
				<time>2025-07-03T15:36:44.000000Z</time>
			</trkpt>
			<trkpt lat="16.415854631080308" lon="-86.33190909064975">
				<ele>16.6175</ele>
				<time>2025-07-03T15:36:45.000000Z</time>
			</trkpt>
			<trkpt lat="16.415838780522478" lon="-86.33198079438365">
				<ele>16.596</ele>
				<time>2025-07-03T15:36:46.000000Z</time>
			</trkpt>
			<trkpt lat="16.415817761754653" lon="-86.33205100580618">
				<ele>16.4266</ele>
				<time>2025-07-03T15:36:47.000000Z</time>
			</trkpt>
			<trkpt lat="16.4157959753759" lon="-86.33211909865646">
				<ele>16.259</ele>
				<time>2025-07-03T15:36:48.000000Z</time>
			</trkpt>
			<trkpt lat="16.415779274097616" lon="-86.33218939337287">
				<ele>16.2801</ele>
				<time>2025-07-03T15:36:49.000000Z</time>
			</trkpt>
			<trkpt lat="16.415766571162997" lon="-86.33226358432954">
				<ele>16.2296</ele>
				<time>2025-07-03T15:36:50.000000Z</time>
			</trkpt>
			<trkpt lat="16.41575234449265" lon="-86.33234025062197">
				<ele>16.1081</ele>
				<time>2025-07-03T15:36:51.000000Z</time>
			</trkpt>
			<trkpt lat="16.415735572139727" lon="-86.33241800680449">
				<ele>15.9663</ele>
				<time>2025-07-03T15:36:52.000000Z</time>
			</trkpt>
			<trkpt lat="16.415718540576208" lon="-86.33249570628462">
				<ele>16.0099</ele>
				<time>2025-07-03T15:36:53.000000Z</time>
			</trkpt>
			<trkpt lat="16.415699838714918" lon="-86.33257217438675">
				<ele>16.1246</ele>
				<time>2025-07-03T15:36:54.000000Z</time>
			</trkpt>
			<trkpt lat="16.41568119786286" lon="-86.33264787996335">
				<ele>16.2788</ele>
				<time>2025-07-03T15:36:55.000000Z</time>
			</trkpt>
			<trkpt lat="16.415661228414727" lon="-86.33272215823398">
				<ele>16.3326</ele>
				<time>2025-07-03T15:36:56.000000Z</time>
			</trkpt>
			<trkpt lat="16.415640326475135" lon="-86.33279559921401">
				<ele>16.3056</ele>
				<time>2025-07-03T15:36:57.000000Z</time>
			</trkpt>
			<trkpt lat="16.415620573033774" lon="-86.33286867747785">
				<ele>16.1479</ele>
				<time>2025-07-03T15:36:58.000000Z</time>
			</trkpt>
			<trkpt lat="16.41560262601587" lon="-86.33294349000283">
				<ele>15.9948</ele>
				<time>2025-07-03T15:36:59.000000Z</time>
			</trkpt>
			<trkpt lat="16.41558744216288" lon="-86.33302147145686">
				<ele>15.8361</ele>
				<time>2025-07-03T15:37:00.000000Z</time>
			</trkpt>
			<trkpt lat="16.41558022651357" lon="-86.33310199098203">
				<ele>15.7585</ele>
				<time>2025-07-03T15:37:01.000000Z</time>
			</trkpt>
			<trkpt lat="16.41558429815579" lon="-86.33318751162322">
				<ele>15.6861</ele>
				<time>2025-07-03T15:37:02.000000Z</time>
			</trkpt>
			<trkpt lat="16.41560139604829" lon="-86.333277854685">
				<ele>15.5624</ele>
				<time>2025-07-03T15:37:03.000000Z</time>
			</trkpt>
			<trkpt lat="16.415631735062505" lon="-86.33337057340783">
				<ele>15.5921</ele>
				<time>2025-07-03T15:37:04.000000Z</time>
			</trkpt>
			<trkpt lat="16.41567129784679" lon="-86.33346418657133">
				<ele>15.4863</ele>
				<time>2025-07-03T15:37:05.000000Z</time>
			</trkpt>
			<trkpt lat="16.415719247196584" lon="-86.33355303242334">
				<ele>15.4842</ele>
				<time>2025-07-03T15:37:06.000000Z</time>
			</trkpt>
			<trkpt lat="16.415772625304726" lon="-86.33363592097804">
				<ele>15.6385</ele>
				<time>2025-07-03T15:37:07.000000Z</time>
			</trkpt>
			<trkpt lat="16.415829131601928" lon="-86.33371785362235">
				<ele>15.7409</ele>
				<time>2025-07-03T15:37:08.000000Z</time>
			</trkpt>
			<trkpt lat="16.41589107759038" lon="-86.33379742251789">
				<ele>15.8305</ele>
				<time>2025-07-03T15:37:09.000000Z</time>
			</trkpt>
			<trkpt lat="16.415957348974686" lon="-86.33387468148743">
				<ele>15.9296</ele>
				<time>2025-07-03T15:37:10.000000Z</time>
			</trkpt>
			<trkpt lat="16.416024960732052" lon="-86.33394837178228">
				<ele>16.0302</ele>
				<time>2025-07-03T15:37:11.000000Z</time>
			</trkpt>
			<trkpt lat="16.416091722026216" lon="-86.3340203523093">
				<ele>15.9194</ele>
				<time>2025-07-03T15:37:12.000000Z</time>
			</trkpt>
			<trkpt lat="16.416155434760565" lon="-86.33409228652751">
				<ele>15.8073</ele>
				<time>2025-07-03T15:37:13.000000Z</time>
			</trkpt>
			<trkpt lat="16.416219929732712" lon="-86.33416344091891">
				<ele>15.5405</ele>
				<time>2025-07-03T15:37:14.000000Z</time>
			</trkpt>
			<trkpt lat="16.416285047349906" lon="-86.33423317089574">
				<ele>15.3269</ele>
				<time>2025-07-03T15:37:15.000000Z</time>
			</trkpt>
			<trkpt lat="16.416349824266696" lon="-86.33430311395414">
				<ele>15.1484</ele>
				<time>2025-07-03T15:37:16.000000Z</time>
			</trkpt>
			<trkpt lat="16.41641079152895" lon="-86.33437347541678">
				<ele>15.1734</ele>
				<time>2025-07-03T15:37:17.000000Z</time>
			</trkpt>
			<trkpt lat="16.41646690820688" lon="-86.33444353949045">
				<ele>15.2922</ele>
				<time>2025-07-03T15:37:18.000000Z</time>
			</trkpt>
			<trkpt lat="16.41652186925218" lon="-86.33451062219443">
				<ele>15.6049</ele>
				<time>2025-07-03T15:37:19.000000Z</time>
			</trkpt>
			<trkpt lat="16.416574526159934" lon="-86.33457504646547">
				<ele>15.8811</ele>
				<time>2025-07-03T15:37:20.000000Z</time>
			</trkpt>
			<trkpt lat="16.416622476673666" lon="-86.33463747993457">
				<ele>16.2797</ele>
				<time>2025-07-03T15:37:21.000000Z</time>
			</trkpt>
			<trkpt lat="16.416667091453032" lon="-86.33470067516926">
				<ele>16.8082</ele>
				<time>2025-07-03T15:37:22.000000Z</time>
			</trkpt>
			<trkpt lat="16.41670976461046" lon="-86.33476638275933">
				<ele>17.5551</ele>
				<time>2025-07-03T15:37:23.000000Z</time>
			</trkpt>
			<trkpt lat="16.41674827226861" lon="-86.33483794257086">
				<ele>18.2434</ele>
				<time>2025-07-03T15:37:24.000000Z</time>
			</trkpt>
			<trkpt lat="16.416782817854703" lon="-86.33490857128727">
				<ele>19.0667</ele>
				<time>2025-07-03T15:37:25.000000Z</time>
			</trkpt>
			<trkpt lat="16.416814691157985" lon="-86.33497880679079">
				<ele>19.5983</ele>
				<time>2025-07-03T15:37:26.000000Z</time>
			</trkpt>
			<trkpt lat="16.416843213646874" lon="-86.33505192822518">
				<ele>19.9316</ele>
				<time>2025-07-03T15:37:27.000000Z</time>
			</trkpt>
			<trkpt lat="16.416870415122087" lon="-86.33512414539283">
				<ele>20.4271</ele>
				<time>2025-07-03T15:37:28.000000Z</time>
			</trkpt>
			<trkpt lat="16.41689215019033" lon="-86.33519576284434">
				<ele>20.7319</ele>
				<time>2025-07-03T15:37:29.000000Z</time>
			</trkpt>
			<trkpt lat="16.416902294809244" lon="-86.33526642358271">
				<ele>20.8669</ele>
				<time>2025-07-03T15:37:30.000000Z</time>
			</trkpt>
			<trkpt lat="16.41689952433861" lon="-86.3353397405649">
				<ele>20.9409</ele>
				<time>2025-07-03T15:37:31.000000Z</time>
			</trkpt>
			<trkpt lat="16.4168841311367" lon="-86.33541281217872">
				<ele>20.9057</ele>
				<time>2025-07-03T15:37:32.000000Z</time>
			</trkpt>
			<trkpt lat="16.416855419097548" lon="-86.33548317746624">
				<ele>20.9609</ele>
				<time>2025-07-03T15:37:33.000000Z</time>
			</trkpt>
			<trkpt lat="16.41681515177304" lon="-86.33554960700094">
				<ele>21.0218</ele>
				<time>2025-07-03T15:37:34.000000Z</time>
			</trkpt>
			<trkpt lat="16.416762493000437" lon="-86.3356063054043">
				<ele>20.9167</ele>
				<time>2025-07-03T15:37:35.000000Z</time>
			</trkpt>
			<trkpt lat="16.416700809071866" lon="-86.33565238514345">
				<ele>20.693</ele>
				<time>2025-07-03T15:37:36.000000Z</time>
			</trkpt>
			<trkpt lat="16.41662946451451" lon="-86.33568942102451">
				<ele>20.5406</ele>
				<time>2025-07-03T15:37:37.000000Z</time>
			</trkpt>
			<trkpt lat="16.416552019878498" lon="-86.33572306692372">
				<ele>20.5383</ele>
				<time>2025-07-03T15:37:38.000000Z</time>
			</trkpt>
			<trkpt lat="16.416472061743544" lon="-86.33576130566887">
				<ele>20.2255</ele>
				<time>2025-07-03T15:37:39.000000Z</time>
			</trkpt>
			<trkpt lat="16.416391038800338" lon="-86.33580630135634">
				<ele>19.7504</ele>
				<time>2025-07-03T15:37:40.000000Z</time>
			</trkpt>
			<trkpt lat="16.41630899377109" lon="-86.33585842317277">
				<ele>19.2385</ele>
				<time>2025-07-03T15:37:41.000000Z</time>
			</trkpt>
			<trkpt lat="16.416226536901878" lon="-86.33591884853013">
				<ele>18.6447</ele>
				<time>2025-07-03T15:37:42.000000Z</time>
			</trkpt>
			<trkpt lat="16.41615205593836" lon="-86.33599125351971">
				<ele>18.1084</ele>
				<time>2025-07-03T15:37:43.000000Z</time>
			</trkpt>
			<trkpt lat="16.416093948098755" lon="-86.33607908682129">
				<ele>17.8219</ele>
				<time>2025-07-03T15:37:44.000000Z</time>
			</trkpt>
			<trkpt lat="16.416055336633327" lon="-86.33618123409354">
				<ele>17.9275</ele>
				<time>2025-07-03T15:37:45.000000Z</time>
			</trkpt>
			<trkpt lat="16.416035379680793" lon="-86.33628523650059">
				<ele>17.6501</ele>
				<time>2025-07-03T15:37:46.000000Z</time>
			</trkpt>
			<trkpt lat="16.416026535849838" lon="-86.33637880815643">
				<ele>17.2535</ele>
				<time>2025-07-03T15:37:47.000000Z</time>
			</trkpt>
			<trkpt lat="16.416022474425336" lon="-86.33645712985954">
				<ele>16.8467</ele>
				<time>2025-07-03T15:37:48.000000Z</time>
			</trkpt>
			<trkpt lat="16.41601884718023" lon="-86.33652445318428">
				<ele>16.5549</ele>
				<time>2025-07-03T15:37:49.000000Z</time>
			</trkpt>
			<trkpt lat="16.416015953276908" lon="-86.3365872560692">
				<ele>16.5406</ele>
				<time>2025-07-03T15:37:50.000000Z</time>
			</trkpt>
			<trkpt lat="16.416012012935663" lon="-86.33664777230665">
				<ele>16.7163</ele>
				<time>2025-07-03T15:37:51.000000Z</time>
			</trkpt>
			<trkpt lat="16.416006331137904" lon="-86.33670723469947">
				<ele>16.618</ele>
				<time>2025-07-03T15:37:52.000000Z</time>
			</trkpt>
			<trkpt lat="16.416001189945106" lon="-86.33676606149663">
				<ele>16.5298</ele>
				<time>2025-07-03T15:37:53.000000Z</time>
			</trkpt>
			<trkpt lat="16.415996614249984" lon="-86.33682199036132">
				<ele>16.4919</ele>
				<time>2025-07-03T15:37:54.000000Z</time>
			</trkpt>
			<trkpt lat="16.415992547615215" lon="-86.33688056310348">
				<ele>16.1831</ele>
				<time>2025-07-03T15:37:55.000000Z</time>
			</trkpt>
			<trkpt lat="16.415988857232705" lon="-86.33694149808674">
				<ele>16.0855</ele>
				<time>2025-07-03T15:37:56.000000Z</time>
			</trkpt>
			<trkpt lat="16.415987512421918" lon="-86.3370009926079">
				<ele>16.1244</ele>
				<time>2025-07-03T15:37:57.000000Z</time>
			</trkpt>
			<trkpt lat="16.415986176951087" lon="-86.33705896570342">
				<ele>16.2254</ele>
				<time>2025-07-03T15:37:58.000000Z</time>
			</trkpt>
			<trkpt lat="16.415983674591423" lon="-86.33711593105318">
				<ele>16.4461</ele>
				<time>2025-07-03T15:37:59.000000Z</time>
			</trkpt>
			<trkpt lat="16.415980888185548" lon="-86.33717443493067">
				<ele>16.3361</ele>
				<time>2025-07-03T15:38:00.000000Z</time>
			</trkpt>
			<trkpt lat="16.415978868523354" lon="-86.3372305612823">
				<ele>16.3942</ele>
				<time>2025-07-03T15:38:01.000000Z</time>
			</trkpt>
			<trkpt lat="16.415976406493122" lon="-86.33728296655468">
				<ele>16.4735</ele>
				<time>2025-07-03T15:38:02.000000Z</time>
			</trkpt>
			<trkpt lat="16.415975076545635" lon="-86.3373336397671">
				<ele>16.5154</ele>
				<time>2025-07-03T15:38:03.000000Z</time>
			</trkpt>
			<trkpt lat="16.415972966125832" lon="-86.3373867657275">
				<ele>16.5027</ele>
				<time>2025-07-03T15:38:04.000000Z</time>
			</trkpt>
			<trkpt lat="16.415970534701252" lon="-86.33744071617069">
				<ele>16.6904</ele>
				<time>2025-07-03T15:38:05.000000Z</time>
			</trkpt>
			<trkpt lat="16.41596854227556" lon="-86.33749052982257">
				<ele>17.065</ele>
				<time>2025-07-03T15:38:06.000000Z</time>
			</trkpt>
			<trkpt lat="16.4159670073129" lon="-86.33754144743315">
				<ele>17.5096</ele>
				<time>2025-07-03T15:38:07.000000Z</time>
			</trkpt>
			<trkpt lat="16.415963372916156" lon="-86.3376001284033">
				<ele>17.8462</ele>
				<time>2025-07-03T15:38:08.000000Z</time>
			</trkpt>
			<trkpt lat="16.415960311327492" lon="-86.33766690375107">
				<ele>18.058</ele>
				<time>2025-07-03T15:38:09.000000Z</time>
			</trkpt>
			<trkpt lat="16.41595704512565" lon="-86.33773956451861">
				<ele>18.4286</ele>
				<time>2025-07-03T15:38:10.000000Z</time>
			</trkpt>
			<trkpt lat="16.415953149620297" lon="-86.3378152354783">
				<ele>18.6639</ele>
				<time>2025-07-03T15:38:11.000000Z</time>
			</trkpt>
			<trkpt lat="16.41595017583176" lon="-86.3378957969589">
				<ele>18.9752</ele>
				<time>2025-07-03T15:38:12.000000Z</time>
			</trkpt>
			<trkpt lat="16.415950553782604" lon="-86.33798132572103">
				<ele>19.4932</ele>
				<time>2025-07-03T15:38:13.000000Z</time>
			</trkpt>
			<trkpt lat="16.415949055975812" lon="-86.33806868148206">
				<ele>20.1879</ele>
				<time>2025-07-03T15:38:14.000000Z</time>
			</trkpt>
			<trkpt lat="16.41594931655294" lon="-86.33815766654489">
				<ele>20.7551</ele>
				<time>2025-07-03T15:38:15.000000Z</time>
			</trkpt>
			<trkpt lat="16.415952177972272" lon="-86.33824556071315">
				<ele>21.104</ele>
				<time>2025-07-03T15:38:16.000000Z</time>
			</trkpt>
			<trkpt lat="16.41595281717137" lon="-86.33832907118037">
				<ele>21.3729</ele>
				<time>2025-07-03T15:38:17.000000Z</time>
			</trkpt>
			<trkpt lat="16.415953711496083" lon="-86.33840772857863">
				<ele>21.7959</ele>
				<time>2025-07-03T15:38:18.000000Z</time>
			</trkpt>
			<trkpt lat="16.415953392406443" lon="-86.3384806656638">
				<ele>22.0751</ele>
				<time>2025-07-03T15:38:19.000000Z</time>
			</trkpt>
			<trkpt lat="16.41595331538005" lon="-86.33854797661617">
				<ele>22.2225</ele>
				<time>2025-07-03T15:38:20.000000Z</time>
			</trkpt>
			<trkpt lat="16.415953328480846" lon="-86.33860836352227">
				<ele>22.4886</ele>
				<time>2025-07-03T15:38:21.000000Z</time>
			</trkpt>
			<trkpt lat="16.415951679163907" lon="-86.33866338375582">
				<ele>23.0997</ele>
				<time>2025-07-03T15:38:22.000000Z</time>
			</trkpt>
			<trkpt lat="16.415949556855608" lon="-86.33871137605928">
				<ele>23.3116</ele>
				<time>2025-07-03T15:38:23.000000Z</time>
			</trkpt>
			<trkpt lat="16.415946852633617" lon="-86.33875343699833">
				<ele>23.2202</ele>
				<time>2025-07-03T15:38:24.000000Z</time>
			</trkpt>
			<trkpt lat="16.415941531915863" lon="-86.338792895668">
				<ele>23.4395</ele>
				<time>2025-07-03T15:38:25.000000Z</time>
			</trkpt>
			<trkpt lat="16.41593211480596" lon="-86.33883229030941">
				<ele>23.7064</ele>
				<time>2025-07-03T15:38:26.000000Z</time>
			</trkpt>
			<trkpt lat="16.415918316376036" lon="-86.33887480786602">
				<ele>24.423</ele>
				<time>2025-07-03T15:38:27.000000Z</time>
			</trkpt>
			<trkpt lat="16.415900351293843" lon="-86.3389165707871">
				<ele>24.8297</ele>
				<time>2025-07-03T15:38:28.000000Z</time>
			</trkpt>
			<trkpt lat="16.41588326206512" lon="-86.33895154839412">
				<ele>24.8785</ele>
				<time>2025-07-03T15:38:29.000000Z</time>
			</trkpt>
			<trkpt lat="16.415862059386516" lon="-86.33898352467097">
				<ele>24.8042</ele>
				<time>2025-07-03T15:38:30.000000Z</time>
			</trkpt>
			<trkpt lat="16.415836233858425" lon="-86.3390145470177">
				<ele>25.0993</ele>
				<time>2025-07-03T15:38:31.000000Z</time>
			</trkpt>
			<trkpt lat="16.415805000913284" lon="-86.33904815687806">
				<ele>25.6553</ele>
				<time>2025-07-03T15:38:32.000000Z</time>
			</trkpt>
			<trkpt lat="16.41577026129578" lon="-86.33907709911036">
				<ele>25.803</ele>
				<time>2025-07-03T15:38:33.000000Z</time>
			</trkpt>
			<trkpt lat="16.415732072998953" lon="-86.33910373269048">
				<ele>25.8209</ele>
				<time>2025-07-03T15:38:34.000000Z</time>
			</trkpt>
			<trkpt lat="16.41569115555074" lon="-86.33912601058039">
				<ele>26.0338</ele>
				<time>2025-07-03T15:38:35.000000Z</time>
			</trkpt>
			<trkpt lat="16.41564815651761" lon="-86.33914271848222">
				<ele>26.3207</ele>
				<time>2025-07-03T15:38:36.000000Z</time>
			</trkpt>
			<trkpt lat="16.415605981711625" lon="-86.33915669784449">
				<ele>26.3424</ele>
				<time>2025-07-03T15:38:37.000000Z</time>
			</trkpt>
			<trkpt lat="16.41556000100735" lon="-86.33916823609704">
				<ele>26.3301</ele>
				<time>2025-07-03T15:38:38.000000Z</time>
			</trkpt>
			<trkpt lat="16.415508833101153" lon="-86.33918074429914">
				<ele>26.6565</ele>
				<time>2025-07-03T15:38:39.000000Z</time>
			</trkpt>
			<trkpt lat="16.415454779914196" lon="-86.33919301513896">
				<ele>26.8699</ele>
				<time>2025-07-03T15:38:40.000000Z</time>
			</trkpt>
			<trkpt lat="16.415401241669993" lon="-86.33920578414349">
				<ele>26.8231</ele>
				<time>2025-07-03T15:38:41.000000Z</time>
			</trkpt>
			<trkpt lat="16.415349306753825" lon="-86.3392227672151">
				<ele>27.0338</ele>
				<time>2025-07-03T15:38:42.000000Z</time>
			</trkpt>
			<trkpt lat="16.415299719400977" lon="-86.33924507095118">
				<ele>27.3388</ele>
				<time>2025-07-03T15:38:43.000000Z</time>
			</trkpt>
			<trkpt lat="16.41525146987172" lon="-86.33927110909424">
				<ele>27.452</ele>
				<time>2025-07-03T15:38:44.000000Z</time>
			</trkpt>
			<trkpt lat="16.415204297146598" lon="-86.3393016791584">
				<ele>27.5319</ele>
				<time>2025-07-03T15:38:45.000000Z</time>
			</trkpt>
			<trkpt lat="16.415159167559985" lon="-86.33933425802844">
				<ele>27.7901</ele>
				<time>2025-07-03T15:38:46.000000Z</time>
			</trkpt>
			<trkpt lat="16.41511770952346" lon="-86.3393724632363">
				<ele>27.8427</ele>
				<time>2025-07-03T15:38:47.000000Z</time>
			</trkpt>
			<trkpt lat="16.415080329084752" lon="-86.33941204894971">
				<ele>27.7045</ele>
				<time>2025-07-03T15:38:48.000000Z</time>
			</trkpt>
			<trkpt lat="16.415044755500972" lon="-86.33945417959764">
				<ele>27.6797</ele>
				<time>2025-07-03T15:38:49.000000Z</time>
			</trkpt>
			<trkpt lat="16.41501114915468" lon="-86.33950003687434">
				<ele>27.909</ele>
				<time>2025-07-03T15:38:50.000000Z</time>
			</trkpt>
			<trkpt lat="16.414974795392297" lon="-86.33955107399778">
				<ele>27.9288</ele>
				<time>2025-07-03T15:38:51.000000Z</time>
			</trkpt>
			<trkpt lat="16.414938700746614" lon="-86.33960724807835">
				<ele>28.0102</ele>
				<time>2025-07-03T15:38:52.000000Z</time>
			</trkpt>
			<trkpt lat="16.41490637330732" lon="-86.33966947594033">
				<ele>28.3047</ele>
				<time>2025-07-03T15:38:53.000000Z</time>
			</trkpt>
			<trkpt lat="16.41488079437555" lon="-86.33973963222294">
				<ele>28.6825</ele>
				<time>2025-07-03T15:38:54.000000Z</time>
			</trkpt>
			<trkpt lat="16.414862010725237" lon="-86.33981826936753">
				<ele>28.8173</ele>
				<time>2025-07-03T15:38:55.000000Z</time>
			</trkpt>
			<trkpt lat="16.414845323517138" lon="-86.33990327563387">
				<ele>28.9509</ele>
				<time>2025-07-03T15:38:56.000000Z</time>
			</trkpt>
			<trkpt lat="16.414826800644132" lon="-86.33999373603467">
				<ele>29.3103</ele>
				<time>2025-07-03T15:38:57.000000Z</time>
			</trkpt>
			<trkpt lat="16.41480814079736" lon="-86.34008976882917">
				<ele>29.4791</ele>
				<time>2025-07-03T15:38:58.000000Z</time>
			</trkpt>
			<trkpt lat="16.414788782960468" lon="-86.34018897557256">
				<ele>29.7259</ele>
				<time>2025-07-03T15:38:59.000000Z</time>
			</trkpt>
			<trkpt lat="16.414769436799784" lon="-86.34029293433872">
				<ele>30.2196</ele>
				<time>2025-07-03T15:39:00.000000Z</time>
			</trkpt>
			<trkpt lat="16.4147484030351" lon="-86.34040052033184">
				<ele>31.0375</ele>
				<time>2025-07-03T15:39:01.000000Z</time>
			</trkpt>
			<trkpt lat="16.41472187041757" lon="-86.34050841513127">
				<ele>31.5446</ele>
				<time>2025-07-03T15:39:02.000000Z</time>
			</trkpt>
			<trkpt lat="16.414686572772105" lon="-86.34061708193428">
				<ele>31.901</ele>
				<time>2025-07-03T15:39:03.000000Z</time>
			</trkpt>
			<trkpt lat="16.41464623400745" lon="-86.34072306351591">
				<ele>32.3138</ele>
				<time>2025-07-03T15:39:04.000000Z</time>
			</trkpt>
			<trkpt lat="16.414605364559765" lon="-86.34082660154996">
				<ele>32.5842</ele>
				<time>2025-07-03T15:39:05.000000Z</time>
			</trkpt>
			<trkpt lat="16.41456760466678" lon="-86.34092740889707">
				<ele>32.6314</ele>
				<time>2025-07-03T15:39:06.000000Z</time>
			</trkpt>
			<trkpt lat="16.41453241285627" lon="-86.34102405395667">
				<ele>32.8805</ele>
				<time>2025-07-03T15:39:07.000000Z</time>
			</trkpt>
			<trkpt lat="16.414497723317837" lon="-86.34111534660255">
				<ele>33.563</ele>
				<time>2025-07-03T15:39:08.000000Z</time>
			</trkpt>
			<trkpt lat="16.414471473792833" lon="-86.34120849037748">
				<ele>33.7347</ele>
				<time>2025-07-03T15:39:09.000000Z</time>
			</trkpt>
			<trkpt lat="16.414456618603648" lon="-86.34130517101141">
				<ele>34.2455</ele>
				<time>2025-07-03T15:39:10.000000Z</time>
			</trkpt>
			<trkpt lat="16.414460755233847" lon="-86.34140629112618">
				<ele>35.0871</ele>
				<time>2025-07-03T15:39:11.000000Z</time>
			</trkpt>
			<trkpt lat="16.41448405748065" lon="-86.34150672698107">
				<ele>36.0131</ele>
				<time>2025-07-03T15:39:12.000000Z</time>
			</trkpt>
			<trkpt lat="16.414527662026327" lon="-86.34160322744115">
				<ele>36.5343</ele>
				<time>2025-07-03T15:39:13.000000Z</time>
			</trkpt>
			<trkpt lat="16.414586571761173" lon="-86.3416890318662">
				<ele>37.0211</ele>
				<time>2025-07-03T15:39:14.000000Z</time>
			</trkpt>
			<trkpt lat="16.41464737656231" lon="-86.34176751184052">
				<ele>37.7595</ele>
				<time>2025-07-03T15:39:15.000000Z</time>
			</trkpt>
			<trkpt lat="16.414695871892807" lon="-86.34184612344565">
				<ele>38.547</ele>
				<time>2025-07-03T15:39:16.000000Z</time>
			</trkpt>
			<trkpt lat="16.41472412036839" lon="-86.34192874868829">
				<ele>39.4163</ele>
				<time>2025-07-03T15:39:17.000000Z</time>
			</trkpt>
			<trkpt lat="16.414734778410928" lon="-86.3420208625653">
				<ele>40.1157</ele>
				<time>2025-07-03T15:39:18.000000Z</time>
			</trkpt>
			<trkpt lat="16.414730270754426" lon="-86.34211471323702">
				<ele>40.8647</ele>
				<time>2025-07-03T15:39:19.000000Z</time>
			</trkpt>
			<trkpt lat="16.41471090014803" lon="-86.34221378486413">
				<ele>41.0085</ele>
				<time>2025-07-03T15:39:20.000000Z</time>
			</trkpt>
			<trkpt lat="16.41467972225022" lon="-86.3423181447541">
				<ele>41.1311</ele>
				<time>2025-07-03T15:39:21.000000Z</time>
			</trkpt>
			<trkpt lat="16.414637064326467" lon="-86.34241889004484">
				<ele>41.5501</ele>
				<time>2025-07-03T15:39:22.000000Z</time>
			</trkpt>
			<trkpt lat="16.41458027715976" lon="-86.34251368404236">
				<ele>41.7211</ele>
				<time>2025-07-03T15:39:23.000000Z</time>
			</trkpt>
			<trkpt lat="16.414511918231106" lon="-86.34259936030506">
				<ele>40.9442</ele>
				<time>2025-07-03T15:39:24.000000Z</time>
			</trkpt>
			<trkpt lat="16.414431066328913" lon="-86.34268060552633">
				<ele>40.2523</ele>
				<time>2025-07-03T15:39:25.000000Z</time>
			</trkpt>
			<trkpt lat="16.414345512008815" lon="-86.34276304907472">
				<ele>39.8483</ele>
				<time>2025-07-03T15:39:26.000000Z</time>
			</trkpt>
			<trkpt lat="16.414256807345136" lon="-86.34284456704341">
				<ele>39.8233</ele>
				<time>2025-07-03T15:39:27.000000Z</time>
			</trkpt>
			<trkpt lat="16.41416972968932" lon="-86.34292818656361">
				<ele>39.8973</ele>
				<time>2025-07-03T15:39:28.000000Z</time>
			</trkpt>
			<trkpt lat="16.414084531927195" lon="-86.34301168125859">
				<ele>39.6935</ele>
				<time>2025-07-03T15:39:29.000000Z</time>
			</trkpt>
			<trkpt lat="16.413999375133344" lon="-86.34309104933217">
				<ele>39.6575</ele>
				<time>2025-07-03T15:39:30.000000Z</time>
			</trkpt>
			<trkpt lat="16.413920998504288" lon="-86.3431638273466">
				<ele>39.7582</ele>
				<time>2025-07-03T15:39:31.000000Z</time>
			</trkpt>
			<trkpt lat="16.413854545728423" lon="-86.34322925779357">
				<ele>40.4008</ele>
				<time>2025-07-03T15:39:32.000000Z</time>
			</trkpt>
			<trkpt lat="16.413804769796048" lon="-86.34329561718438">
				<ele>41.4702</ele>
				<time>2025-07-03T15:39:33.000000Z</time>
			</trkpt>
			<trkpt lat="16.413782340743758" lon="-86.34337574363292">
				<ele>42.6728</ele>
				<time>2025-07-03T15:39:34.000000Z</time>
			</trkpt>
			<trkpt lat="16.413785768172154" lon="-86.34346436555388">
				<ele>43.5223</ele>
				<time>2025-07-03T15:39:35.000000Z</time>
			</trkpt>
			<trkpt lat="16.41380188270978" lon="-86.3435489378864">
				<ele>44.2971</ele>
				<time>2025-07-03T15:39:36.000000Z</time>
			</trkpt>
			<trkpt lat="16.41381586720283" lon="-86.34363630974295">
				<ele>45.0773</ele>
				<time>2025-07-03T15:39:37.000000Z</time>
			</trkpt>
			<trkpt lat="16.41381522971474" lon="-86.34372669891387">
				<ele>45.5176</ele>
				<time>2025-07-03T15:39:38.000000Z</time>
			</trkpt>
			<trkpt lat="16.413790987711856" lon="-86.34381485517146">
				<ele>45.8728</ele>
				<time>2025-07-03T15:39:39.000000Z</time>
			</trkpt>
			<trkpt lat="16.41375421768352" lon="-86.34389931193272">
				<ele>46.556</ele>
				<time>2025-07-03T15:39:40.000000Z</time>
			</trkpt>
			<trkpt lat="16.413720962878227" lon="-86.34398293705773">
				<ele>47.4465</ele>
				<time>2025-07-03T15:39:41.000000Z</time>
			</trkpt>
			<trkpt lat="16.41370756596986" lon="-86.34406744720894">
				<ele>48.3049</ele>
				<time>2025-07-03T15:39:42.000000Z</time>
			</trkpt>
			<trkpt lat="16.413720118510685" lon="-86.34415092459588">
				<ele>48.7955</ele>
				<time>2025-07-03T15:39:43.000000Z</time>
			</trkpt>
			<trkpt lat="16.413753598074116" lon="-86.34422735267175">
				<ele>49.1363</ele>
				<time>2025-07-03T15:39:44.000000Z</time>
			</trkpt>
			<trkpt lat="16.413782867687672" lon="-86.34430162208176">
				<ele>48.9249</ele>
				<time>2025-07-03T15:39:45.000000Z</time>
			</trkpt>
			<trkpt lat="16.413797421706313" lon="-86.34438351338953">
				<ele>48.5904</ele>
				<time>2025-07-03T15:39:46.000000Z</time>
			</trkpt>
			<trkpt lat="16.41379679821485" lon="-86.34447452167592">
				<ele>48.4091</ele>
				<time>2025-07-03T15:39:47.000000Z</time>
			</trkpt>
			<trkpt lat="16.41378099858385" lon="-86.3445695350162">
				<ele>48.597</ele>
				<time>2025-07-03T15:39:48.000000Z</time>
			</trkpt>
			<trkpt lat="16.413756220415443" lon="-86.3446670694101">
				<ele>49.1164</ele>
				<time>2025-07-03T15:39:49.000000Z</time>
			</trkpt>
			<trkpt lat="16.413740465533248" lon="-86.34477257204274">
				<ele>49.4273</ele>
				<time>2025-07-03T15:39:50.000000Z</time>
			</trkpt>
			<trkpt lat="16.413732632288703" lon="-86.34488541346325">
				<ele>49.7444</ele>
				<time>2025-07-03T15:39:51.000000Z</time>
			</trkpt>
			<trkpt lat="16.413726582876247" lon="-86.34500475012268">
				<ele>49.8742</ele>
				<time>2025-07-03T15:39:52.000000Z</time>
			</trkpt>
			<trkpt lat="16.41372151834917" lon="-86.34513091892867">
				<ele>49.6883</ele>
				<time>2025-07-03T15:39:53.000000Z</time>
			</trkpt>
			<trkpt lat="16.41371793917716" lon="-86.34526370017109">
				<ele>49.5631</ele>
				<time>2025-07-03T15:39:54.000000Z</time>
			</trkpt>
			<trkpt lat="16.41371761153192" lon="-86.34540130992285">
				<ele>49.3211</ele>
				<time>2025-07-03T15:39:55.000000Z</time>
			</trkpt>
			<trkpt lat="16.413720767442182" lon="-86.3455436460437">
				<ele>49.0112</ele>
				<time>2025-07-03T15:39:56.000000Z</time>
			</trkpt>
			<trkpt lat="16.41372395357208" lon="-86.34568988327459">
				<ele>48.5562</ele>
				<time>2025-07-03T15:39:57.000000Z</time>
			</trkpt>
			<trkpt lat="16.41372829456556" lon="-86.34583907999809">
				<ele>48.2083</ele>
				<time>2025-07-03T15:39:58.000000Z</time>
			</trkpt>
			<trkpt lat="16.41373468163842" lon="-86.34598787410543">
				<ele>48.0819</ele>
				<time>2025-07-03T15:39:59.000000Z</time>
			</trkpt>
			<trkpt lat="16.41374197716335" lon="-86.34613534942581">
				<ele>47.9541</ele>
				<time>2025-07-03T15:40:00.000000Z</time>
			</trkpt>
			<trkpt lat="16.413747090246506" lon="-86.34628063552982">
				<ele>47.8625</ele>
				<time>2025-07-03T15:40:01.000000Z</time>
			</trkpt>
			<trkpt lat="16.413751009982988" lon="-86.34642446383695">
				<ele>47.8893</ele>
				<time>2025-07-03T15:40:02.000000Z</time>
			</trkpt>
			<trkpt lat="16.41375534647829" lon="-86.34656673058073">
				<ele>48.0974</ele>
				<time>2025-07-03T15:40:03.000000Z</time>
			</trkpt>
			<trkpt lat="16.41375649936299" lon="-86.34670456262529">
				<ele>48.2561</ele>
				<time>2025-07-03T15:40:04.000000Z</time>
			</trkpt>
			<trkpt lat="16.41374350356816" lon="-86.34683940855125">
				<ele>47.8798</ele>
				<time>2025-07-03T15:40:05.000000Z</time>
			</trkpt>
			<trkpt lat="16.41371227877976" lon="-86.34696932497744">
				<ele>48.3302</ele>
				<time>2025-07-03T15:40:06.000000Z</time>
			</trkpt>
			<trkpt lat="16.41366412186689" lon="-86.34709325949561">
				<ele>49.4245</ele>
				<time>2025-07-03T15:40:07.000000Z</time>
			</trkpt>
			<trkpt lat="16.413609007029333" lon="-86.34721330773183">
				<ele>50.5542</ele>
				<time>2025-07-03T15:40:08.000000Z</time>
			</trkpt>
			<trkpt lat="16.413552304733646" lon="-86.34732996584863">
				<ele>51.4193</ele>
				<time>2025-07-03T15:40:09.000000Z</time>
			</trkpt>
			<trkpt lat="16.413502170222582" lon="-86.34744293641354">
				<ele>52.7552</ele>
				<time>2025-07-03T15:40:10.000000Z</time>
			</trkpt>
			<trkpt lat="16.41346187654294" lon="-86.34756048257017">
				<ele>53.818</ele>
				<time>2025-07-03T15:40:11.000000Z</time>
			</trkpt>
			<trkpt lat="16.41343538117813" lon="-86.347682161873">
				<ele>54.7547</ele>
				<time>2025-07-03T15:40:12.000000Z</time>
			</trkpt>
			<trkpt lat="16.413422391905115" lon="-86.34780267763053">
				<ele>55.8117</ele>
				<time>2025-07-03T15:40:13.000000Z</time>
			</trkpt>
			<trkpt lat="16.413420633907272" lon="-86.34792296674384">
				<ele>56.7755</ele>
				<time>2025-07-03T15:40:14.000000Z</time>
			</trkpt>
			<trkpt lat="16.41342268764096" lon="-86.3480408018082">
				<ele>57.3319</ele>
				<time>2025-07-03T15:40:15.000000Z</time>
			</trkpt>
			<trkpt lat="16.41341092764055" lon="-86.34815674879846">
				<ele>57.5573</ele>
				<time>2025-07-03T15:40:16.000000Z</time>
			</trkpt>
			<trkpt lat="16.413375147091532" lon="-86.3482668593273">
				<ele>58.1729</ele>
				<time>2025-07-03T15:40:17.000000Z</time>
			</trkpt>
			<trkpt lat="16.413314675973883" lon="-86.34836499483431">
				<ele>59.5393</ele>
				<time>2025-07-03T15:40:18.000000Z</time>
			</trkpt>
			<trkpt lat="16.41323970669503" lon="-86.34844933315489">
				<ele>61.1298</ele>
				<time>2025-07-03T15:40:19.000000Z</time>
			</trkpt>
			<trkpt lat="16.41316038696426" lon="-86.34852522953014">
				<ele>62.0825</ele>
				<time>2025-07-03T15:40:20.000000Z</time>
			</trkpt>
			<trkpt lat="16.413071359541128" lon="-86.34858696383472">
				<ele>63.5942</ele>
				<time>2025-07-03T15:40:21.000000Z</time>
			</trkpt>
			<trkpt lat="16.412976838528213" lon="-86.34863000606502">
				<ele>64.802</ele>
				<time>2025-07-03T15:40:22.000000Z</time>
			</trkpt>
			<trkpt lat="16.412878439488725" lon="-86.34865876771812">
				<ele>65.599</ele>
				<time>2025-07-03T15:40:23.000000Z</time>
			</trkpt>
			<trkpt lat="16.41277935762547" lon="-86.34868627650438">
				<ele>66.136</ele>
				<time>2025-07-03T15:40:24.000000Z</time>
			</trkpt>
			<trkpt lat="16.41268043460529" lon="-86.34872072814738">
				<ele>66.777</ele>
				<time>2025-07-03T15:40:25.000000Z</time>
			</trkpt>
			<trkpt lat="16.412582460531006" lon="-86.34876706382649">
				<ele>67.1735</ele>
				<time>2025-07-03T15:40:26.000000Z</time>
			</trkpt>
			<trkpt lat="16.41248777953771" lon="-86.34882645913055">
				<ele>67.7322</ele>
				<time>2025-07-03T15:40:27.000000Z</time>
			</trkpt>
			<trkpt lat="16.412396667105572" lon="-86.34889902651739">
				<ele>68.281</ele>
				<time>2025-07-03T15:40:28.000000Z</time>
			</trkpt>
			<trkpt lat="16.41231082820817" lon="-86.34898285797031">
				<ele>68.8162</ele>
				<time>2025-07-03T15:40:29.000000Z</time>
			</trkpt>
			<trkpt lat="16.41222775379516" lon="-86.34907140572297">
				<ele>69.3242</ele>
				<time>2025-07-03T15:40:30.000000Z</time>
			</trkpt>
			<trkpt lat="16.412142963677304" lon="-86.3491622188177">
				<ele>70.1163</ele>
				<time>2025-07-03T15:40:31.000000Z</time>
			</trkpt>
			<trkpt lat="16.412057878540498" lon="-86.34925261582315">
				<ele>71.0473</ele>
				<time>2025-07-03T15:40:32.000000Z</time>
			</trkpt>
			<trkpt lat="16.411973631823248" lon="-86.34934362139086">
				<ele>71.8801</ele>
				<time>2025-07-03T15:40:33.000000Z</time>
			</trkpt>
			<trkpt lat="16.411890773850967" lon="-86.34943420640583">
				<ele>72.7521</ele>
				<time>2025-07-03T15:40:34.000000Z</time>
			</trkpt>
			<trkpt lat="16.41180839481847" lon="-86.3495258294233">
				<ele>73.5292</ele>
				<time>2025-07-03T15:40:35.000000Z</time>
			</trkpt>
			<trkpt lat="16.411725178534407" lon="-86.34961935909654">
				<ele>74.1364</ele>
				<time>2025-07-03T15:40:36.000000Z</time>
			</trkpt>
			<trkpt lat="16.411643018039644" lon="-86.34971430697766">
				<ele>74.7071</ele>
				<time>2025-07-03T15:40:37.000000Z</time>
			</trkpt>
			<trkpt lat="16.411558188826408" lon="-86.34980790462167">
				<ele>75.0106</ele>
				<time>2025-07-03T15:40:38.000000Z</time>
			</trkpt>
			<trkpt lat="16.411474909049975" lon="-86.34989711539873">
				<ele>75.2884</ele>
				<time>2025-07-03T15:40:39.000000Z</time>
			</trkpt>
			<trkpt lat="16.411393589913853" lon="-86.34998236142677">
				<ele>75.6184</ele>
				<time>2025-07-03T15:40:40.000000Z</time>
			</trkpt>
			<trkpt lat="16.411317924183983" lon="-86.35006350441195">
				<ele>76.0773</ele>
				<time>2025-07-03T15:40:41.000000Z</time>
			</trkpt>
			<trkpt lat="16.411252336354742" lon="-86.3501461677805">
				<ele>76.9013</ele>
				<time>2025-07-03T15:40:42.000000Z</time>
			</trkpt>
			<trkpt lat="16.411200360238023" lon="-86.35023813946408">
				<ele>78.0317</ele>
				<time>2025-07-03T15:40:43.000000Z</time>
			</trkpt>
			<trkpt lat="16.411170266636006" lon="-86.3503402498186">
				<ele>79.6728</ele>
				<time>2025-07-03T15:40:44.000000Z</time>
			</trkpt>
			<trkpt lat="16.411155868781638" lon="-86.35044653136488">
				<ele>80.9091</ele>
				<time>2025-07-03T15:40:45.000000Z</time>
			</trkpt>
			<trkpt lat="16.411140311457206" lon="-86.35055266019621">
				<ele>81.827</ele>
				<time>2025-07-03T15:40:46.000000Z</time>
			</trkpt>
			<trkpt lat="16.411118592133132" lon="-86.35065936223711">
				<ele>82.8023</ele>
				<time>2025-07-03T15:40:47.000000Z</time>
			</trkpt>
			<trkpt lat="16.411093118538517" lon="-86.35076665712585">
				<ele>83.9197</ele>
				<time>2025-07-03T15:40:48.000000Z</time>
			</trkpt>
			<trkpt lat="16.41106236120016" lon="-86.35087577280547">
				<ele>85.1397</ele>
				<time>2025-07-03T15:40:49.000000Z</time>
			</trkpt>
			<trkpt lat="16.411032110153645" lon="-86.35098882020532">
				<ele>86.1369</ele>
				<time>2025-07-03T15:40:50.000000Z</time>
			</trkpt>
			<trkpt lat="16.411007117417586" lon="-86.35110359766695">
				<ele>87.2129</ele>
				<time>2025-07-03T15:40:51.000000Z</time>
			</trkpt>
			<trkpt lat="16.410986670114553" lon="-86.35121824470836">
				<ele>88.3314</ele>
				<time>2025-07-03T15:40:52.000000Z</time>
			</trkpt>
			<trkpt lat="16.410972544853873" lon="-86.35133218774622">
				<ele>89.5936</ele>
				<time>2025-07-03T15:40:53.000000Z</time>
			</trkpt>
			<trkpt lat="16.410961904305825" lon="-86.35144457018504">
				<ele>90.948</ele>
				<time>2025-07-03T15:40:54.000000Z</time>
			</trkpt>
			<trkpt lat="16.41095085961658" lon="-86.35155234340458">
				<ele>92.266</ele>
				<time>2025-07-03T15:40:55.000000Z</time>
			</trkpt>
			<trkpt lat="16.410936211075857" lon="-86.35165665489049">
				<ele>93.2421</ele>
				<time>2025-07-03T15:40:56.000000Z</time>
			</trkpt>
			<trkpt lat="16.410913041672497" lon="-86.35175930026983">
				<ele>94.4061</ele>
				<time>2025-07-03T15:40:57.000000Z</time>
			</trkpt>
			<trkpt lat="16.410884744685152" lon="-86.35186039528826">
				<ele>95.4572</ele>
				<time>2025-07-03T15:40:58.000000Z</time>
			</trkpt>
			<trkpt lat="16.41085917341094" lon="-86.35196027378474">
				<ele>96.5258</ele>
				<time>2025-07-03T15:40:59.000000Z</time>
			</trkpt>
			<trkpt lat="16.410845438573812" lon="-86.3520620395409">
				<ele>97.6524</ele>
				<time>2025-07-03T15:41:00.000000Z</time>
			</trkpt>
			<trkpt lat="16.41084924172043" lon="-86.35216506109818">
				<ele>98.8336</ele>
				<time>2025-07-03T15:41:01.000000Z</time>
			</trkpt>
			<trkpt lat="16.410861775644317" lon="-86.35226548144223">
				<ele>100.052</ele>
				<time>2025-07-03T15:41:02.000000Z</time>
			</trkpt>
			<trkpt lat="16.410868961026452" lon="-86.35236503265511">
				<ele>100.956</ele>
				<time>2025-07-03T15:41:03.000000Z</time>
			</trkpt>
			<trkpt lat="16.410861747661347" lon="-86.35246504935185">
				<ele>101.666</ele>
				<time>2025-07-03T15:41:04.000000Z</time>
			</trkpt>
			<trkpt lat="16.410840703707372" lon="-86.35256496076724">
				<ele>102.396</ele>
				<time>2025-07-03T15:41:05.000000Z</time>
			</trkpt>
			<trkpt lat="16.41080468551514" lon="-86.35266271617819">
				<ele>103.227</ele>
				<time>2025-07-03T15:41:06.000000Z</time>
			</trkpt>
			<trkpt lat="16.41075887423207" lon="-86.3527582209505">
				<ele>104.118</ele>
				<time>2025-07-03T15:41:07.000000Z</time>
			</trkpt>
			<trkpt lat="16.41071635763579" lon="-86.35285760659188">
				<ele>104.958</ele>
				<time>2025-07-03T15:41:08.000000Z</time>
			</trkpt>
			<trkpt lat="16.410691200584218" lon="-86.35295947331115">
				<ele>105.872</ele>
				<time>2025-07-03T15:41:09.000000Z</time>
			</trkpt>
			<trkpt lat="16.410688536645452" lon="-86.35306769972318">
				<ele>106.548</ele>
				<time>2025-07-03T15:41:10.000000Z</time>
			</trkpt>
			<trkpt lat="16.4107019324255" lon="-86.35317709006164">
				<ele>106.771</ele>
				<time>2025-07-03T15:41:11.000000Z</time>
			</trkpt>
			<trkpt lat="16.410712079017458" lon="-86.35328635291944">
				<ele>106.881</ele>
				<time>2025-07-03T15:41:12.000000Z</time>
			</trkpt>
			<trkpt lat="16.410713344348206" lon="-86.35339874107618">
				<ele>107.13</ele>
				<time>2025-07-03T15:41:13.000000Z</time>
			</trkpt>
			<trkpt lat="16.4107059111219" lon="-86.3535118570906">
				<ele>107.448</ele>
				<time>2025-07-03T15:41:14.000000Z</time>
			</trkpt>
			<trkpt lat="16.41068572495522" lon="-86.35362133592896">
				<ele>107.551</ele>
				<time>2025-07-03T15:41:15.000000Z</time>
			</trkpt>
			<trkpt lat="16.410648174948513" lon="-86.35372893163198">
				<ele>107.36</ele>
				<time>2025-07-03T15:41:16.000000Z</time>
			</trkpt>
			<trkpt lat="16.410592098351046" lon="-86.35383327667051">
				<ele>107.315</ele>
				<time>2025-07-03T15:41:17.000000Z</time>
			</trkpt>
			<trkpt lat="16.41051644884764" lon="-86.3539292852073">
				<ele>107.214</ele>
				<time>2025-07-03T15:41:18.000000Z</time>
			</trkpt>
			<trkpt lat="16.410425807122486" lon="-86.35401068631788">
				<ele>107.434</ele>
				<time>2025-07-03T15:41:19.000000Z</time>
			</trkpt>
			<trkpt lat="16.410335448405494" lon="-86.35408764087978">
				<ele>107.229</ele>
				<time>2025-07-03T15:41:20.000000Z</time>
			</trkpt>
			<trkpt lat="16.410250513016408" lon="-86.35417296094585">
				<ele>106.688</ele>
				<time>2025-07-03T15:41:21.000000Z</time>
			</trkpt>
			<trkpt lat="16.41017487395934" lon="-86.35427200951976">
				<ele>105.707</ele>
				<time>2025-07-03T15:41:22.000000Z</time>
			</trkpt>
			<trkpt lat="16.410108300666753" lon="-86.3543845498204">
				<ele>104.752</ele>
				<time>2025-07-03T15:41:23.000000Z</time>
			</trkpt>
			<trkpt lat="16.410050618968317" lon="-86.35450778195317">
				<ele>104.005</ele>
				<time>2025-07-03T15:41:24.000000Z</time>
			</trkpt>
			<trkpt lat="16.410002099172015" lon="-86.35463793737912">
				<ele>103.134</ele>
				<time>2025-07-03T15:41:25.000000Z</time>
			</trkpt>
			<trkpt lat="16.409956652724453" lon="-86.3547695648092">
				<ele>102.09</ele>
				<time>2025-07-03T15:41:26.000000Z</time>
			</trkpt>
			<trkpt lat="16.409909627391276" lon="-86.3549004650942">
				<ele>101.359</ele>
				<time>2025-07-03T15:41:27.000000Z</time>
			</trkpt>
			<trkpt lat="16.409862325663482" lon="-86.35503017850786">
				<ele>100.89</ele>
				<time>2025-07-03T15:41:28.000000Z</time>
			</trkpt>
			<trkpt lat="16.409817569192235" lon="-86.3551525265257">
				<ele>100.435</ele>
				<time>2025-07-03T15:41:29.000000Z</time>
			</trkpt>
			<trkpt lat="16.40977639139936" lon="-86.35526359852388">
				<ele>99.9311</ele>
				<time>2025-07-03T15:41:30.000000Z</time>
			</trkpt>
			<trkpt lat="16.409746591452997" lon="-86.35537383352577">
				<ele>99.6095</ele>
				<time>2025-07-03T15:41:31.000000Z</time>
			</trkpt>
			<trkpt lat="16.40974070372784" lon="-86.35549275560254">
				<ele>99.1802</ele>
				<time>2025-07-03T15:41:32.000000Z</time>
			</trkpt>
			<trkpt lat="16.409761989126167" lon="-86.35561501510563">
				<ele>98.4815</ele>
				<time>2025-07-03T15:41:33.000000Z</time>
			</trkpt>
			<trkpt lat="16.40980138982727" lon="-86.35573395160672">
				<ele>97.3968</ele>
				<time>2025-07-03T15:41:34.000000Z</time>
			</trkpt>
			<trkpt lat="16.409846440436432" lon="-86.35585039643135">
				<ele>96.3982</ele>
				<time>2025-07-03T15:41:35.000000Z</time>
			</trkpt>
			<trkpt lat="16.409889933861237" lon="-86.3559645368502">
				<ele>95.5539</ele>
				<time>2025-07-03T15:41:36.000000Z</time>
			</trkpt>
			<trkpt lat="16.409930939346236" lon="-86.35606968892672">
				<ele>94.6319</ele>
				<time>2025-07-03T15:41:37.000000Z</time>
			</trkpt>
			<trkpt lat="16.409982525437034" lon="-86.35615679393374">
				<ele>93.9875</ele>
				<time>2025-07-03T15:41:38.000000Z</time>
			</trkpt>
			<trkpt lat="16.41005744407512" lon="-86.3562263134014">
				<ele>93.4603</ele>
				<time>2025-07-03T15:41:39.000000Z</time>
			</trkpt>
			<trkpt lat="16.41015108248584" lon="-86.35627735979378">
				<ele>93.147</ele>
				<time>2025-07-03T15:41:40.000000Z</time>
			</trkpt>
			<trkpt lat="16.4102527986962" lon="-86.35631619624219">
				<ele>92.3014</ele>
				<time>2025-07-03T15:41:41.000000Z</time>
			</trkpt>
			<trkpt lat="16.410347845125262" lon="-86.35635293560217">
				<ele>91.3381</ele>
				<time>2025-07-03T15:41:42.000000Z</time>
			</trkpt>
			<trkpt lat="16.410428273465413" lon="-86.3563972047306">
				<ele>90.7106</ele>
				<time>2025-07-03T15:41:43.000000Z</time>
			</trkpt>
			<trkpt lat="16.410494127543586" lon="-86.35646194174922">
				<ele>90.0058</ele>
				<time>2025-07-03T15:41:44.000000Z</time>
			</trkpt>
			<trkpt lat="16.410544395696867" lon="-86.35654676541711">
				<ele>88.9923</ele>
				<time>2025-07-03T15:41:45.000000Z</time>
			</trkpt>
			<trkpt lat="16.410571780086965" lon="-86.35664170016338">
				<ele>88.0092</ele>
				<time>2025-07-03T15:41:46.000000Z</time>
			</trkpt>
			<trkpt lat="16.41057166560683" lon="-86.35674207920559">
				<ele>86.9562</ele>
				<time>2025-07-03T15:41:47.000000Z</time>
			</trkpt>
			<trkpt lat="16.410542220379853" lon="-86.35684091362137">
				<ele>85.6591</ele>
				<time>2025-07-03T15:41:48.000000Z</time>
			</trkpt>
			<trkpt lat="16.410481043924076" lon="-86.3569319327044">
				<ele>84.6796</ele>
				<time>2025-07-03T15:41:49.000000Z</time>
			</trkpt>
			<trkpt lat="16.410402249462543" lon="-86.35701771421886">
				<ele>83.7248</ele>
				<time>2025-07-03T15:41:50.000000Z</time>
			</trkpt>
			<trkpt lat="16.41031904829871" lon="-86.3571022282315">
				<ele>82.9992</ele>
				<time>2025-07-03T15:41:51.000000Z</time>
			</trkpt>
			<trkpt lat="16.410230877000444" lon="-86.3571838315945">
				<ele>82.6734</ele>
				<time>2025-07-03T15:41:52.000000Z</time>
			</trkpt>
			<trkpt lat="16.41013576669526" lon="-86.35725766912921">
				<ele>82.8616</ele>
				<time>2025-07-03T15:41:53.000000Z</time>
			</trkpt>
			<trkpt lat="16.41003319371981" lon="-86.35732412229244">
				<ele>82.9518</ele>
				<time>2025-07-03T15:41:54.000000Z</time>
			</trkpt>
			<trkpt lat="16.409931190214202" lon="-86.35738812447262">
				<ele>82.7384</ele>
				<time>2025-07-03T15:41:55.000000Z</time>
			</trkpt>
			<trkpt lat="16.409831540297635" lon="-86.35745160837179">
				<ele>82.1212</ele>
				<time>2025-07-03T15:41:56.000000Z</time>
			</trkpt>
			<trkpt lat="16.409729621881333" lon="-86.35751734194884">
				<ele>81.5743</ele>
				<time>2025-07-03T15:41:57.000000Z</time>
			</trkpt>
			<trkpt lat="16.409631877208426" lon="-86.35757680296066">
				<ele>80.6804</ele>
				<time>2025-07-03T15:41:58.000000Z</time>
			</trkpt>
			<trkpt lat="16.409531872664928" lon="-86.35762114662441">
				<ele>79.6169</ele>
				<time>2025-07-03T15:41:59.000000Z</time>
			</trkpt>
			<trkpt lat="16.409428091909692" lon="-86.3576485848855">
				<ele>78.3681</ele>
				<time>2025-07-03T15:42:00.000000Z</time>
			</trkpt>
			<trkpt lat="16.409318545776877" lon="-86.35765586121883">
				<ele>77.0061</ele>
				<time>2025-07-03T15:42:01.000000Z</time>
			</trkpt>
			<trkpt lat="16.40920405466404" lon="-86.35764516055156">
				<ele>75.473</ele>
				<time>2025-07-03T15:42:02.000000Z</time>
			</trkpt>
			<trkpt lat="16.409088674709988" lon="-86.3576166383194">
				<ele>73.9968</ele>
				<time>2025-07-03T15:42:03.000000Z</time>
			</trkpt>
			<trkpt lat="16.408976355407457" lon="-86.35757576942879">
				<ele>72.2638</ele>
				<time>2025-07-03T15:42:04.000000Z</time>
			</trkpt>
			<trkpt lat="16.40887119133493" lon="-86.35754317485564">
				<ele>70.7691</ele>
				<time>2025-07-03T15:42:05.000000Z</time>
			</trkpt>
			<trkpt lat="16.408773411936313" lon="-86.35753517310187">
				<ele>69.0419</ele>
				<time>2025-07-03T15:42:06.000000Z</time>
			</trkpt>
			<trkpt lat="16.408682367508142" lon="-86.35755930780397">
				<ele>67.4047</ele>
				<time>2025-07-03T15:42:07.000000Z</time>
			</trkpt>
			<trkpt lat="16.408602130297133" lon="-86.35761829634929">
				<ele>66.2933</ele>
				<time>2025-07-03T15:42:08.000000Z</time>
			</trkpt>
			<trkpt lat="16.408535890280955" lon="-86.35770550892374">
				<ele>65.0365</ele>
				<time>2025-07-03T15:42:09.000000Z</time>
			</trkpt>
			<trkpt lat="16.408472120796233" lon="-86.35779664362889">
				<ele>63.9618</ele>
				<time>2025-07-03T15:42:10.000000Z</time>
			</trkpt>
			<trkpt lat="16.408411911749393" lon="-86.35788479272146">
				<ele>63.2678</ele>
				<time>2025-07-03T15:42:11.000000Z</time>
			</trkpt>
			<trkpt lat="16.408371130760496" lon="-86.35798068754391">
				<ele>63.12</ele>
				<time>2025-07-03T15:42:12.000000Z</time>
			</trkpt>
			<trkpt lat="16.408358722181873" lon="-86.35808549613682">
				<ele>62.8141</ele>
				<time>2025-07-03T15:42:13.000000Z</time>
			</trkpt>
			<trkpt lat="16.408386757206326" lon="-86.35818948080745">
				<ele>62.516</ele>
				<time>2025-07-03T15:42:14.000000Z</time>
			</trkpt>
			<trkpt lat="16.408450823444337" lon="-86.35827803040249">
				<ele>61.8929</ele>
				<time>2025-07-03T15:42:15.000000Z</time>
			</trkpt>
			<trkpt lat="16.408533274956174" lon="-86.3583439528094">
				<ele>61.6403</ele>
				<time>2025-07-03T15:42:16.000000Z</time>
			</trkpt>
			<trkpt lat="16.40863309541993" lon="-86.35837303094065">
				<ele>62.019</ele>
				<time>2025-07-03T15:42:17.000000Z</time>
			</trkpt>
			<trkpt lat="16.40873185154013" lon="-86.35837816649942">
				<ele>62.0313</ele>
				<time>2025-07-03T15:42:18.000000Z</time>
			</trkpt>
			<trkpt lat="16.408827827522263" lon="-86.35838446226833">
				<ele>61.7688</ele>
				<time>2025-07-03T15:42:19.000000Z</time>
			</trkpt>
			<trkpt lat="16.40892300152516" lon="-86.35839774883945">
				<ele>61.5639</ele>
				<time>2025-07-03T15:42:20.000000Z</time>
			</trkpt>
			<trkpt lat="16.409011012407944" lon="-86.35841252103752">
				<ele>61.4523</ele>
				<time>2025-07-03T15:42:21.000000Z</time>
			</trkpt>
			<trkpt lat="16.409082586873108" lon="-86.3584242115305">
				<ele>61.4885</ele>
				<time>2025-07-03T15:42:22.000000Z</time>
			</trkpt>
			<trkpt lat="16.40913800094623" lon="-86.35843156527365">
				<ele>61.5537</ele>
				<time>2025-07-03T15:42:23.000000Z</time>
			</trkpt>
			<trkpt lat="16.409173534862166" lon="-86.35843946815278">
				<ele>61.7844</ele>
				<time>2025-07-03T15:42:24.000000Z</time>
			</trkpt>
			<trkpt lat="16.409189814940415" lon="-86.35844479615649">
				<ele>61.9915</ele>
				<time>2025-07-03T15:42:25.000000Z</time>
			</trkpt>
			<trkpt lat="16.40919416574181" lon="-86.35844828163367">
				<ele>61.8794</ele>
				<time>2025-07-03T15:42:26.000000Z</time>
			</trkpt>
			<trkpt lat="16.40920475467549" lon="-86.35845870665125">
				<ele>61.7127</ele>
				<time>2025-07-03T15:42:27.000000Z</time>
			</trkpt>
			<trkpt lat="16.409222813110762" lon="-86.35848720473598">
				<ele>61.5981</ele>
				<time>2025-07-03T15:42:28.000000Z</time>
			</trkpt>
			<trkpt lat="16.409228532323663" lon="-86.35853244327191">
				<ele>61.1235</ele>
				<time>2025-07-03T15:42:29.000000Z</time>
			</trkpt>
			<trkpt lat="16.409219835328337" lon="-86.35859551000095">
				<ele>60.4002</ele>
				<time>2025-07-03T15:42:30.000000Z</time>
			</trkpt>
			<trkpt lat="16.409202409807907" lon="-86.35867274487593">
				<ele>59.7206</ele>
				<time>2025-07-03T15:42:31.000000Z</time>
			</trkpt>
			<trkpt lat="16.409178293477353" lon="-86.35876124198505">
				<ele>59.1398</ele>
				<time>2025-07-03T15:42:32.000000Z</time>
			</trkpt>
			<trkpt lat="16.40915246880735" lon="-86.35886386014649">
				<ele>58.5346</ele>
				<time>2025-07-03T15:42:33.000000Z</time>
			</trkpt>
			<trkpt lat="16.409128336117032" lon="-86.35898066153851">
				<ele>58.1552</ele>
				<time>2025-07-03T15:42:34.000000Z</time>
			</trkpt>
			<trkpt lat="16.409101585934955" lon="-86.3591047402296">
				<ele>58.2254</ele>
				<time>2025-07-03T15:42:35.000000Z</time>
			</trkpt>
			<trkpt lat="16.409068834796344" lon="-86.35923082072748">
				<ele>58.5677</ele>
				<time>2025-07-03T15:42:36.000000Z</time>
			</trkpt>
			<trkpt lat="16.40902195080607" lon="-86.35935202587181">
				<ele>59.0953</ele>
				<time>2025-07-03T15:42:37.000000Z</time>
			</trkpt>
			<trkpt lat="16.408956260140947" lon="-86.35946324985422">
				<ele>59.3698</ele>
				<time>2025-07-03T15:42:38.000000Z</time>
			</trkpt>
			<trkpt lat="16.40887103060815" lon="-86.35955946095574">
				<ele>60.0952</ele>
				<time>2025-07-03T15:42:39.000000Z</time>
			</trkpt>
			<trkpt lat="16.40877131606702" lon="-86.35964187864136">
				<ele>61.2305</ele>
				<time>2025-07-03T15:42:40.000000Z</time>
			</trkpt>
			<trkpt lat="16.408670616565477" lon="-86.35972163979604">
				<ele>62.4448</ele>
				<time>2025-07-03T15:42:41.000000Z</time>
			</trkpt>
			<trkpt lat="16.40857250016598" lon="-86.35980286817288">
				<ele>63.4216</ele>
				<time>2025-07-03T15:42:42.000000Z</time>
			</trkpt>
			<trkpt lat="16.408475010142354" lon="-86.35988884480822">
				<ele>64.2083</ele>
				<time>2025-07-03T15:42:43.000000Z</time>
			</trkpt>
			<trkpt lat="16.408378821794336" lon="-86.359977040496">
				<ele>64.9252</ele>
				<time>2025-07-03T15:42:44.000000Z</time>
			</trkpt>
			<trkpt lat="16.408286225190956" lon="-86.36006800170706">
				<ele>65.1548</ele>
				<time>2025-07-03T15:42:45.000000Z</time>
			</trkpt>
			<trkpt lat="16.40819728405657" lon="-86.36016088496255">
				<ele>65.0227</ele>
				<time>2025-07-03T15:42:46.000000Z</time>
			</trkpt>
			<trkpt lat="16.408105770268975" lon="-86.36024685429335">
				<ele>64.7857</ele>
				<time>2025-07-03T15:42:47.000000Z</time>
			</trkpt>
			<trkpt lat="16.40800594643303" lon="-86.36032077595313">
				<ele>64.5474</ele>
				<time>2025-07-03T15:42:48.000000Z</time>
			</trkpt>
			<trkpt lat="16.407897292654415" lon="-86.36037593167701">
				<ele>64.3592</ele>
				<time>2025-07-03T15:42:49.000000Z</time>
			</trkpt>
			<trkpt lat="16.407784824743988" lon="-86.36041539325322">
				<ele>64.0327</ele>
				<time>2025-07-03T15:42:50.000000Z</time>
			</trkpt>
			<trkpt lat="16.407671125130747" lon="-86.36044276424344">
				<ele>63.766</ele>
				<time>2025-07-03T15:42:51.000000Z</time>
			</trkpt>
			<trkpt lat="16.40755521196798" lon="-86.36045440723606">
				<ele>63.5466</ele>
				<time>2025-07-03T15:42:52.000000Z</time>
			</trkpt>
			<trkpt lat="16.407438633387752" lon="-86.36045010321483">
				<ele>63.4698</ele>
				<time>2025-07-03T15:42:53.000000Z</time>
			</trkpt>
			<trkpt lat="16.40732623665439" lon="-86.36043236352562">
				<ele>63.6534</ele>
				<time>2025-07-03T15:42:54.000000Z</time>
			</trkpt>
			<trkpt lat="16.40721629241754" lon="-86.36041172194226">
				<ele>63.9728</ele>
				<time>2025-07-03T15:42:55.000000Z</time>
			</trkpt>
			<trkpt lat="16.40710778951479" lon="-86.36039601279313">
				<ele>63.6983</ele>
				<time>2025-07-03T15:42:56.000000Z</time>
			</trkpt>
			<trkpt lat="16.406997697783236" lon="-86.36039371375097">
				<ele>63.4226</ele>
				<time>2025-07-03T15:42:57.000000Z</time>
			</trkpt>
			<trkpt lat="16.406888758005703" lon="-86.3604103344069">
				<ele>63.2472</ele>
				<time>2025-07-03T15:42:58.000000Z</time>
			</trkpt>
			<trkpt lat="16.406784899949855" lon="-86.36044834847132">
				<ele>63.2766</ele>
				<time>2025-07-03T15:42:59.000000Z</time>
			</trkpt>
			<trkpt lat="16.4066861381126" lon="-86.3605026175027">
				<ele>63.011</ele>
				<time>2025-07-03T15:43:00.000000Z</time>
			</trkpt>
			<trkpt lat="16.406586731511087" lon="-86.36055691649969">
				<ele>62.6194</ele>
				<time>2025-07-03T15:43:01.000000Z</time>
			</trkpt>
			<trkpt lat="16.406483843174296" lon="-86.36060898713605">
				<ele>62.3526</ele>
				<time>2025-07-03T15:43:02.000000Z</time>
			</trkpt>
			<trkpt lat="16.406379305931708" lon="-86.36066007128049">
				<ele>62.0719</ele>
				<time>2025-07-03T15:43:03.000000Z</time>
			</trkpt>
			<trkpt lat="16.406275680665523" lon="-86.36071415704814">
				<ele>61.658</ele>
				<time>2025-07-03T15:43:04.000000Z</time>
			</trkpt>
			<trkpt lat="16.406174191135293" lon="-86.36077128913665">
				<ele>61.2011</ele>
				<time>2025-07-03T15:43:05.000000Z</time>
			</trkpt>
			<trkpt lat="16.406075683842893" lon="-86.36083122954423">
				<ele>60.6742</ele>
				<time>2025-07-03T15:43:06.000000Z</time>
			</trkpt>
			<trkpt lat="16.4059890868272" lon="-86.36088731511617">
				<ele>60.2532</ele>
				<time>2025-07-03T15:43:07.000000Z</time>
			</trkpt>
			<trkpt lat="16.405921133701597" lon="-86.3609450974592">
				<ele>59.9443</ele>
				<time>2025-07-03T15:43:08.000000Z</time>
			</trkpt>
			<trkpt lat="16.4058764508245" lon="-86.36100191324712">
				<ele>59.9206</ele>
				<time>2025-07-03T15:43:09.000000Z</time>
			</trkpt>
			<trkpt lat="16.405856122390855" lon="-86.36104623823874">
				<ele>59.6732</ele>
				<time>2025-07-03T15:43:10.000000Z</time>
			</trkpt>
			<trkpt lat="16.40584553706422" lon="-86.36107376755571">
				<ele>59.4876</ele>
				<time>2025-07-03T15:43:11.000000Z</time>
			</trkpt>
			<trkpt lat="16.40583643492264" lon="-86.3610960036825">
				<ele>59.254</ele>
				<time>2025-07-03T15:43:12.000000Z</time>
			</trkpt>
			<trkpt lat="16.405825081454964" lon="-86.361121929422">
				<ele>58.9993</ele>
				<time>2025-07-03T15:43:13.000000Z</time>
			</trkpt>
			<trkpt lat="16.405814241884123" lon="-86.36115546085834">
				<ele>58.684</ele>
				<time>2025-07-03T15:43:14.000000Z</time>
			</trkpt>
			<trkpt lat="16.40580263966616" lon="-86.36120527703922">
				<ele>58.3402</ele>
				<time>2025-07-03T15:43:15.000000Z</time>
			</trkpt>
			<trkpt lat="16.40579498553695" lon="-86.36126997622804">
				<ele>58.2146</ele>
				<time>2025-07-03T15:43:16.000000Z</time>
			</trkpt>
			<trkpt lat="16.405792978127735" lon="-86.36134660062517">
				<ele>58.0888</ele>
				<time>2025-07-03T15:43:17.000000Z</time>
			</trkpt>
			<trkpt lat="16.405790076648124" lon="-86.3614320391928">
				<ele>58.0154</ele>
				<time>2025-07-03T15:43:18.000000Z</time>
			</trkpt>
			<trkpt lat="16.405783049377533" lon="-86.36152185550925">
				<ele>58.3567</ele>
				<time>2025-07-03T15:43:19.000000Z</time>
			</trkpt>
			<trkpt lat="16.405773193165384" lon="-86.36161366395004">
				<ele>58.7939</ele>
				<time>2025-07-03T15:43:20.000000Z</time>
			</trkpt>
			<trkpt lat="16.405762304970086" lon="-86.36170189252908">
				<ele>59.285</ele>
				<time>2025-07-03T15:43:21.000000Z</time>
			</trkpt>
			<trkpt lat="16.405746014713408" lon="-86.36178171781778">
				<ele>59.7883</ele>
				<time>2025-07-03T15:43:22.000000Z</time>
			</trkpt>
			<trkpt lat="16.405738135702453" lon="-86.36185683522197">
				<ele>60.5263</ele>
				<time>2025-07-03T15:43:23.000000Z</time>
			</trkpt>
			<trkpt lat="16.405740839237303" lon="-86.36193365483102">
				<ele>60.9747</ele>
				<time>2025-07-03T15:43:24.000000Z</time>
			</trkpt>
			<trkpt lat="16.405741813514638" lon="-86.3620108224772">
				<ele>61.4073</ele>
				<time>2025-07-03T15:43:25.000000Z</time>
			</trkpt>
			<trkpt lat="16.40574782216343" lon="-86.36208849263015">
				<ele>62.2086</ele>
				<time>2025-07-03T15:43:26.000000Z</time>
			</trkpt>
			<trkpt lat="16.405769444638015" lon="-86.36216317966341">
				<ele>63.1218</ele>
				<time>2025-07-03T15:43:27.000000Z</time>
			</trkpt>
			<trkpt lat="16.40580351543495" lon="-86.3622316995906">
				<ele>63.8581</ele>
				<time>2025-07-03T15:43:28.000000Z</time>
			</trkpt>
			<trkpt lat="16.40585223476615" lon="-86.36229213366656">
				<ele>64.7954</ele>
				<time>2025-07-03T15:43:29.000000Z</time>
			</trkpt>
			<trkpt lat="16.405914280121383" lon="-86.36233969199853">
				<ele>65.587</ele>
				<time>2025-07-03T15:43:30.000000Z</time>
			</trkpt>
			<trkpt lat="16.40597832122371" lon="-86.36238188986074">
				<ele>66.3276</ele>
				<time>2025-07-03T15:43:31.000000Z</time>
			</trkpt>
			<trkpt lat="16.406039618148714" lon="-86.36242854897954">
				<ele>67.1079</ele>
				<time>2025-07-03T15:43:32.000000Z</time>
			</trkpt>
			<trkpt lat="16.406101602237165" lon="-86.36247645814662">
				<ele>67.9551</ele>
				<time>2025-07-03T15:43:33.000000Z</time>
			</trkpt>
			<trkpt lat="16.406165471247522" lon="-86.36252424103837">
				<ele>68.9068</ele>
				<time>2025-07-03T15:43:34.000000Z</time>
			</trkpt>
			<trkpt lat="16.40623469319783" lon="-86.36257274510466">
				<ele>69.7706</ele>
				<time>2025-07-03T15:43:35.000000Z</time>
			</trkpt>
			<trkpt lat="16.406299737718168" lon="-86.36261767347801">
				<ele>70.498</ele>
				<time>2025-07-03T15:43:36.000000Z</time>
			</trkpt>
			<trkpt lat="16.40635762312321" lon="-86.36265713599869">
				<ele>71.1734</ele>
				<time>2025-07-03T15:43:37.000000Z</time>
			</trkpt>
			<trkpt lat="16.406400625558643" lon="-86.36268806801309">
				<ele>71.7037</ele>
				<time>2025-07-03T15:43:38.000000Z</time>
			</trkpt>
			<trkpt lat="16.40643563601602" lon="-86.36271139597211">
				<ele>72.1373</ele>
				<time>2025-07-03T15:43:39.000000Z</time>
			</trkpt>
			<trkpt lat="16.406464991573568" lon="-86.36273481562114">
				<ele>72.5203</ele>
				<time>2025-07-03T15:43:40.000000Z</time>
			</trkpt>
			<trkpt lat="16.40649885026572" lon="-86.36276040810577">
				<ele>72.8232</ele>
				<time>2025-07-03T15:43:41.000000Z</time>
			</trkpt>
			<trkpt lat="16.406537272354914" lon="-86.36278801816295">
				<ele>73.3519</ele>
				<time>2025-07-03T15:43:42.000000Z</time>
			</trkpt>
			<trkpt lat="16.406579665989025" lon="-86.36282062731946">
				<ele>73.8726</ele>
				<time>2025-07-03T15:43:43.000000Z</time>
			</trkpt>
			<trkpt lat="16.406625642639657" lon="-86.36286029382588">
				<ele>74.5065</ele>
				<time>2025-07-03T15:43:44.000000Z</time>
			</trkpt>
			<trkpt lat="16.406677871334505" lon="-86.36290421131588">
				<ele>75.1573</ele>
				<time>2025-07-03T15:43:45.000000Z</time>
			</trkpt>
			<trkpt lat="16.406738047782678" lon="-86.36294871636602">
				<ele>75.8561</ele>
				<time>2025-07-03T15:43:46.000000Z</time>
			</trkpt>
			<trkpt lat="16.406803705613207" lon="-86.36299361815607">
				<ele>76.5664</ele>
				<time>2025-07-03T15:43:47.000000Z</time>
			</trkpt>
			<trkpt lat="16.406871431254014" lon="-86.36304065751719">
				<ele>77.2477</ele>
				<time>2025-07-03T15:43:48.000000Z</time>
			</trkpt>
			<trkpt lat="16.4069383922817" lon="-86.36308772678821">
				<ele>77.9203</ele>
				<time>2025-07-03T15:43:49.000000Z</time>
			</trkpt>
			<trkpt lat="16.407005018388546" lon="-86.36313590098315">
				<ele>78.6013</ele>
				<time>2025-07-03T15:43:50.000000Z</time>
			</trkpt>
			<trkpt lat="16.407068992067682" lon="-86.36318899478358">
				<ele>79.3586</ele>
				<time>2025-07-03T15:43:51.000000Z</time>
			</trkpt>
			<trkpt lat="16.407126678100102" lon="-86.36325232405493">
				<ele>80.0747</ele>
				<time>2025-07-03T15:43:52.000000Z</time>
			</trkpt>
			<trkpt lat="16.407176348726082" lon="-86.36332470482522">
				<ele>80.7245</ele>
				<time>2025-07-03T15:43:53.000000Z</time>
			</trkpt>
			<trkpt lat="16.40721658143436" lon="-86.36340595993174">
				<ele>81.1751</ele>
				<time>2025-07-03T15:43:54.000000Z</time>
			</trkpt>
			<trkpt lat="16.40724768520679" lon="-86.36349139531919">
				<ele>81.5947</ele>
				<time>2025-07-03T15:43:55.000000Z</time>
			</trkpt>
			<trkpt lat="16.407275148326324" lon="-86.36357711712">
				<ele>82.2349</ele>
				<time>2025-07-03T15:43:56.000000Z</time>
			</trkpt>
			<trkpt lat="16.407307484534037" lon="-86.36366221470207">
				<ele>82.801</ele>
				<time>2025-07-03T15:43:57.000000Z</time>
			</trkpt>
			<trkpt lat="16.407348552217677" lon="-86.36374318538542">
				<ele>82.9517</ele>
				<time>2025-07-03T15:43:58.000000Z</time>
			</trkpt>
			<trkpt lat="16.407399502921503" lon="-86.36382092580777">
				<ele>83.1441</ele>
				<time>2025-07-03T15:43:59.000000Z</time>
			</trkpt>
			<trkpt lat="16.407459264815564" lon="-86.36389077264788">
				<ele>83.4338</ele>
				<time>2025-07-03T15:44:00.000000Z</time>
			</trkpt>
			<trkpt lat="16.407532524857547" lon="-86.36395026892977">
				<ele>83.7574</ele>
				<time>2025-07-03T15:44:01.000000Z</time>
			</trkpt>
			<trkpt lat="16.407620287997" lon="-86.36399350384269">
				<ele>84.0709</ele>
				<time>2025-07-03T15:44:02.000000Z</time>
			</trkpt>
			<trkpt lat="16.40771391829521" lon="-86.3640215978466">
				<ele>84.299</ele>
				<time>2025-07-03T15:44:03.000000Z</time>
			</trkpt>
			<trkpt lat="16.40781458192052" lon="-86.3640489905534">
				<ele>84.5386</ele>
				<time>2025-07-03T15:44:04.000000Z</time>
			</trkpt>
			<trkpt lat="16.4079048607179" lon="-86.3640811308239">
				<ele>84.8985</ele>
				<time>2025-07-03T15:44:05.000000Z</time>
			</trkpt>
			<trkpt lat="16.40799304955521" lon="-86.36411734065102">
				<ele>85.2703</ele>
				<time>2025-07-03T15:44:06.000000Z</time>
			</trkpt>
			<trkpt lat="16.408065166085063" lon="-86.36415189359987">
				<ele>85.4939</ele>
				<time>2025-07-03T15:44:07.000000Z</time>
			</trkpt>
			<trkpt lat="16.408115656002423" lon="-86.36418180240105">
				<ele>85.5707</ele>
				<time>2025-07-03T15:44:08.000000Z</time>
			</trkpt>
			<trkpt lat="16.40815494521253" lon="-86.36421273923982">
				<ele>85.8468</ele>
				<time>2025-07-03T15:44:09.000000Z</time>
			</trkpt>
			<trkpt lat="16.40818972777886" lon="-86.36424781778757">
				<ele>86.034</ele>
				<time>2025-07-03T15:44:10.000000Z</time>
			</trkpt>
			<trkpt lat="16.40823466708739" lon="-86.36429549001306">
				<ele>86.1504</ele>
				<time>2025-07-03T15:44:11.000000Z</time>
			</trkpt>
			<trkpt lat="16.40828653809997" lon="-86.36435190365083">
				<ele>86.133</ele>
				<time>2025-07-03T15:44:12.000000Z</time>
			</trkpt>
			<trkpt lat="16.408340864996074" lon="-86.36441222525951">
				<ele>85.8497</ele>
				<time>2025-07-03T15:44:13.000000Z</time>
			</trkpt>
			<trkpt lat="16.408401807419235" lon="-86.36448531968755">
				<ele>85.3457</ele>
				<time>2025-07-03T15:44:14.000000Z</time>
			</trkpt>
			<trkpt lat="16.408454871993857" lon="-86.36455671377452">
				<ele>85.0535</ele>
				<time>2025-07-03T15:44:15.000000Z</time>
			</trkpt>
			<trkpt lat="16.40850561086754" lon="-86.36462991387138">
				<ele>84.8708</ele>
				<time>2025-07-03T15:44:16.000000Z</time>
			</trkpt>
			<trkpt lat="16.408558025348054" lon="-86.36470712687844">
				<ele>84.8441</ele>
				<time>2025-07-03T15:44:17.000000Z</time>
			</trkpt>
			<trkpt lat="16.408609336632676" lon="-86.36478238971968">
				<ele>84.9158</ele>
				<time>2025-07-03T15:44:18.000000Z</time>
			</trkpt>
			<trkpt lat="16.408654591733896" lon="-86.36484724163998">
				<ele>85.1491</ele>
				<time>2025-07-03T15:44:19.000000Z</time>
			</trkpt>
			<trkpt lat="16.40870168736381" lon="-86.36491201371372">
				<ele>85.5735</ele>
				<time>2025-07-03T15:44:20.000000Z</time>
			</trkpt>
			<trkpt lat="16.408741675233323" lon="-86.36496360303259">
				<ele>86.0432</ele>
				<time>2025-07-03T15:44:21.000000Z</time>
			</trkpt>
			<trkpt lat="16.408780587395043" lon="-86.36501729150085">
				<ele>86.3941</ele>
				<time>2025-07-03T15:44:22.000000Z</time>
			</trkpt>
			<trkpt lat="16.408812083741648" lon="-86.36506701530153">
				<ele>86.7154</ele>
				<time>2025-07-03T15:44:23.000000Z</time>
			</trkpt>
			<trkpt lat="16.408845028877533" lon="-86.36513079140624">
				<ele>87.0125</ele>
				<time>2025-07-03T15:44:24.000000Z</time>
			</trkpt>
			<trkpt lat="16.408865334449906" lon="-86.36518614183272">
				<ele>87.245</ele>
				<time>2025-07-03T15:44:25.000000Z</time>
			</trkpt>
			<trkpt lat="16.40889087382468" lon="-86.36527259525604">
				<ele>87.4214</ele>
				<time>2025-07-03T15:44:26.000000Z</time>
			</trkpt>
			<trkpt lat="16.408905897792145" lon="-86.36534393756052">
				<ele>87.4765</ele>
				<time>2025-07-03T15:44:27.000000Z</time>
			</trkpt>
			<trkpt lat="16.408915087412716" lon="-86.365413147381">
				<ele>87.3425</ele>
				<time>2025-07-03T15:44:28.000000Z</time>
			</trkpt>
			<trkpt lat="16.408916183768326" lon="-86.36548992228346">
				<ele>87.1732</ele>
				<time>2025-07-03T15:44:29.000000Z</time>
			</trkpt>
			<trkpt lat="16.40890789560966" lon="-86.36557522988235">
				<ele>86.7488</ele>
				<time>2025-07-03T15:44:30.000000Z</time>
			</trkpt>
			<trkpt lat="16.408888737155575" lon="-86.36566547306656">
				<ele>86.0733</ele>
				<time>2025-07-03T15:44:31.000000Z</time>
			</trkpt>
			<trkpt lat="16.408860955416632" lon="-86.36575190297951">
				<ele>85.4348</ele>
				<time>2025-07-03T15:44:32.000000Z</time>
			</trkpt>
			<trkpt lat="16.408817281120772" lon="-86.36584959516631">
				<ele>84.485</ele>
				<time>2025-07-03T15:44:33.000000Z</time>
			</trkpt>
			<trkpt lat="16.40876797036621" lon="-86.36593023080773">
				<ele>83.5776</ele>
				<time>2025-07-03T15:44:34.000000Z</time>
			</trkpt>
			<trkpt lat="16.40871286626503" lon="-86.36600064238526">
				<ele>82.6159</ele>
				<time>2025-07-03T15:44:35.000000Z</time>
			</trkpt>
			<trkpt lat="16.408637532434668" lon="-86.36607347331916">
				<ele>81.4156</ele>
				<time>2025-07-03T15:44:36.000000Z</time>
			</trkpt>
			<trkpt lat="16.408561429397356" lon="-86.3661362562395">
				<ele>80.6206</ele>
				<time>2025-07-03T15:44:37.000000Z</time>
			</trkpt>
			<trkpt lat="16.408484878560326" lon="-86.36619633236872">
				<ele>79.8285</ele>
				<time>2025-07-03T15:44:38.000000Z</time>
			</trkpt>
			<trkpt lat="16.408412040769452" lon="-86.36625391262803">
				<ele>79.0632</ele>
				<time>2025-07-03T15:44:39.000000Z</time>
			</trkpt>
			<trkpt lat="16.408336235713804" lon="-86.36630700617046">
				<ele>78.3314</ele>
				<time>2025-07-03T15:44:40.000000Z</time>
			</trkpt>
			<trkpt lat="16.40826498268578" lon="-86.36635656854007">
				<ele>77.6606</ele>
				<time>2025-07-03T15:44:41.000000Z</time>
			</trkpt>
			<trkpt lat="16.408199611137956" lon="-86.36640241947964">
				<ele>76.9825</ele>
				<time>2025-07-03T15:44:42.000000Z</time>
			</trkpt>
			<trkpt lat="16.40813977662198" lon="-86.36644775648793">
				<ele>76.2971</ele>
				<time>2025-07-03T15:44:43.000000Z</time>
			</trkpt>
			<trkpt lat="16.408076017155437" lon="-86.36649983684867">
				<ele>75.622</ele>
				<time>2025-07-03T15:44:44.000000Z</time>
			</trkpt>
			<trkpt lat="16.408004367602416" lon="-86.36655841100878">
				<ele>74.9563</ele>
				<time>2025-07-03T15:44:45.000000Z</time>
			</trkpt>
			<trkpt lat="16.407929525139316" lon="-86.36661935952205">
				<ele>74.4099</ele>
				<time>2025-07-03T15:44:46.000000Z</time>
			</trkpt>
			<trkpt lat="16.4078341858724" lon="-86.36669624393328">
				<ele>73.8087</ele>
				<time>2025-07-03T15:44:47.000000Z</time>
			</trkpt>
			<trkpt lat="16.407743149865826" lon="-86.36676768489366">
				<ele>73.1705</ele>
				<time>2025-07-03T15:44:48.000000Z</time>
			</trkpt>
			<trkpt lat="16.407653320687764" lon="-86.36683676646214">
				<ele>72.6315</ele>
				<time>2025-07-03T15:44:49.000000Z</time>
			</trkpt>
			<trkpt lat="16.407560978526156" lon="-86.36690832963593">
				<ele>72.0328</ele>
				<time>2025-07-03T15:44:50.000000Z</time>
			</trkpt>
			<trkpt lat="16.407468153244615" lon="-86.3669838044507">
				<ele>71.4507</ele>
				<time>2025-07-03T15:44:51.000000Z</time>
			</trkpt>
			<trkpt lat="16.407381621109725" lon="-86.367061988291">
				<ele>70.8722</ele>
				<time>2025-07-03T15:44:52.000000Z</time>
			</trkpt>
			<trkpt lat="16.407313114536457" lon="-86.36714675265299">
				<ele>70.2129</ele>
				<time>2025-07-03T15:44:53.000000Z</time>
			</trkpt>
			<trkpt lat="16.407262347769244" lon="-86.36724598873784">
				<ele>69.8602</ele>
				<time>2025-07-03T15:44:54.000000Z</time>
			</trkpt>
			<trkpt lat="16.407234097468983" lon="-86.36735680086221">
				<ele>69.6054</ele>
				<time>2025-07-03T15:44:55.000000Z</time>
			</trkpt>
			<trkpt lat="16.40721720560271" lon="-86.36746677207167">
				<ele>69.4058</ele>
				<time>2025-07-03T15:44:56.000000Z</time>
			</trkpt>
			<trkpt lat="16.407207072848497" lon="-86.36756099759197">
				<ele>69.4645</ele>
				<time>2025-07-03T15:44:57.000000Z</time>
			</trkpt>
			<trkpt lat="16.407202076028398" lon="-86.3676394544615">
				<ele>68.847</ele>
				<time>2025-07-03T15:44:58.000000Z</time>
			</trkpt>
			<trkpt lat="16.4071986640283" lon="-86.36772245875554">
				<ele>68.0115</ele>
				<time>2025-07-03T15:44:59.000000Z</time>
			</trkpt>
			<trkpt lat="16.407193739044672" lon="-86.36780819701984">
				<ele>67.5635</ele>
				<time>2025-07-03T15:45:00.000000Z</time>
			</trkpt>
			<trkpt lat="16.407188986453974" lon="-86.36789625240816">
				<ele>67.0198</ele>
				<time>2025-07-03T15:45:01.000000Z</time>
			</trkpt>
			<trkpt lat="16.40718227655056" lon="-86.36798277718955">
				<ele>66.7239</ele>
				<time>2025-07-03T15:45:02.000000Z</time>
			</trkpt>
			<trkpt lat="16.407174607212028" lon="-86.36806568929025">
				<ele>66.608</ele>
				<time>2025-07-03T15:45:03.000000Z</time>
			</trkpt>
			<trkpt lat="16.40715633282113" lon="-86.36813883444172">
				<ele>66.2757</ele>
				<time>2025-07-03T15:45:04.000000Z</time>
			</trkpt>
			<trkpt lat="16.407121350373952" lon="-86.36820141142783">
				<ele>66.124</ele>
				<time>2025-07-03T15:45:05.000000Z</time>
			</trkpt>
			<trkpt lat="16.40706837307545" lon="-86.36825080743877">
				<ele>66.0854</ele>
				<time>2025-07-03T15:45:06.000000Z</time>
			</trkpt>
			<trkpt lat="16.40700324407349" lon="-86.36828409787361">
				<ele>66.4118</ele>
				<time>2025-07-03T15:45:07.000000Z</time>
			</trkpt>
			<trkpt lat="16.40694265593299" lon="-86.3683102292704">
				<ele>66.8862</ele>
				<time>2025-07-03T15:45:08.000000Z</time>
			</trkpt>
			<trkpt lat="16.406884969052694" lon="-86.36832859189714">
				<ele>67.0762</ele>
				<time>2025-07-03T15:45:09.000000Z</time>
			</trkpt>
			<trkpt lat="16.406829710978947" lon="-86.36834939826478">
				<ele>67.257</ele>
				<time>2025-07-03T15:45:10.000000Z</time>
			</trkpt>
			<trkpt lat="16.4067744698963" lon="-86.36837656301886">
				<ele>67.404</ele>
				<time>2025-07-03T15:45:11.000000Z</time>
			</trkpt>
			<trkpt lat="16.406725284903427" lon="-86.36840881491351">
				<ele>67.5089</ele>
				<time>2025-07-03T15:45:12.000000Z</time>
			</trkpt>
			<trkpt lat="16.406681978613452" lon="-86.36844712472802">
				<ele>67.7442</ele>
				<time>2025-07-03T15:45:13.000000Z</time>
			</trkpt>
			<trkpt lat="16.406647633803235" lon="-86.36848843715978">
				<ele>67.8597</ele>
				<time>2025-07-03T15:45:14.000000Z</time>
			</trkpt>
			<trkpt lat="16.40661146892011" lon="-86.36853825637297">
				<ele>67.9012</ele>
				<time>2025-07-03T15:45:15.000000Z</time>
			</trkpt>
			<trkpt lat="16.40657722939745" lon="-86.36859567109998">
				<ele>68.0884</ele>
				<time>2025-07-03T15:45:16.000000Z</time>
			</trkpt>
			<trkpt lat="16.406551139707123" lon="-86.36866512957879">
				<ele>68.4491</ele>
				<time>2025-07-03T15:45:17.000000Z</time>
			</trkpt>
			<trkpt lat="16.406533852214327" lon="-86.36874476134331">
				<ele>68.7347</ele>
				<time>2025-07-03T15:45:18.000000Z</time>
			</trkpt>
			<trkpt lat="16.406516711092724" lon="-86.3688268303057">
				<ele>69.1242</ele>
				<time>2025-07-03T15:45:19.000000Z</time>
			</trkpt>
			<trkpt lat="16.40649881312112" lon="-86.36889999126727">
				<ele>69.4876</ele>
				<time>2025-07-03T15:45:20.000000Z</time>
			</trkpt>
			<trkpt lat="16.406480676231826" lon="-86.36896677120389">
				<ele>69.7528</ele>
				<time>2025-07-03T15:45:21.000000Z</time>
			</trkpt>
			<trkpt lat="16.40646301156887" lon="-86.36902877873345">
				<ele>69.862</ele>
				<time>2025-07-03T15:45:22.000000Z</time>
			</trkpt>
			<trkpt lat="16.40644617097334" lon="-86.36908897081314">
				<ele>69.983</ele>
				<time>2025-07-03T15:45:23.000000Z</time>
			</trkpt>
			<trkpt lat="16.406431235325936" lon="-86.36914292099767">
				<ele>69.9567</ele>
				<time>2025-07-03T15:45:24.000000Z</time>
			</trkpt>
			<trkpt lat="16.406415966314558" lon="-86.36918866184861">
				<ele>69.8916</ele>
				<time>2025-07-03T15:45:25.000000Z</time>
			</trkpt>
			<trkpt lat="16.406401978229542" lon="-86.36923042597535">
				<ele>69.8398</ele>
				<time>2025-07-03T15:45:26.000000Z</time>
			</trkpt>
			<trkpt lat="16.406388119609726" lon="-86.36927459009941">
				<ele>69.5608</ele>
				<time>2025-07-03T15:45:27.000000Z</time>
			</trkpt>
			<trkpt lat="16.406375089063268" lon="-86.36931446090814">
				<ele>69.2956</ele>
				<time>2025-07-03T15:45:28.000000Z</time>
			</trkpt>
			<trkpt lat="16.406366012093557" lon="-86.36935909388662">
				<ele>69.0111</ele>
				<time>2025-07-03T15:45:29.000000Z</time>
			</trkpt>
			<trkpt lat="16.406356322966996" lon="-86.36940444096824">
				<ele>68.8044</ele>
				<time>2025-07-03T15:45:30.000000Z</time>
			</trkpt>
			<trkpt lat="16.406344610722662" lon="-86.3694524131728">
				<ele>68.6024</ele>
				<time>2025-07-03T15:45:31.000000Z</time>
			</trkpt>
			<trkpt lat="16.40633155479681" lon="-86.36950193978774">
				<ele>68.4288</ele>
				<time>2025-07-03T15:45:32.000000Z</time>
			</trkpt>
			<trkpt lat="16.40631805702451" lon="-86.36955532334687">
				<ele>68.376</ele>
				<time>2025-07-03T15:45:33.000000Z</time>
			</trkpt>
			<trkpt lat="16.406306106220843" lon="-86.36962209580638">
				<ele>68.2727</ele>
				<time>2025-07-03T15:45:34.000000Z</time>
			</trkpt>
			<trkpt lat="16.406300906056526" lon="-86.36969510184616">
				<ele>67.9109</ele>
				<time>2025-07-03T15:45:35.000000Z</time>
			</trkpt>
			<trkpt lat="16.406301264433658" lon="-86.36977663445411">
				<ele>67.6007</ele>
				<time>2025-07-03T15:45:36.000000Z</time>
			</trkpt>
			<trkpt lat="16.406306142207523" lon="-86.36986053782836">
				<ele>67.0891</ele>
				<time>2025-07-03T15:45:37.000000Z</time>
			</trkpt>
			<trkpt lat="16.406315991794994" lon="-86.36993322252677">
				<ele>66.6719</ele>
				<time>2025-07-03T15:45:38.000000Z</time>
			</trkpt>
			<trkpt lat="16.40632690217128" lon="-86.36998428814574">
				<ele>66.7876</ele>
				<time>2025-07-03T15:45:39.000000Z</time>
			</trkpt>
			<trkpt lat="16.406332905722948" lon="-86.3700264404064">
				<ele>66.9181</ele>
				<time>2025-07-03T15:45:40.000000Z</time>
			</trkpt>
			<trkpt lat="16.406339445794046" lon="-86.37007198203699">
				<ele>66.923</ele>
				<time>2025-07-03T15:45:41.000000Z</time>
			</trkpt>
			<trkpt lat="16.40634684811288" lon="-86.37012882640701">
				<ele>66.7964</ele>
				<time>2025-07-03T15:45:42.000000Z</time>
			</trkpt>
			<trkpt lat="16.406355559056376" lon="-86.37019447377101">
				<ele>66.476</ele>
				<time>2025-07-03T15:45:43.000000Z</time>
			</trkpt>
			<trkpt lat="16.406365932030113" lon="-86.37026696990175">
				<ele>66.233</ele>
				<time>2025-07-03T15:45:44.000000Z</time>
			</trkpt>
			<trkpt lat="16.406373346126315" lon="-86.3703410685678">
				<ele>65.5325</ele>
				<time>2025-07-03T15:45:45.000000Z</time>
			</trkpt>
			<trkpt lat="16.4063781219556" lon="-86.3704183336547">
				<ele>64.6508</ele>
				<time>2025-07-03T15:45:46.000000Z</time>
			</trkpt>
			<trkpt lat="16.40638286313667" lon="-86.37048782064625">
				<ele>64.1492</ele>
				<time>2025-07-03T15:45:47.000000Z</time>
			</trkpt>
			<trkpt lat="16.406386118809515" lon="-86.37054331360585">
				<ele>63.725</ele>
				<time>2025-07-03T15:45:48.000000Z</time>
			</trkpt>
			<trkpt lat="16.40638554164161" lon="-86.37058790709429">
				<ele>63.2111</ele>
				<time>2025-07-03T15:45:49.000000Z</time>
			</trkpt>
			<trkpt lat="16.406381750975836" lon="-86.37063690499568">
				<ele>62.436</ele>
				<time>2025-07-03T15:45:50.000000Z</time>
			</trkpt>
			<trkpt lat="16.406376489254622" lon="-86.37069135941594">
				<ele>61.8393</ele>
				<time>2025-07-03T15:45:51.000000Z</time>
			</trkpt>
			<trkpt lat="16.406370705400505" lon="-86.37074860559711">
				<ele>61.0694</ele>
				<time>2025-07-03T15:45:52.000000Z</time>
			</trkpt>
			<trkpt lat="16.406362598048503" lon="-86.37080784350465">
				<ele>60.4335</ele>
				<time>2025-07-03T15:45:53.000000Z</time>
			</trkpt>
			<trkpt lat="16.406351130621292" lon="-86.37087172138631">
				<ele>59.823</ele>
				<time>2025-07-03T15:45:54.000000Z</time>
			</trkpt>
			<trkpt lat="16.406334237302577" lon="-86.37093825912471">
				<ele>59.1633</ele>
				<time>2025-07-03T15:45:55.000000Z</time>
			</trkpt>
			<trkpt lat="16.40631557638235" lon="-86.37100916654241">
				<ele>58.2812</ele>
				<time>2025-07-03T15:45:56.000000Z</time>
			</trkpt>
			<trkpt lat="16.406293975443155" lon="-86.37108347692278">
				<ele>57.6941</ele>
				<time>2025-07-03T15:45:57.000000Z</time>
			</trkpt>
			<trkpt lat="16.40626764024938" lon="-86.37116096778777">
				<ele>56.9399</ele>
				<time>2025-07-03T15:45:58.000000Z</time>
			</trkpt>
			<trkpt lat="16.406239919174922" lon="-86.37124085141251">
				<ele>56.3227</ele>
				<time>2025-07-03T15:45:59.000000Z</time>
			</trkpt>
			<trkpt lat="16.40621555482506" lon="-86.37132777620957">
				<ele>55.4653</ele>
				<time>2025-07-03T15:46:00.000000Z</time>
			</trkpt>
			<trkpt lat="16.4061962336531" lon="-86.37141203298931">
				<ele>54.8458</ele>
				<time>2025-07-03T15:46:01.000000Z</time>
			</trkpt>
			<trkpt lat="16.40617329707175" lon="-86.37149485422817">
				<ele>54.348</ele>
				<time>2025-07-03T15:46:02.000000Z</time>
			</trkpt>
			<trkpt lat="16.40615033866688" lon="-86.37156755563268">
				<ele>54.0546</ele>
				<time>2025-07-03T15:46:03.000000Z</time>
			</trkpt>
			<trkpt lat="16.40613207503597" lon="-86.37162097830313">
				<ele>53.9103</ele>
				<time>2025-07-03T15:46:04.000000Z</time>
			</trkpt>
			<trkpt lat="16.406117969489458" lon="-86.37166712591588">
				<ele>53.5033</ele>
				<time>2025-07-03T15:46:05.000000Z</time>
			</trkpt>
			<trkpt lat="16.40610517415738" lon="-86.37171188588908">
				<ele>53.1373</ele>
				<time>2025-07-03T15:46:06.000000Z</time>
			</trkpt>
			<trkpt lat="16.406095007989645" lon="-86.37175073228404">
				<ele>52.991</ele>
				<time>2025-07-03T15:46:07.000000Z</time>
			</trkpt>
			<trkpt lat="16.40608721423907" lon="-86.37178217264395">
				<ele>52.8296</ele>
				<time>2025-07-03T15:46:08.000000Z</time>
			</trkpt>
			<trkpt lat="16.406080734896385" lon="-86.37180743217338">
				<ele>52.5096</ele>
				<time>2025-07-03T15:46:09.000000Z</time>
			</trkpt>
			<trkpt lat="16.406073102446683" lon="-86.37183486382095">
				<ele>52.1925</ele>
				<time>2025-07-03T15:46:10.000000Z</time>
			</trkpt>
			<trkpt lat="16.406065874014796" lon="-86.37185818508263">
				<ele>52.1877</ele>
				<time>2025-07-03T15:46:11.000000Z</time>
			</trkpt>
			<trkpt lat="16.4060634586374" lon="-86.37186752157264">
				<ele>52.181</ele>
				<time>2025-07-03T15:46:12.000000Z</time>
			</trkpt>
			<trkpt lat="16.406064635992717" lon="-86.37186693489656">
				<ele>52.298</ele>
				<time>2025-07-03T15:46:13.000000Z</time>
			</trkpt>
			<trkpt lat="16.40606505665499" lon="-86.37186519607435">
				<ele>52.3212</ele>
				<time>2025-07-03T15:46:14.000000Z</time>
			</trkpt>
			<trkpt lat="16.406065031965543" lon="-86.37186488540416">
				<ele>52.3025</ele>
				<time>2025-07-03T15:46:15.000000Z</time>
			</trkpt>
			<trkpt lat="16.406065000222707" lon="-86.37186497283713">
				<ele>52.2989</ele>
				<time>2025-07-03T15:46:16.000000Z</time>
			</trkpt>
			<trkpt lat="16.406064997771214" lon="-86.37186500505705">
				<ele>52.2997</ele>
				<time>2025-07-03T15:46:17.000000Z</time>
			</trkpt>
			<trkpt lat="16.406064999708864" lon="-86.37186500242122">
				<ele>52.3</ele>
				<time>2025-07-03T15:46:18.000000Z</time>
			</trkpt>
			<trkpt lat="16.40606500012474" lon="-86.37186499991286">
				<ele>52.3</ele>
				<time>2025-07-03T15:46:19.000000Z</time>
			</trkpt>
			<trkpt lat="16.406065000034697" lon="-86.3718649998293">
				<ele>52.3</ele>
				<time>2025-07-03T15:46:20.000000Z</time>
			</trkpt>
			<trkpt lat="16.40606499999507" lon="-86.37186499998717">
				<ele>52.3</ele>
				<time>2025-07-03T15:46:21.000000Z</time>
			</trkpt>
			<trkpt lat="16.4060649999971" lon="-86.3718650000097">
				<ele>52.3</ele>
				<time>2025-07-03T15:46:22.000000Z</time>
			</trkpt>
			<trkpt lat="16.406065000000027" lon="-86.37186500000199">
				<ele>52.3</ele>
				<time>2025-07-03T15:46:23.000000Z</time>
			</trkpt>
			<trkpt lat="16.406065000000197" lon="-86.37186499999963">
				<ele>52.3</ele>
				<time>2025-07-03T15:46:24.000000Z</time>
			</trkpt>
			<trkpt lat="16.40606500000002" lon="-86.37186499999983">
				<ele>52.3</ele>
				<time>2025-07-03T15:46:25.000000Z</time>
			</trkpt>
			<trkpt lat="16.40606499999999" lon="-86.37186500000003">
				<ele>52.3</ele>
				<time>2025-07-03T15:46:26.000000Z</time>
			</trkpt>
			<trkpt lat="16.406064999999995" lon="-86.37186500000004">
				<ele>52.3</ele>
				<time>2025-07-03T15:46:27.000000Z</time>
			</trkpt>
			<trkpt lat="16.40606500000001" lon="-86.37186499999999">
				<ele>52.3</ele>
				<time>2025-07-03T15:46:28.000000Z</time>
			</trkpt>
			<trkpt lat="16.40606500000001" lon="-86.37186499999999">
				<ele>52.3</ele>
				<time>2025-07-03T15:46:29.000000Z</time>
			</trkpt>
			<trkpt lat="16.406064999999995" lon="-86.37186500000004">
				<ele>52.3</ele>
				<time>2025-07-03T15:46:30.000000Z</time>
			</trkpt>
			<trkpt lat="16.406064999999995" lon="-86.37186500000004">
				<ele>52.3</ele>
				<time>2025-07-03T15:46:31.000000Z</time>
			</trkpt>
			<trkpt lat="16.40606500000001" lon="-86.37186499999999">
				<ele>52.3</ele>
				<time>2025-07-03T15:46:32.000000Z</time>
			</trkpt>
			<trkpt lat="16.40606500000001" lon="-86.37186499999999">
				<ele>52.3</ele>
				<time>2025-07-03T15:46:33.000000Z</time>
			</trkpt>
			<trkpt lat="16.406064999999995" lon="-86.37186500000004">
				<ele>52.3</ele>
				<time>2025-07-03T15:46:34.000000Z</time>
			</trkpt>
			<trkpt lat="16.406064999999995" lon="-86.37186500000004">
				<ele>52.3</ele>
				<time>2025-07-03T15:46:35.000000Z</time>
			</trkpt>
			<trkpt lat="16.40606500000001" lon="-86.37186499999999">
				<ele>52.3</ele>
				<time>2025-07-03T15:46:36.000000Z</time>
			</trkpt>
			<trkpt lat="16.40606500000001" lon="-86.371865">
				<ele>52.3</ele>
				<time>2025-07-03T15:46:37.000000Z</time>
			</trkpt>
			<trkpt lat="16.406064999999995" lon="-86.37186500000004">
				<ele>52.3</ele>
				<time>2025-07-03T15:46:38.000000Z</time>
			</trkpt>
			<trkpt lat="16.406064999999995" lon="-86.371865">
				<ele>52.3</ele>
				<time>2025-07-03T15:46:39.000000Z</time>
			</trkpt>
			<trkpt lat="16.40606500000001" lon="-86.37186499999999">
				<ele>52.3</ele>
				<time>2025-07-03T15:46:40.000000Z</time>
			</trkpt>
			<trkpt lat="16.40606500000001" lon="-86.37186500000004">
				<ele>52.3</ele>
				<time>2025-07-03T15:46:41.000000Z</time>
			</trkpt>
			<trkpt lat="16.406064999999995" lon="-86.37186500000004">
				<ele>52.3</ele>
				<time>2025-07-03T15:46:42.000000Z</time>
			</trkpt>
			<trkpt lat="16.406064999999995" lon="-86.37186499999999">
				<ele>52.3</ele>
				<time>2025-07-03T15:46:43.000000Z</time>
			</trkpt>
			<trkpt lat="16.40606500000001" lon="-86.37186499999999">
				<ele>52.3</ele>
				<time>2025-07-03T15:46:44.000000Z</time>
			</trkpt>
			<trkpt lat="16.40606500000001" lon="-86.37186500000004">
				<ele>52.3</ele>
				<time>2025-07-03T15:46:45.000000Z</time>
			</trkpt>
			<trkpt lat="16.406064999999995" lon="-86.37186500000004">
				<ele>52.3</ele>
				<time>2025-07-03T15:46:46.000000Z</time>
			</trkpt>
			<trkpt lat="16.406064999999995" lon="-86.37186499999999">
				<ele>52.3</ele>
				<time>2025-07-03T15:46:47.000000Z</time>
			</trkpt>
			<trkpt lat="16.40606500000001" lon="-86.37186499999999">
				<ele>52.3</ele>
				<time>2025-07-03T15:46:48.000000Z</time>
			</trkpt>
			<trkpt lat="16.40606500000001" lon="-86.37186500000004">
				<ele>52.3</ele>
				<time>2025-07-03T15:46:49.000000Z</time>
			</trkpt>
			<trkpt lat="16.406064999999995" lon="-86.37186500000004">
				<ele>52.3</ele>
				<time>2025-07-03T15:46:50.000000Z</time>
			</trkpt>
			<trkpt lat="16.406064999999995" lon="-86.37186499999999">
				<ele>52.3</ele>
				<time>2025-07-03T15:46:51.000000Z</time>
			</trkpt>
			<trkpt lat="16.40606500000001" lon="-86.37186499999999">
				<ele>52.3</ele>
				<time>2025-07-03T15:46:52.000000Z</time>
			</trkpt>
			<trkpt lat="16.40606500000001" lon="-86.37186500000004">
				<ele>52.3</ele>
				<time>2025-07-03T15:46:53.000000Z</time>
			</trkpt>
			<trkpt lat="16.406064999999995" lon="-86.37186500000003">
				<ele>52.3</ele>
				<time>2025-07-03T15:46:54.000000Z</time>
			</trkpt>
			<trkpt lat="16.406064999999995" lon="-86.37186499999999">
				<ele>52.3</ele>
				<time>2025-07-03T15:46:55.000000Z</time>
			</trkpt>
			<trkpt lat="16.40606500000001" lon="-86.37186500000001">
				<ele>52.3</ele>
				<time>2025-07-03T15:46:56.000000Z</time>
			</trkpt>
			<trkpt lat="16.40606655171379" lon="-86.3718785793126">
				<ele>52.8991</ele>
				<time>2025-07-03T15:46:57.000000Z</time>
			</trkpt>
			<trkpt lat="16.406058181255844" lon="-86.37189433033875">
				<ele>52.8578</ele>
				<time>2025-07-03T15:46:58.000000Z</time>
			</trkpt>
			<trkpt lat="16.406048118836324" lon="-86.3719131395203">
				<ele>52.8006</ele>
				<time>2025-07-03T15:46:59.000000Z</time>
			</trkpt>
			<trkpt lat="16.406035703401724" lon="-86.37193610527623">
				<ele>52.7893</ele>
				<time>2025-07-03T15:47:00.000000Z</time>
			</trkpt>
			<trkpt lat="16.406020918710446" lon="-86.37196231630942">
				<ele>52.8016</ele>
				<time>2025-07-03T15:47:01.000000Z</time>
			</trkpt>
			<trkpt lat="16.406005428284807" lon="-86.37199394129931">
				<ele>52.9095</ele>
				<time>2025-07-03T15:47:02.000000Z</time>
			</trkpt>
			<trkpt lat="16.405988328714937" lon="-86.37203378815454">
				<ele>53.0266</ele>
				<time>2025-07-03T15:47:03.000000Z</time>
			</trkpt>
			<trkpt lat="16.405971387552306" lon="-86.3720865342871">
				<ele>53.2123</ele>
				<time>2025-07-03T15:47:04.000000Z</time>
			</trkpt>
			<trkpt lat="16.40595482260139" lon="-86.37214720885922">
				<ele>53.4002</ele>
				<time>2025-07-03T15:47:05.000000Z</time>
			</trkpt>
			<trkpt lat="16.405935179797705" lon="-86.37221279682771">
				<ele>53.6263</ele>
				<time>2025-07-03T15:47:06.000000Z</time>
			</trkpt>
			<trkpt lat="16.405916716795108" lon="-86.37227982923051">
				<ele>53.8939</ele>
				<time>2025-07-03T15:47:07.000000Z</time>
			</trkpt>
			<trkpt lat="16.405899268281733" lon="-86.3723456655446">
				<ele>54.1457</ele>
				<time>2025-07-03T15:47:08.000000Z</time>
			</trkpt>
			<trkpt lat="16.40588327523126" lon="-86.37240970665002">
				<ele>54.4115</ele>
				<time>2025-07-03T15:47:09.000000Z</time>
			</trkpt>
			<trkpt lat="16.405866705639475" lon="-86.37247393124186">
				<ele>54.7533</ele>
				<time>2025-07-03T15:47:10.000000Z</time>
			</trkpt>
			<trkpt lat="16.405851661246153" lon="-86.37253728234504">
				<ele>55.0333</ele>
				<time>2025-07-03T15:47:11.000000Z</time>
			</trkpt>
			<trkpt lat="16.405837576511892" lon="-86.37259831949667">
				<ele>55.3517</ele>
				<time>2025-07-03T15:47:12.000000Z</time>
			</trkpt>
			<trkpt lat="16.405824007670986" lon="-86.3726550003989">
				<ele>55.6594</ele>
				<time>2025-07-03T15:47:13.000000Z</time>
			</trkpt>
			<trkpt lat="16.40580952874273" lon="-86.37270913196629">
				<ele>55.9044</ele>
				<time>2025-07-03T15:47:14.000000Z</time>
			</trkpt>
			<trkpt lat="16.405797754573083" lon="-86.37276231165139">
				<ele>56.2654</ele>
				<time>2025-07-03T15:47:15.000000Z</time>
			</trkpt>
			<trkpt lat="16.40578886453092" lon="-86.37281223587013">
				<ele>56.6435</ele>
				<time>2025-07-03T15:47:16.000000Z</time>
			</trkpt>
			<trkpt lat="16.405783073395533" lon="-86.37286516361551">
				<ele>56.9707</ele>
				<time>2025-07-03T15:47:17.000000Z</time>
			</trkpt>
			<trkpt lat="16.405776297677797" lon="-86.3729206334429">
				<ele>57.1251</ele>
				<time>2025-07-03T15:47:18.000000Z</time>
			</trkpt>
			<trkpt lat="16.405770398167707" lon="-86.37297563098896">
				<ele>57.4078</ele>
				<time>2025-07-03T15:47:19.000000Z</time>
			</trkpt>
			<trkpt lat="16.40576559837826" lon="-86.37303394994325">
				<ele>57.8003</ele>
				<time>2025-07-03T15:47:20.000000Z</time>
			</trkpt>
			<trkpt lat="16.405761238824738" lon="-86.37309729972272">
				<ele>58.1532</ele>
				<time>2025-07-03T15:47:21.000000Z</time>
			</trkpt>
			<trkpt lat="16.40575716864326" lon="-86.37316581919534">
				<ele>58.6234</ele>
				<time>2025-07-03T15:47:22.000000Z</time>
			</trkpt>
			<trkpt lat="16.405755841696454" lon="-86.37324095646058">
				<ele>59.0691</ele>
				<time>2025-07-03T15:47:23.000000Z</time>
			</trkpt>
			<trkpt lat="16.40575816064454" lon="-86.37332016647485">
				<ele>59.3872</ele>
				<time>2025-07-03T15:47:24.000000Z</time>
			</trkpt>
			<trkpt lat="16.40575953322374" lon="-86.37339875834685">
				<ele>59.6727</ele>
				<time>2025-07-03T15:47:25.000000Z</time>
			</trkpt>
			<trkpt lat="16.405760422406974" lon="-86.37347127141835">
				<ele>60.0633</ele>
				<time>2025-07-03T15:47:26.000000Z</time>
			</trkpt>
			<trkpt lat="16.40576052766998" lon="-86.37353769559877">
				<ele>60.4256</ele>
				<time>2025-07-03T15:47:27.000000Z</time>
			</trkpt>
			<trkpt lat="16.405765040799803" lon="-86.37359817910442">
				<ele>60.6972</ele>
				<time>2025-07-03T15:47:28.000000Z</time>
			</trkpt>
			<trkpt lat="16.40577472702356" lon="-86.37365418951933">
				<ele>60.8596</ele>
				<time>2025-07-03T15:47:29.000000Z</time>
			</trkpt>
			<trkpt lat="16.405790475048985" lon="-86.37370486552535">
				<ele>61.1301</ele>
				<time>2025-07-03T15:47:30.000000Z</time>
			</trkpt>
			<trkpt lat="16.405803724263517" lon="-86.37373959625033">
				<ele>61.353</ele>
				<time>2025-07-03T15:47:31.000000Z</time>
			</trkpt>
			<trkpt lat="16.40581571326296" lon="-86.37376217729499">
				<ele>61.5331</ele>
				<time>2025-07-03T15:47:32.000000Z</time>
			</trkpt>
			<trkpt lat="16.405828961770688" lon="-86.37378667497151">
				<ele>61.6033</ele>
				<time>2025-07-03T15:47:33.000000Z</time>
			</trkpt>
			<trkpt lat="16.405852913324562" lon="-86.37382270180183">
				<ele>61.8021</ele>
				<time>2025-07-03T15:47:34.000000Z</time>
			</trkpt>
			<trkpt lat="16.405893338704967" lon="-86.37386638904448">
				<ele>61.9376</ele>
				<time>2025-07-03T15:47:35.000000Z</time>
			</trkpt>
			<trkpt lat="16.40594294524598" lon="-86.37390619124504">
				<ele>62.532</ele>
				<time>2025-07-03T15:47:36.000000Z</time>
			</trkpt>
			<trkpt lat="16.40599859319746" lon="-86.37394182564057">
				<ele>63.0882</ele>
				<time>2025-07-03T15:47:37.000000Z</time>
			</trkpt>
			<trkpt lat="16.406058539144315" lon="-86.37397597144583">
				<ele>63.5665</ele>
				<time>2025-07-03T15:47:38.000000Z</time>
			</trkpt>
			<trkpt lat="16.406121854804642" lon="-86.37401045905654">
				<ele>63.8492</ele>
				<time>2025-07-03T15:47:39.000000Z</time>
			</trkpt>
			<trkpt lat="16.406181389669275" lon="-86.3740475007802">
				<ele>64.1211</ele>
				<time>2025-07-03T15:47:40.000000Z</time>
			</trkpt>
			<trkpt lat="16.406233908069403" lon="-86.37409541940164">
				<ele>64.269</ele>
				<time>2025-07-03T15:47:41.000000Z</time>
			</trkpt>
			<trkpt lat="16.406272787623436" lon="-86.37415863730018">
				<ele>64.2494</ele>
				<time>2025-07-03T15:47:42.000000Z</time>
			</trkpt>
			<trkpt lat="16.406295021748573" lon="-86.37423848328015">
				<ele>63.9765</ele>
				<time>2025-07-03T15:47:43.000000Z</time>
			</trkpt>
			<trkpt lat="16.406296695861062" lon="-86.37432114576565">
				<ele>63.4333</ele>
				<time>2025-07-03T15:47:44.000000Z</time>
			</trkpt>
			<trkpt lat="16.406276185188375" lon="-86.37439894778525">
				<ele>62.9987</ele>
				<time>2025-07-03T15:47:45.000000Z</time>
			</trkpt>
			<trkpt lat="16.406238941848148" lon="-86.37446846166112">
				<ele>62.5594</ele>
				<time>2025-07-03T15:47:46.000000Z</time>
			</trkpt>
			<trkpt lat="16.406189452073455" lon="-86.37453997993106">
				<ele>61.8031</ele>
				<time>2025-07-03T15:47:47.000000Z</time>
			</trkpt>
			<trkpt lat="16.40612810564601" lon="-86.37461804736664">
				<ele>60.8557</ele>
				<time>2025-07-03T15:47:48.000000Z</time>
			</trkpt>
			<trkpt lat="16.406059303181756" lon="-86.37470073646062">
				<ele>60.0279</ele>
				<time>2025-07-03T15:47:49.000000Z</time>
			</trkpt>
			<trkpt lat="16.405990693008118" lon="-86.37478895743925">
				<ele>59.6853</ele>
				<time>2025-07-03T15:47:50.000000Z</time>
			</trkpt>
			<trkpt lat="16.405920096466552" lon="-86.37487874602124">
				<ele>59.3518</ele>
				<time>2025-07-03T15:47:51.000000Z</time>
			</trkpt>
			<trkpt lat="16.405849970956815" lon="-86.37496917853052">
				<ele>59.2012</ele>
				<time>2025-07-03T15:47:52.000000Z</time>
			</trkpt>
			<trkpt lat="16.405776459773936" lon="-86.37505276202386">
				<ele>59.1108</ele>
				<time>2025-07-03T15:47:53.000000Z</time>
			</trkpt>
			<trkpt lat="16.40570174523702" lon="-86.37513303550438">
				<ele>59.3171</ele>
				<time>2025-07-03T15:47:54.000000Z</time>
			</trkpt>
			<trkpt lat="16.405636827136686" lon="-86.37521555734476">
				<ele>59.7518</ele>
				<time>2025-07-03T15:47:55.000000Z</time>
			</trkpt>
			<trkpt lat="16.405579343618516" lon="-86.37530411834537">
				<ele>59.8072</ele>
				<time>2025-07-03T15:47:56.000000Z</time>
			</trkpt>
			<trkpt lat="16.405526456011525" lon="-86.37539645823477">
				<ele>59.7257</ele>
				<time>2025-07-03T15:47:57.000000Z</time>
			</trkpt>
			<trkpt lat="16.405482286861822" lon="-86.37549278618599">
				<ele>59.5531</ele>
				<time>2025-07-03T15:47:58.000000Z</time>
			</trkpt>
			<trkpt lat="16.40544479462736" lon="-86.37559252936954">
				<ele>59.1842</ele>
				<time>2025-07-03T15:47:59.000000Z</time>
			</trkpt>
			<trkpt lat="16.405410610017565" lon="-86.37569542822989">
				<ele>58.7945</ele>
				<time>2025-07-03T15:48:00.000000Z</time>
			</trkpt>
			<trkpt lat="16.40538126549343" lon="-86.37580125123837">
				<ele>58.2669</ele>
				<time>2025-07-03T15:48:01.000000Z</time>
			</trkpt>
			<trkpt lat="16.405358813790283" lon="-86.37590687753274">
				<ele>57.5002</ele>
				<time>2025-07-03T15:48:02.000000Z</time>
			</trkpt>
			<trkpt lat="16.405344121169758" lon="-86.37601312845395">
				<ele>56.4598</ele>
				<time>2025-07-03T15:48:03.000000Z</time>
			</trkpt>
			<trkpt lat="16.40534026082681" lon="-86.37612070309054">
				<ele>55.6074</ele>
				<time>2025-07-03T15:48:04.000000Z</time>
			</trkpt>
			<trkpt lat="16.40534950106063" lon="-86.37622456691538">
				<ele>54.7438</ele>
				<time>2025-07-03T15:48:05.000000Z</time>
			</trkpt>
			<trkpt lat="16.40537112800651" lon="-86.37632433157961">
				<ele>53.8403</ele>
				<time>2025-07-03T15:48:06.000000Z</time>
			</trkpt>
			<trkpt lat="16.40539879038604" lon="-86.37641639926488">
				<ele>53.0677</ele>
				<time>2025-07-03T15:48:07.000000Z</time>
			</trkpt>
			<trkpt lat="16.405422691131406" lon="-86.37649958883469">
				<ele>52.3632</ele>
				<time>2025-07-03T15:48:08.000000Z</time>
			</trkpt>
			<trkpt lat="16.405441643130327" lon="-86.37657085456601">
				<ele>51.8895</ele>
				<time>2025-07-03T15:48:09.000000Z</time>
			</trkpt>
			<trkpt lat="16.405457274059767" lon="-86.37663050707806">
				<ele>51.471</ele>
				<time>2025-07-03T15:48:10.000000Z</time>
			</trkpt>
			<trkpt lat="16.405473443229326" lon="-86.37668710830557">
				<ele>50.8611</ele>
				<time>2025-07-03T15:48:11.000000Z</time>
			</trkpt>
			<trkpt lat="16.405486704377996" lon="-86.3767379742619">
				<ele>50.2311</ele>
				<time>2025-07-03T15:48:12.000000Z</time>
			</trkpt>
			<trkpt lat="16.405496582469084" lon="-86.37677326093993">
				<ele>49.7361</ele>
				<time>2025-07-03T15:48:13.000000Z</time>
			</trkpt>
			<trkpt lat="16.40550403629742" lon="-86.37680203374742">
				<ele>49.5128</ele>
				<time>2025-07-03T15:48:14.000000Z</time>
			</trkpt>
			<trkpt lat="16.405511304531274" lon="-86.3768301570037">
				<ele>49.2819</ele>
				<time>2025-07-03T15:48:15.000000Z</time>
			</trkpt>
			<trkpt lat="16.405516318123205" lon="-86.37684621775068">
				<ele>49.0842</ele>
				<time>2025-07-03T15:48:16.000000Z</time>
			</trkpt>
			<trkpt lat="16.405517384575585" lon="-86.37684760615971">
				<ele>49.2019</ele>
				<time>2025-07-03T15:48:17.000000Z</time>
			</trkpt>
			<trkpt lat="16.405518132030565" lon="-86.37685192327993">
				<ele>49.2138</ele>
				<time>2025-07-03T15:48:18.000000Z</time>
			</trkpt>
			<trkpt lat="16.40552356109703" lon="-86.37687555831681">
				<ele>49.0384</ele>
				<time>2025-07-03T15:48:19.000000Z</time>
			</trkpt>
			<trkpt lat="16.40553198321376" lon="-86.37690521152751">
				<ele>48.793</ele>
				<time>2025-07-03T15:48:20.000000Z</time>
			</trkpt>
			<trkpt lat="16.405539313630637" lon="-86.37693595337005">
				<ele>48.6425</ele>
				<time>2025-07-03T15:48:21.000000Z</time>
			</trkpt>
			<trkpt lat="16.405548502673177" lon="-86.37696946454415">
				<ele>48.4897</ele>
				<time>2025-07-03T15:48:22.000000Z</time>
			</trkpt>
			<trkpt lat="16.405556213024322" lon="-86.37699697797103">
				<ele>48.2842</ele>
				<time>2025-07-03T15:48:23.000000Z</time>
			</trkpt>
			<trkpt lat="16.405559710880777" lon="-86.37700944903453">
				<ele>48.1759</ele>
				<time>2025-07-03T15:48:24.000000Z</time>
			</trkpt>
			<trkpt lat="16.405565181447322" lon="-86.3770293170027">
				<ele>48.1781</ele>
				<time>2025-07-03T15:48:25.000000Z</time>
			</trkpt>
			<trkpt lat="16.40557468870551" lon="-86.37706298071843">
				<ele>48.3223</ele>
				<time>2025-07-03T15:48:26.000000Z</time>
			</trkpt>
			<trkpt lat="16.405585327690275" lon="-86.37710181266726">
				<ele>48.3388</ele>
				<time>2025-07-03T15:48:27.000000Z</time>
			</trkpt>
			<trkpt lat="16.40559580362955" lon="-86.37714298394118">
				<ele>48.4908</ele>
				<time>2025-07-03T15:48:28.000000Z</time>
			</trkpt>
			<trkpt lat="16.40560575447541" lon="-86.37718850665776">
				<ele>48.694</ele>
				<time>2025-07-03T15:48:29.000000Z</time>
			</trkpt>
			<trkpt lat="16.405614272632366" lon="-86.37723717987093">
				<ele>48.8388</ele>
				<time>2025-07-03T15:48:30.000000Z</time>
			</trkpt>
			<trkpt lat="16.405617231901044" lon="-86.37728616157716">
				<ele>48.958</ele>
				<time>2025-07-03T15:48:31.000000Z</time>
			</trkpt>
			<trkpt lat="16.405615901708465" lon="-86.37733856291094">
				<ele>49.1477</ele>
				<time>2025-07-03T15:48:32.000000Z</time>
			</trkpt>
			<trkpt lat="16.405609175361448" lon="-86.3773903580411">
				<ele>49.4055</ele>
				<time>2025-07-03T15:48:33.000000Z</time>
			</trkpt>
			<trkpt lat="16.405597326768593" lon="-86.37744645284604">
				<ele>49.748</ele>
				<time>2025-07-03T15:48:34.000000Z</time>
			</trkpt>
			<trkpt lat="16.405577009649587" lon="-86.3775081974387">
				<ele>50.0333</ele>
				<time>2025-07-03T15:48:35.000000Z</time>
			</trkpt>
			<trkpt lat="16.405549107259027" lon="-86.37757097226282">
				<ele>50.2714</ele>
				<time>2025-07-03T15:48:36.000000Z</time>
			</trkpt>
			<trkpt lat="16.40551303154999" lon="-86.37763136941494">
				<ele>50.4524</ele>
				<time>2025-07-03T15:48:37.000000Z</time>
			</trkpt>
			<trkpt lat="16.4054678473215" lon="-86.37768751403634">
				<ele>50.6468</ele>
				<time>2025-07-03T15:48:38.000000Z</time>
			</trkpt>
			<trkpt lat="16.405414275468953" lon="-86.3777397954906">
				<ele>50.8312</ele>
				<time>2025-07-03T15:48:39.000000Z</time>
			</trkpt>
			<trkpt lat="16.405359392615125" lon="-86.37778091133522">
				<ele>51.1331</ele>
				<time>2025-07-03T15:48:40.000000Z</time>
			</trkpt>
			<trkpt lat="16.40530435536737" lon="-86.37781451778818">
				<ele>51.1758</ele>
				<time>2025-07-03T15:48:41.000000Z</time>
			</trkpt>
			<trkpt lat="16.405254234939775" lon="-86.3778437235111">
				<ele>51.3342</ele>
				<time>2025-07-03T15:48:42.000000Z</time>
			</trkpt>
			<trkpt lat="16.40520702287787" lon="-86.37787153477733">
				<ele>51.2039</ele>
				<time>2025-07-03T15:48:43.000000Z</time>
			</trkpt>
			<trkpt lat="16.405154746764193" lon="-86.37790636526638">
				<ele>50.7511</ele>
				<time>2025-07-03T15:48:44.000000Z</time>
			</trkpt>
			<trkpt lat="16.40509650875642" lon="-86.37795024961198">
				<ele>50.6917</ele>
				<time>2025-07-03T15:48:45.000000Z</time>
			</trkpt>
			<trkpt lat="16.405034013792516" lon="-86.37800504471079">
				<ele>50.5714</ele>
				<time>2025-07-03T15:48:46.000000Z</time>
			</trkpt>
			<trkpt lat="16.404966136923477" lon="-86.37806364055204">
				<ele>50.5531</ele>
				<time>2025-07-03T15:48:47.000000Z</time>
			</trkpt>
			<trkpt lat="16.404894112856184" lon="-86.37812447294107">
				<ele>50.2852</ele>
				<time>2025-07-03T15:48:48.000000Z</time>
			</trkpt>
			<trkpt lat="16.404818375270903" lon="-86.37818435888575">
				<ele>50.1183</ele>
				<time>2025-07-03T15:48:49.000000Z</time>
			</trkpt>
			<trkpt lat="16.404741137889204" lon="-86.37824085434076">
				<ele>49.9518</ele>
				<time>2025-07-03T15:48:50.000000Z</time>
			</trkpt>
			<trkpt lat="16.404662747461522" lon="-86.37829429300352">
				<ele>49.6136</ele>
				<time>2025-07-03T15:48:51.000000Z</time>
			</trkpt>
			<trkpt lat="16.40458642823787" lon="-86.37835072986411">
				<ele>49.1771</ele>
				<time>2025-07-03T15:48:52.000000Z</time>
			</trkpt>
			<trkpt lat="16.404515034373894" lon="-86.37841652849113">
				<ele>48.7597</ele>
				<time>2025-07-03T15:48:53.000000Z</time>
			</trkpt>
			<trkpt lat="16.404452860005378" lon="-86.37849475865762">
				<ele>48.4019</ele>
				<time>2025-07-03T15:48:54.000000Z</time>
			</trkpt>
			<trkpt lat="16.404401232657463" lon="-86.37858482254056">
				<ele>48.0357</ele>
				<time>2025-07-03T15:48:55.000000Z</time>
			</trkpt>
			<trkpt lat="16.404366984739347" lon="-86.37868510302988">
				<ele>47.6194</ele>
				<time>2025-07-03T15:48:56.000000Z</time>
			</trkpt>
			<trkpt lat="16.404354495227306" lon="-86.37879285372094">
				<ele>47.2478</ele>
				<time>2025-07-03T15:48:57.000000Z</time>
			</trkpt>
			<trkpt lat="16.40435583217497" lon="-86.37890000376262">
				<ele>46.8688</ele>
				<time>2025-07-03T15:48:58.000000Z</time>
			</trkpt>
			<trkpt lat="16.404358303277103" lon="-86.37900467419566">
				<ele>46.4416</ele>
				<time>2025-07-03T15:48:59.000000Z</time>
			</trkpt>
			<trkpt lat="16.404353125785082" lon="-86.37910771198952">
				<ele>46.1512</ele>
				<time>2025-07-03T15:49:00.000000Z</time>
			</trkpt>
			<trkpt lat="16.404338983774924" lon="-86.37921031758557">
				<ele>45.8475</ele>
				<time>2025-07-03T15:49:01.000000Z</time>
			</trkpt>
			<trkpt lat="16.404317779283083" lon="-86.37931164900536">
				<ele>45.4153</ele>
				<time>2025-07-03T15:49:02.000000Z</time>
			</trkpt>
			<trkpt lat="16.40428531418132" lon="-86.37941085863179">
				<ele>44.8714</ele>
				<time>2025-07-03T15:49:03.000000Z</time>
			</trkpt>
			<trkpt lat="16.4042381377002" lon="-86.37950303259818">
				<ele>44.3853</ele>
				<time>2025-07-03T15:49:04.000000Z</time>
			</trkpt>
			<trkpt lat="16.40418672686898" lon="-86.37957999829324">
				<ele>44.3161</ele>
				<time>2025-07-03T15:49:05.000000Z</time>
			</trkpt>
			<trkpt lat="16.40414205860486" lon="-86.37964464669248">
				<ele>44.2817</ele>
				<time>2025-07-03T15:49:06.000000Z</time>
			</trkpt>
			<trkpt lat="16.4040992282847" lon="-86.37970131586093">
				<ele>44.2904</ele>
				<time>2025-07-03T15:49:07.000000Z</time>
			</trkpt>
			<trkpt lat="16.40405596456191" lon="-86.37975265312633">
				<ele>44.4089</ele>
				<time>2025-07-03T15:49:08.000000Z</time>
			</trkpt>
			<trkpt lat="16.404013561225806" lon="-86.37980328214854">
				<ele>44.7391</ele>
				<time>2025-07-03T15:49:09.000000Z</time>
			</trkpt>
			<trkpt lat="16.403971184337326" lon="-86.37984941888027">
				<ele>45.0523</ele>
				<time>2025-07-03T15:49:10.000000Z</time>
			</trkpt>
			<trkpt lat="16.40392853568355" lon="-86.3798886490028">
				<ele>45.2953</ele>
				<time>2025-07-03T15:49:11.000000Z</time>
			</trkpt>
			<trkpt lat="16.403885900424395" lon="-86.3799229983678">
				<ele>45.6711</ele>
				<time>2025-07-03T15:49:12.000000Z</time>
			</trkpt>
			<trkpt lat="16.403841086245485" lon="-86.37995601336773">
				<ele>46.1052</ele>
				<time>2025-07-03T15:49:13.000000Z</time>
			</trkpt>
			<trkpt lat="16.40378878638303" lon="-86.37998558324233">
				<ele>46.4236</ele>
				<time>2025-07-03T15:49:14.000000Z</time>
			</trkpt>
			<trkpt lat="16.403732605871138" lon="-86.38000904069769">
				<ele>46.8571</ele>
				<time>2025-07-03T15:49:15.000000Z</time>
			</trkpt>
			<trkpt lat="16.40367072625199" lon="-86.38002644260078">
				<ele>47.3829</ele>
				<time>2025-07-03T15:49:16.000000Z</time>
			</trkpt>
			<trkpt lat="16.403603461093475" lon="-86.38003826743461">
				<ele>48.017</ele>
				<time>2025-07-03T15:49:17.000000Z</time>
			</trkpt>
			<trkpt lat="16.40353153521515" lon="-86.38004295106971">
				<ele>48.6191</ele>
				<time>2025-07-03T15:49:18.000000Z</time>
			</trkpt>
			<trkpt lat="16.40345953886375" lon="-86.38004646658986">
				<ele>49.2961</ele>
				<time>2025-07-03T15:49:19.000000Z</time>
			</trkpt>
			<trkpt lat="16.403387791921304" lon="-86.38005721196859">
				<ele>49.8631</ele>
				<time>2025-07-03T15:49:20.000000Z</time>
			</trkpt>
			<trkpt lat="16.40331744983291" lon="-86.380079907744">
				<ele>50.4181</ele>
				<time>2025-07-03T15:49:21.000000Z</time>
			</trkpt>
			<trkpt lat="16.403246886134895" lon="-86.38011637488476">
				<ele>50.9426</ele>
				<time>2025-07-03T15:49:22.000000Z</time>
			</trkpt>
			<trkpt lat="16.40317725801658" lon="-86.38016367859352">
				<ele>51.4109</ele>
				<time>2025-07-03T15:49:23.000000Z</time>
			</trkpt>
			<trkpt lat="16.40311183208257" lon="-86.38021878936954">
				<ele>51.8207</ele>
				<time>2025-07-03T15:49:24.000000Z</time>
			</trkpt>
			<trkpt lat="16.403054019469465" lon="-86.38027660466035">
				<ele>52.1977</ele>
				<time>2025-07-03T15:49:25.000000Z</time>
			</trkpt>
			<trkpt lat="16.40300473431821" lon="-86.38033523329163">
				<ele>52.3611</ele>
				<time>2025-07-03T15:49:26.000000Z</time>
			</trkpt>
			<trkpt lat="16.402962571979483" lon="-86.38039282831174">
				<ele>52.3258</ele>
				<time>2025-07-03T15:49:27.000000Z</time>
			</trkpt>
			<trkpt lat="16.40293102762574" lon="-86.3804382875735">
				<ele>52.1897</ele>
				<time>2025-07-03T15:49:28.000000Z</time>
			</trkpt>
			<trkpt lat="16.402909142412987" lon="-86.38046394585533">
				<ele>52.1295</ele>
				<time>2025-07-03T15:49:29.000000Z</time>
			</trkpt>
			<trkpt lat="16.402888569435078" lon="-86.38048469004684">
				<ele>51.9269</ele>
				<time>2025-07-03T15:49:30.000000Z</time>
			</trkpt>
			<trkpt lat="16.40286505163885" lon="-86.3805075089143">
				<ele>51.7814</ele>
				<time>2025-07-03T15:49:31.000000Z</time>
			</trkpt>
			<trkpt lat="16.402841586247956" lon="-86.38053164754277">
				<ele>51.7039</ele>
				<time>2025-07-03T15:49:32.000000Z</time>
			</trkpt>
			<trkpt lat="16.40281365721113" lon="-86.38056177811112">
				<ele>51.4302</ele>
				<time>2025-07-03T15:49:33.000000Z</time>
			</trkpt>
			<trkpt lat="16.40277712943763" lon="-86.38060040185076">
				<ele>51.2733</ele>
				<time>2025-07-03T15:49:34.000000Z</time>
			</trkpt>
			<trkpt lat="16.402734236190742" lon="-86.38064780973879">
				<ele>51.0626</ele>
				<time>2025-07-03T15:49:35.000000Z</time>
			</trkpt>
			<trkpt lat="16.402687659839746" lon="-86.38069749729596">
				<ele>50.7755</ele>
				<time>2025-07-03T15:49:36.000000Z</time>
			</trkpt>
			<trkpt lat="16.40263915385726" lon="-86.38074921612754">
				<ele>50.2851</ele>
				<time>2025-07-03T15:49:37.000000Z</time>
			</trkpt>
			<trkpt lat="16.40259282408107" lon="-86.38079413314347">
				<ele>49.8286</ele>
				<time>2025-07-03T15:49:38.000000Z</time>
			</trkpt>
			<trkpt lat="16.402558576856816" lon="-86.38082796599467">
				<ele>49.4779</ele>
				<time>2025-07-03T15:49:39.000000Z</time>
			</trkpt>
			<trkpt lat="16.402537783433882" lon="-86.3808503554173">
				<ele>49.0808</ele>
				<time>2025-07-03T15:49:40.000000Z</time>
			</trkpt>
			<trkpt lat="16.402522578263707" lon="-86.38086614006401">
				<ele>48.7462</ele>
				<time>2025-07-03T15:49:41.000000Z</time>
			</trkpt>
			<trkpt lat="16.402502815613783" lon="-86.38088669408909">
				<ele>48.4736</ele>
				<time>2025-07-03T15:49:42.000000Z</time>
			</trkpt>
			<trkpt lat="16.402476807513317" lon="-86.38091375337518">
				<ele>48.138</ele>
				<time>2025-07-03T15:49:43.000000Z</time>
			</trkpt>
			<trkpt lat="16.402451930557515" lon="-86.38093898890322">
				<ele>47.8082</ele>
				<time>2025-07-03T15:49:44.000000Z</time>
			</trkpt>
			<trkpt lat="16.40242504653523" lon="-86.38096536158547">
				<ele>47.3637</ele>
				<time>2025-07-03T15:49:45.000000Z</time>
			</trkpt>
			<trkpt lat="16.402392961661896" lon="-86.38099894646153">
				<ele>46.7727</ele>
				<time>2025-07-03T15:49:46.000000Z</time>
			</trkpt>
			<trkpt lat="16.402353913589636" lon="-86.38103951719847">
				<ele>46.0737</ele>
				<time>2025-07-03T15:49:47.000000Z</time>
			</trkpt>
			<trkpt lat="16.4023055897029" lon="-86.38108600375872">
				<ele>45.2532</ele>
				<time>2025-07-03T15:49:48.000000Z</time>
			</trkpt>
			<trkpt lat="16.402246579664244" lon="-86.3811431780871">
				<ele>44.2943</ele>
				<time>2025-07-03T15:49:49.000000Z</time>
			</trkpt>
			<trkpt lat="16.402177902703116" lon="-86.38121004839051">
				<ele>43.3122</ele>
				<time>2025-07-03T15:49:50.000000Z</time>
			</trkpt>
			<trkpt lat="16.402105386242365" lon="-86.3812800860771">
				<ele>42.5263</ele>
				<time>2025-07-03T15:49:51.000000Z</time>
			</trkpt>
			<trkpt lat="16.402029189961144" lon="-86.3813504912104">
				<ele>41.7752</ele>
				<time>2025-07-03T15:49:52.000000Z</time>
			</trkpt>
			<trkpt lat="16.40195574780957" lon="-86.3814132329765">
				<ele>41.2884</ele>
				<time>2025-07-03T15:49:53.000000Z</time>
			</trkpt>
			<trkpt lat="16.401887111948483" lon="-86.3814726996542">
				<ele>41.049</ele>
				<time>2025-07-03T15:49:54.000000Z</time>
			</trkpt>
			<trkpt lat="16.40181844930256" lon="-86.38153490756996">
				<ele>40.928</ele>
				<time>2025-07-03T15:49:55.000000Z</time>
			</trkpt>
			<trkpt lat="16.401751201677968" lon="-86.38159661891967">
				<ele>41.1028</ele>
				<time>2025-07-03T15:49:56.000000Z</time>
			</trkpt>
			<trkpt lat="16.401682426413903" lon="-86.38165825688682">
				<ele>41.2395</ele>
				<time>2025-07-03T15:49:57.000000Z</time>
			</trkpt>
			<trkpt lat="16.401611387140267" lon="-86.38172176081149">
				<ele>41.4411</ele>
				<time>2025-07-03T15:49:58.000000Z</time>
			</trkpt>
			<trkpt lat="16.40153842182826" lon="-86.38178760211646">
				<ele>41.8866</ele>
				<time>2025-07-03T15:49:59.000000Z</time>
			</trkpt>
			<trkpt lat="16.401467432751467" lon="-86.38185493932797">
				<ele>42.3067</ele>
				<time>2025-07-03T15:50:00.000000Z</time>
			</trkpt>
			<trkpt lat="16.401401452819584" lon="-86.38191880034582">
				<ele>42.5868</ele>
				<time>2025-07-03T15:50:01.000000Z</time>
			</trkpt>
			<trkpt lat="16.401340533645744" lon="-86.38198135083175">
				<ele>42.8214</ele>
				<time>2025-07-03T15:50:02.000000Z</time>
			</trkpt>
			<trkpt lat="16.401284568677468" lon="-86.38204418065686">
				<ele>43.0467</ele>
				<time>2025-07-03T15:50:03.000000Z</time>
			</trkpt>
			<trkpt lat="16.40123787730768" lon="-86.38210764963964">
				<ele>43.2577</ele>
				<time>2025-07-03T15:50:04.000000Z</time>
			</trkpt>
			<trkpt lat="16.401198424493924" lon="-86.38217034990988">
				<ele>43.4493</ele>
				<time>2025-07-03T15:50:05.000000Z</time>
			</trkpt>
			<trkpt lat="16.401165412402715" lon="-86.38223197229499">
				<ele>43.8209</ele>
				<time>2025-07-03T15:50:06.000000Z</time>
			</trkpt>
			<trkpt lat="16.40113764180477" lon="-86.3822906992678">
				<ele>44.1095</ele>
				<time>2025-07-03T15:50:07.000000Z</time>
			</trkpt>
			<trkpt lat="16.401116293960815" lon="-86.38234351973469">
				<ele>44.3413</ele>
				<time>2025-07-03T15:50:08.000000Z</time>
			</trkpt>
			<trkpt lat="16.40109985399252" lon="-86.3823898505535">
				<ele>44.4394</ele>
				<time>2025-07-03T15:50:09.000000Z</time>
			</trkpt>
			<trkpt lat="16.401085222840397" lon="-86.3824320389331">
				<ele>44.4415</ele>
				<time>2025-07-03T15:50:10.000000Z</time>
			</trkpt>
			<trkpt lat="16.401067989326158" lon="-86.38247305580835">
				<ele>44.3988</ele>
				<time>2025-07-03T15:50:11.000000Z</time>
			</trkpt>
			<trkpt lat="16.401045757490095" lon="-86.38251763984933">
				<ele>44.3457</ele>
				<time>2025-07-03T15:50:12.000000Z</time>
			</trkpt>
			<trkpt lat="16.401021955173622" lon="-86.38256455493058">
				<ele>44.1163</ele>
				<time>2025-07-03T15:50:13.000000Z</time>
			</trkpt>
			<trkpt lat="16.40099713688057" lon="-86.38261242991688">
				<ele>43.7696</ele>
				<time>2025-07-03T15:50:14.000000Z</time>
			</trkpt>
			<trkpt lat="16.400971132559555" lon="-86.3826610405516">
				<ele>43.4542</ele>
				<time>2025-07-03T15:50:15.000000Z</time>
			</trkpt>
			<trkpt lat="16.400943357320298" lon="-86.38271201021418">
				<ele>42.9968</ele>
				<time>2025-07-03T15:50:16.000000Z</time>
			</trkpt>
			<trkpt lat="16.400913931868896" lon="-86.38276759970059">
				<ele>42.5994</ele>
				<time>2025-07-03T15:50:17.000000Z</time>
			</trkpt>
			<trkpt lat="16.400883089499608" lon="-86.38282486820323">
				<ele>42.2189</ele>
				<time>2025-07-03T15:50:18.000000Z</time>
			</trkpt>
			<trkpt lat="16.40085411023141" lon="-86.38287826583287">
				<ele>41.8558</ele>
				<time>2025-07-03T15:50:19.000000Z</time>
			</trkpt>
			<trkpt lat="16.400829501839873" lon="-86.3829258156389">
				<ele>41.5113</ele>
				<time>2025-07-03T15:50:20.000000Z</time>
			</trkpt>
			<trkpt lat="16.400807188798716" lon="-86.38296642878235">
				<ele>41.3802</ele>
				<time>2025-07-03T15:50:21.000000Z</time>
			</trkpt>
			<trkpt lat="16.40078865124636" lon="-86.38299676085464">
				<ele>41.2821</ele>
				<time>2025-07-03T15:50:22.000000Z</time>
			</trkpt>
			<trkpt lat="16.400773168528715" lon="-86.3830228404888">
				<ele>41.1354</ele>
				<time>2025-07-03T15:50:23.000000Z</time>
			</trkpt>
			<trkpt lat="16.400756734156044" lon="-86.38304912569433">
				<ele>40.9533</ele>
				<time>2025-07-03T15:50:24.000000Z</time>
			</trkpt>
			<trkpt lat="16.400736501415132" lon="-86.38307942185608">
				<ele>40.8554</ele>
				<time>2025-07-03T15:50:25.000000Z</time>
			</trkpt>
			<trkpt lat="16.400722519863074" lon="-86.38310212118198">
				<ele>40.8209</ele>
				<time>2025-07-03T15:50:26.000000Z</time>
			</trkpt>
			<trkpt lat="16.40072066551707" lon="-86.38310767177346">
				<ele>40.7157</ele>
				<time>2025-07-03T15:50:27.000000Z</time>
			</trkpt>
			<trkpt lat="16.400717837971463" lon="-86.38311075277127">
				<ele>40.5673</ele>
				<time>2025-07-03T15:50:28.000000Z</time>
			</trkpt>
			<trkpt lat="16.40071045022149" lon="-86.38312278040435">
				<ele>40.4589</ele>
				<time>2025-07-03T15:50:29.000000Z</time>
			</trkpt>
			<trkpt lat="16.400697539185234" lon="-86.38314538147627">
				<ele>40.491</ele>
				<time>2025-07-03T15:50:30.000000Z</time>
			</trkpt>
			<trkpt lat="16.400680769359795" lon="-86.38317582783189">
				<ele>40.6243</ele>
				<time>2025-07-03T15:50:31.000000Z</time>
			</trkpt>
			<trkpt lat="16.400659029974634" lon="-86.38321515270056">
				<ele>40.7095</ele>
				<time>2025-07-03T15:50:32.000000Z</time>
			</trkpt>
			<trkpt lat="16.400632153261245" lon="-86.38326035753418">
				<ele>40.9523</ele>
				<time>2025-07-03T15:50:33.000000Z</time>
			</trkpt>
			<trkpt lat="16.400601354041417" lon="-86.38331069940786">
				<ele>41.3104</ele>
				<time>2025-07-03T15:50:34.000000Z</time>
			</trkpt>
			<trkpt lat="16.40057165449309" lon="-86.3833570902488">
				<ele>41.6918</ele>
				<time>2025-07-03T15:50:35.000000Z</time>
			</trkpt>
			<trkpt lat="16.400546374573903" lon="-86.3833982389591">
				<ele>42.0678</ele>
				<time>2025-07-03T15:50:36.000000Z</time>
			</trkpt>
			<trkpt lat="16.400525127330774" lon="-86.38343327622407">
				<ele>42.3731</ele>
				<time>2025-07-03T15:50:37.000000Z</time>
			</trkpt>
			<trkpt lat="16.40050577895023" lon="-86.38346609961278">
				<ele>42.6374</ele>
				<time>2025-07-03T15:50:38.000000Z</time>
			</trkpt>
			<trkpt lat="16.400484513507443" lon="-86.38350508708626">
				<ele>42.8061</ele>
				<time>2025-07-03T15:50:39.000000Z</time>
			</trkpt>
			<trkpt lat="16.400458258302145" lon="-86.38355131719052">
				<ele>43.0426</ele>
				<time>2025-07-03T15:50:40.000000Z</time>
			</trkpt>
			<trkpt lat="16.400429317526054" lon="-86.38360542902393">
				<ele>43.2688</ele>
				<time>2025-07-03T15:50:41.000000Z</time>
			</trkpt>
			<trkpt lat="16.400398996768136" lon="-86.383661513761">
				<ele>43.3436</ele>
				<time>2025-07-03T15:50:42.000000Z</time>
			</trkpt>
			<trkpt lat="16.40036802474225" lon="-86.38371507651294">
				<ele>43.3093</ele>
				<time>2025-07-03T15:50:43.000000Z</time>
			</trkpt>
			<trkpt lat="16.400337249339227" lon="-86.38376618105762">
				<ele>43.2981</ele>
				<time>2025-07-03T15:50:44.000000Z</time>
			</trkpt>
			<trkpt lat="16.400307210239063" lon="-86.38381711483981">
				<ele>43.1474</ele>
				<time>2025-07-03T15:50:45.000000Z</time>
			</trkpt>
			<trkpt lat="16.40028147996585" lon="-86.38385905965136">
				<ele>42.9691</ele>
				<time>2025-07-03T15:50:46.000000Z</time>
			</trkpt>
			<trkpt lat="16.40026175436132" lon="-86.38389419934252">
				<ele>42.6926</ele>
				<time>2025-07-03T15:50:47.000000Z</time>
			</trkpt>
			<trkpt lat="16.400244075533546" lon="-86.38392485651292">
				<ele>42.4622</ele>
				<time>2025-07-03T15:50:48.000000Z</time>
			</trkpt>
			<trkpt lat="16.400226261529763" lon="-86.38395056910929">
				<ele>42.1794</ele>
				<time>2025-07-03T15:50:49.000000Z</time>
			</trkpt>
			<trkpt lat="16.400209856511268" lon="-86.38397651224042">
				<ele>42.0534</ele>
				<time>2025-07-03T15:50:50.000000Z</time>
			</trkpt>
			<trkpt lat="16.400193346524297" lon="-86.38400412932737">
				<ele>41.9558</ele>
				<time>2025-07-03T15:50:51.000000Z</time>
			</trkpt>
			<trkpt lat="16.40017581342228" lon="-86.38403489537197">
				<ele>41.8782</ele>
				<time>2025-07-03T15:50:52.000000Z</time>
			</trkpt>
			<trkpt lat="16.400156496551787" lon="-86.38406779541926">
				<ele>41.7892</ele>
				<time>2025-07-03T15:50:53.000000Z</time>
			</trkpt>
			<trkpt lat="16.400137778496802" lon="-86.3841024540582">
				<ele>41.7824</ele>
				<time>2025-07-03T15:50:54.000000Z</time>
			</trkpt>
			<trkpt lat="16.40011719484803" lon="-86.38414007746093">
				<ele>41.7993</ele>
				<time>2025-07-03T15:50:55.000000Z</time>
			</trkpt>
			<trkpt lat="16.40009607372836" lon="-86.38417753726837">
				<ele>41.801</ele>
				<time>2025-07-03T15:50:56.000000Z</time>
			</trkpt>
			<trkpt lat="16.40007684995232" lon="-86.38421258506915">
				<ele>41.8871</ele>
				<time>2025-07-03T15:50:57.000000Z</time>
			</trkpt>
			<trkpt lat="16.40005939191038" lon="-86.38424396053148">
				<ele>42.0193</ele>
				<time>2025-07-03T15:50:58.000000Z</time>
			</trkpt>
			<trkpt lat="16.400043276657325" lon="-86.38427075097499">
				<ele>42.1401</ele>
				<time>2025-07-03T15:50:59.000000Z</time>
			</trkpt>
			<trkpt lat="16.40002756116181" lon="-86.38429496090238">
				<ele>42.2626</ele>
				<time>2025-07-03T15:51:00.000000Z</time>
			</trkpt>
			<trkpt lat="16.40001398072871" lon="-86.38431986703402">
				<ele>42.4313</ele>
				<time>2025-07-03T15:51:01.000000Z</time>
			</trkpt>
			<trkpt lat="16.39999578186551" lon="-86.38434984047676">
				<ele>42.55</ele>
				<time>2025-07-03T15:51:02.000000Z</time>
			</trkpt>
			<trkpt lat="16.39997528120887" lon="-86.38438631639873">
				<ele>42.9031</ele>
				<time>2025-07-03T15:51:03.000000Z</time>
			</trkpt>
			<trkpt lat="16.399952892486347" lon="-86.38442387536197">
				<ele>43.2298</ele>
				<time>2025-07-03T15:51:04.000000Z</time>
			</trkpt>
			<trkpt lat="16.39993208771254" lon="-86.38446092834748">
				<ele>43.507</ele>
				<time>2025-07-03T15:51:05.000000Z</time>
			</trkpt>
			<trkpt lat="16.399912293411354" lon="-86.38449232125473">
				<ele>43.7406</ele>
				<time>2025-07-03T15:51:06.000000Z</time>
			</trkpt>
			<trkpt lat="16.399893058254996" lon="-86.38452272204054">
				<ele>44.0416</ele>
				<time>2025-07-03T15:51:07.000000Z</time>
			</trkpt>
			<trkpt lat="16.399872761725483" lon="-86.38455723581656">
				<ele>44.3091</ele>
				<time>2025-07-03T15:51:08.000000Z</time>
			</trkpt>
			<trkpt lat="16.399851561482556" lon="-86.3845965820945">
				<ele>44.5929</ele>
				<time>2025-07-03T15:51:09.000000Z</time>
			</trkpt>
			<trkpt lat="16.39982798155182" lon="-86.38463827117978">
				<ele>44.8223</ele>
				<time>2025-07-03T15:51:10.000000Z</time>
			</trkpt>
			<trkpt lat="16.399804355685482" lon="-86.3846763502857">
				<ele>44.9352</ele>
				<time>2025-07-03T15:51:11.000000Z</time>
			</trkpt>
			<trkpt lat="16.399787207554386" lon="-86.38470504621314">
				<ele>45.035</ele>
				<time>2025-07-03T15:51:12.000000Z</time>
			</trkpt>
			<trkpt lat="16.39977413762252" lon="-86.3847268648715">
				<ele>45.1284</ele>
				<time>2025-07-03T15:51:13.000000Z</time>
			</trkpt>
			<trkpt lat="16.39976359824604" lon="-86.38474766222546">
				<ele>45.2796</ele>
				<time>2025-07-03T15:51:14.000000Z</time>
			</trkpt>
			<trkpt lat="16.39975181947223" lon="-86.38476998574377">
				<ele>45.3055</ele>
				<time>2025-07-03T15:51:15.000000Z</time>
			</trkpt>
			<trkpt lat="16.39973710546677" lon="-86.38479391890431">
				<ele>45.4345</ele>
				<time>2025-07-03T15:51:16.000000Z</time>
			</trkpt>
			<trkpt lat="16.39972246652816" lon="-86.38481931389043">
				<ele>45.7755</ele>
				<time>2025-07-03T15:51:17.000000Z</time>
			</trkpt>
			<trkpt lat="16.399705507344432" lon="-86.3848499669033">
				<ele>46.1499</ele>
				<time>2025-07-03T15:51:18.000000Z</time>
			</trkpt>
			<trkpt lat="16.39968367605817" lon="-86.3848885434982">
				<ele>46.426</ele>
				<time>2025-07-03T15:51:19.000000Z</time>
			</trkpt>
			<trkpt lat="16.39965844990243" lon="-86.38493204263345">
				<ele>46.806</ele>
				<time>2025-07-03T15:51:20.000000Z</time>
			</trkpt>
			<trkpt lat="16.399634386667884" lon="-86.3849758962944">
				<ele>47.205</ele>
				<time>2025-07-03T15:51:21.000000Z</time>
			</trkpt>
			<trkpt lat="16.39961314056028" lon="-86.3850145591461">
				<ele>47.4806</ele>
				<time>2025-07-03T15:51:22.000000Z</time>
			</trkpt>
			<trkpt lat="16.3995925710934" lon="-86.38505080732244">
				<ele>47.721</ele>
				<time>2025-07-03T15:51:23.000000Z</time>
			</trkpt>
			<trkpt lat="16.39957251944418" lon="-86.38508302672084">
				<ele>47.9359</ele>
				<time>2025-07-03T15:51:24.000000Z</time>
			</trkpt>
			<trkpt lat="16.39955616877135" lon="-86.38511076762916">
				<ele>48.1026</ele>
				<time>2025-07-03T15:51:25.000000Z</time>
			</trkpt>
			<trkpt lat="16.399541665571704" lon="-86.38513614242098">
				<ele>48.1129</ele>
				<time>2025-07-03T15:51:26.000000Z</time>
			</trkpt>
			<trkpt lat="16.399527608644508" lon="-86.38516139949346">
				<ele>48.113</ele>
				<time>2025-07-03T15:51:27.000000Z</time>
			</trkpt>
			<trkpt lat="16.399515464583907" lon="-86.38518463283572">
				<ele>48.0647</ele>
				<time>2025-07-03T15:51:28.000000Z</time>
			</trkpt>
			<trkpt lat="16.399504528559877" lon="-86.38520574493076">
				<ele>48.1098</ele>
				<time>2025-07-03T15:51:29.000000Z</time>
			</trkpt>
			<trkpt lat="16.399494058864047" lon="-86.38522664307234">
				<ele>48.1028</ele>
				<time>2025-07-03T15:51:30.000000Z</time>
			</trkpt>
			<trkpt lat="16.399483942180865" lon="-86.38524601874633">
				<ele>48.0284</ele>
				<time>2025-07-03T15:51:31.000000Z</time>
			</trkpt>
			<trkpt lat="16.399472847544146" lon="-86.38526522877564">
				<ele>47.978</ele>
				<time>2025-07-03T15:51:32.000000Z</time>
			</trkpt>
			<trkpt lat="16.39946241567607" lon="-86.38528526434114">
				<ele>47.9967</ele>
				<time>2025-07-03T15:51:33.000000Z</time>
			</trkpt>
			<trkpt lat="16.399451509931822" lon="-86.385306996791">
				<ele>48.0011</ele>
				<time>2025-07-03T15:51:34.000000Z</time>
			</trkpt>
			<trkpt lat="16.399441942669522" lon="-86.38532656415305">
				<ele>48.1228</ele>
				<time>2025-07-03T15:51:35.000000Z</time>
			</trkpt>
			<trkpt lat="16.399432567947184" lon="-86.38534823831621">
				<ele>48.1376</ele>
				<time>2025-07-03T15:51:36.000000Z</time>
			</trkpt>
			<trkpt lat="16.39942169773252" lon="-86.38537337732933">
				<ele>48.2081</ele>
				<time>2025-07-03T15:51:37.000000Z</time>
			</trkpt>
			<trkpt lat="16.3994133408002" lon="-86.38539763095491">
				<ele>48.3089</ele>
				<time>2025-07-03T15:51:38.000000Z</time>
			</trkpt>
			<trkpt lat="16.399408695157934" lon="-86.38542108863984">
				<ele>48.3224</ele>
				<time>2025-07-03T15:51:39.000000Z</time>
			</trkpt>
			<trkpt lat="16.39940729372409" lon="-86.38544292079368">
				<ele>48.333</ele>
				<time>2025-07-03T15:51:40.000000Z</time>
			</trkpt>
			<trkpt lat="16.399406528256005" lon="-86.385468910155">
				<ele>48.2436</ele>
				<time>2025-07-03T15:51:41.000000Z</time>
			</trkpt>
			<trkpt lat="16.39941077252908" lon="-86.3855033003077">
				<ele>48.1745</ele>
				<time>2025-07-03T15:51:42.000000Z</time>
			</trkpt>
			<trkpt lat="16.399419084397397" lon="-86.38553913821286">
				<ele>48.0004</ele>
				<time>2025-07-03T15:51:43.000000Z</time>
			</trkpt>
			<trkpt lat="16.399430967027193" lon="-86.38557385839401">
				<ele>47.8801</ele>
				<time>2025-07-03T15:51:44.000000Z</time>
			</trkpt>
			<trkpt lat="16.399443536877314" lon="-86.3856028421999">
				<ele>47.8911</ele>
				<time>2025-07-03T15:51:45.000000Z</time>
			</trkpt>
			<trkpt lat="16.399454773779578" lon="-86.38562402678538">
				<ele>47.9824</ele>
				<time>2025-07-03T15:51:46.000000Z</time>
			</trkpt>
			<trkpt lat="16.399464748724288" lon="-86.38563900100647">
				<ele>48.0202</ele>
				<time>2025-07-03T15:51:47.000000Z</time>
			</trkpt>
			<trkpt lat="16.399474711145544" lon="-86.38565464861607">
				<ele>48.0733</ele>
				<time>2025-07-03T15:51:48.000000Z</time>
			</trkpt>
			<trkpt lat="16.399487762727233" lon="-86.38566960775029">
				<ele>48.1295</ele>
				<time>2025-07-03T15:51:49.000000Z</time>
			</trkpt>
			<trkpt lat="16.39950235169122" lon="-86.38568652694087">
				<ele>48.1512</ele>
				<time>2025-07-03T15:51:50.000000Z</time>
			</trkpt>
			<trkpt lat="16.399526384047476" lon="-86.38570865413084">
				<ele>48.1652</ele>
				<time>2025-07-03T15:51:51.000000Z</time>
			</trkpt>
			<trkpt lat="16.39956455869064" lon="-86.38574139297108">
				<ele>48.1937</ele>
				<time>2025-07-03T15:51:52.000000Z</time>
			</trkpt>
			<trkpt lat="16.39961214190442" lon="-86.3857777192889">
				<ele>48.0858</ele>
				<time>2025-07-03T15:51:53.000000Z</time>
			</trkpt>
			<trkpt lat="16.399661058934118" lon="-86.38581841209687">
				<ele>47.9941</ele>
				<time>2025-07-03T15:51:54.000000Z</time>
			</trkpt>
			<trkpt lat="16.39970968585325" lon="-86.38586242268727">
				<ele>47.7605</ele>
				<time>2025-07-03T15:51:55.000000Z</time>
			</trkpt>
			<trkpt lat="16.399759242858885" lon="-86.38591025748077">
				<ele>47.4453</ele>
				<time>2025-07-03T15:51:56.000000Z</time>
			</trkpt>
			<trkpt lat="16.399805258687195" lon="-86.38595934219994">
				<ele>47.1656</ele>
				<time>2025-07-03T15:51:57.000000Z</time>
			</trkpt>
			<trkpt lat="16.399846989712895" lon="-86.38601112325975">
				<ele>46.7797</ele>
				<time>2025-07-03T15:51:58.000000Z</time>
			</trkpt>
			<trkpt lat="16.399880821503718" lon="-86.3860704856506">
				<ele>46.4662</ele>
				<time>2025-07-03T15:51:59.000000Z</time>
			</trkpt>
			<trkpt lat="16.3999034306912" lon="-86.38613696696576">
				<ele>46.14</ele>
				<time>2025-07-03T15:52:00.000000Z</time>
			</trkpt>
			<trkpt lat="16.399915192287725" lon="-86.38620694035801">
				<ele>45.8682</ele>
				<time>2025-07-03T15:52:01.000000Z</time>
			</trkpt>
			<trkpt lat="16.399915602383203" lon="-86.38627309770516">
				<ele>45.569</ele>
				<time>2025-07-03T15:52:02.000000Z</time>
			</trkpt>
			<trkpt lat="16.399906850057373" lon="-86.3863379356469">
				<ele>45.3212</ele>
				<time>2025-07-03T15:52:03.000000Z</time>
			</trkpt>
			<trkpt lat="16.399889949745727" lon="-86.38640488525408">
				<ele>45.0494</ele>
				<time>2025-07-03T15:52:04.000000Z</time>
			</trkpt>
			<trkpt lat="16.399869588041692" lon="-86.38647599121667">
				<ele>44.8938</ele>
				<time>2025-07-03T15:52:05.000000Z</time>
			</trkpt>
			<trkpt lat="16.39984636029799" lon="-86.3865515300627">
				<ele>44.6255</ele>
				<time>2025-07-03T15:52:06.000000Z</time>
			</trkpt>
			<trkpt lat="16.399823946054028" lon="-86.38663017834202">
				<ele>44.3372</ele>
				<time>2025-07-03T15:52:07.000000Z</time>
			</trkpt>
			<trkpt lat="16.399802052379364" lon="-86.38670911390874">
				<ele>43.9725</ele>
				<time>2025-07-03T15:52:08.000000Z</time>
			</trkpt>
			<trkpt lat="16.399782256000854" lon="-86.38678813250627">
				<ele>43.4848</ele>
				<time>2025-07-03T15:52:09.000000Z</time>
			</trkpt>
			<trkpt lat="16.399767916222334" lon="-86.3868621365972">
				<ele>43.0858</ele>
				<time>2025-07-03T15:52:10.000000Z</time>
			</trkpt>
			<trkpt lat="16.399756736336087" lon="-86.3869332169942">
				<ele>42.8608</ele>
				<time>2025-07-03T15:52:11.000000Z</time>
			</trkpt>
			<trkpt lat="16.399743939208403" lon="-86.38699779371821">
				<ele>42.7528</ele>
				<time>2025-07-03T15:52:12.000000Z</time>
			</trkpt>
			<trkpt lat="16.399729126880192" lon="-86.38705676144961">
				<ele>42.7881</ele>
				<time>2025-07-03T15:52:13.000000Z</time>
			</trkpt>
			<trkpt lat="16.399713865645477" lon="-86.38711167336064">
				<ele>42.7306</ele>
				<time>2025-07-03T15:52:14.000000Z</time>
			</trkpt>
			<trkpt lat="16.399699728202798" lon="-86.38716280339902">
				<ele>42.683</ele>
				<time>2025-07-03T15:52:15.000000Z</time>
			</trkpt>
			<trkpt lat="16.39968781148125" lon="-86.38721037096771">
				<ele>42.7798</ele>
				<time>2025-07-03T15:52:16.000000Z</time>
			</trkpt>
			<trkpt lat="16.399676490889668" lon="-86.38725331215204">
				<ele>42.9443</ele>
				<time>2025-07-03T15:52:17.000000Z</time>
			</trkpt>
			<trkpt lat="16.39966558101908" lon="-86.38729236503569">
				<ele>42.8449</ele>
				<time>2025-07-03T15:52:18.000000Z</time>
			</trkpt>
			<trkpt lat="16.399658991557725" lon="-86.38731921517184">
				<ele>42.8655</ele>
				<time>2025-07-03T15:52:19.000000Z</time>
			</trkpt>
			<trkpt lat="16.399653723605866" lon="-86.38733896310146">
				<ele>42.7998</ele>
				<time>2025-07-03T15:52:20.000000Z</time>
			</trkpt>
			<trkpt lat="16.39964788114043" lon="-86.38735425584044">
				<ele>42.6587</ele>
				<time>2025-07-03T15:52:21.000000Z</time>
			</trkpt>
			<trkpt lat="16.399644159687778" lon="-86.38737135029115">
				<ele>42.5692</ele>
				<time>2025-07-03T15:52:22.000000Z</time>
			</trkpt>
			<trkpt lat="16.3996382676117" lon="-86.38739171519903">
				<ele>42.4678</ele>
				<time>2025-07-03T15:52:23.000000Z</time>
			</trkpt>
			<trkpt lat="16.39963108307904" lon="-86.3874151294372">
				<ele>42.3668</ele>
				<time>2025-07-03T15:52:24.000000Z</time>
			</trkpt>
		</trkseg>
	</trk>
</gpx>
